[[{"header":{"parameterUnit":"m.s-1","parameterCategory":1,"la1":31.0,"la2":29.5877,"lo1":-88.7671,"lo2":-86.6584,"dy":0.0162,"dx":0.0185,"nx":115,"ny":88,"refTime":"2023-02-27T18:00:00:Z","depth":0,"parameterNumber":2,"parameterNumberName":"U-component_of_WINDS"},"data":[0.0,0.0,0.0,0.0,0.0,0.0,0.0,0.0,0.0,0.0,0.0,0.0,0.0,0.0,0.0,0.0,0.0,0.0,0.0,0.0,0.0,0.0,0.0,0.0,0.0,0.0,0.0,0.0,0.0,0.0,0.0,0.0,0.0,0.0,0.0,0.0,0.0,0.0,0.0,0.0,0.0,0.0,0.0,0.0,0.0,0.0,0.0,0.0,0.0,0.0,0.0,0.0,0.0,0.0,0.0,0.0,0.0,0.0,0.0,0.0,0.0,0.0,0.0,0.0,0.0,0.0,0.0,0.0,0.0,0.0,0.0,0.0,0.0,0.0,0.0,0.0,0.0,0.0,0.0,0.0,0.0,0.0,0.0,0.0,0.0,0.0,0.0,0.0,0.0,0.0,0.0,0.0,0.0,0.0,0.0,0.0,0.0,0.0,0.0,0.0,0.0,0.0,0.0,0.0,0.0,0.0,0.0,0.0,0.0,0.0,0.0,0.0,0.0,0.0,0.0,0.0,0.0,0.0,0.0,0.0,0.0,0.0,0.0,0.0,0.0,0.0,0.0,0.0,0.0,0.0,0.0,0.0,0.0,0.0,0.0,0.0,0.0,0.0,0.0,0.0,0.0,0.0,0.0,0.0,0.0,0.0,0.0,0.0,0.0,0.0,0.0,0.0,0.0,0.0,0.0,0.0,0.0,0.0,0.0,0.0,0.0,0.0,0.0,0.0,0.0,0.0,0.0,0.0,0.0,0.0,0.0,0.0,0.0,0.0,0.0,0.0,0.0,0.0,0.0,0.0,0.0,0.0,0.0,0.0,0.0,0.0,0.0,0.0,0.0,0.0,0.0,0.0,0.0,0.0,0.0,0.0,0.0,0.0,0.0,0.0,0.0,0.0,0.0,0.0,0.0,0.0,0.0,0.0,0.0,0.0,0.0,0.0,0.0,0.0,0.0,0.0,0.0,0.0,0.0,0.0,0.0,0.0,0.0,0.0,0.0,0.0,0.0,0.0,0.0,0.0,0.0,0.0,0.0,0.0,0.0,0.0,0.0,0.0,0.0,0.0,0.0,0.0,0.0,0.0,0.0,0.0,0.0,0.0,0.0,0.0,0.0,0.0,0.0,0.0,0.0,0.0,0.0,0.0,0.0,0.0,0.0,0.0,0.0,0.0,0.0,0.0,0.0,0.0,0.0,0.0,0.0,0.0,0.0,0.0,0.0,0.0,0.0,0.0,0.0,0.0,0.0,0.0,0.0,0.0,0.0,0.0,0.0,0.0,0.0,0.0,0.0,0.0,0.0,0.0,0.0,0.0,0.0,0.0,0.0,0.0,0.0,0.0,0.0,0.0,0.0,0.0,0.0,0.0,0.0,0.0,0.0,0.0,0.0,0.0,0.0,0.0,0.0,0.0,0.0,0.0,0.0,0.0,0.0,0.0,0.0,0.0,0.0,0.0,0.0,0.0,0.0,0.0,0.0,0.0,0.0,0.0,0.0,0.0,0.0,0.0,0.0,0.0,0.0,0.0,0.0,0.0,0.0,0.0,0.0,0.0,0.0,0.0,0.0,0.0,0.0,0.0,0.0,0.0,0.0,0.0,0.0,0.0,0.0,0.0,0.0,0.0,0.0,0.0,0.0,0.0,0.0,0.0,0.0,0.0,0.0,0.0,0.0,0.0,0.0,0.0,0.0,0.0,0.0,0.0,0.0,0.0,0.0,0.0,0.0,0.0,0.0,0.0,0.0,0.0,0.0,0.0,0.0,0.0,0.0,0.0,0.0,0.0,0.0,0.0,0.0,0.0,0.0,0.0,0.0,0.0,0.0,0.0,0.0,0.0,0.0,0.0,0.0,0.0,0.0,0.0,0.0,0.0,0.0,0.0,0.0,0.0,0.0,0.0,0.0,0.0,0.0,0.0,0.0,0.0,0.0,0.0,0.0,0.0,0.0,0.0,0.0,0.0,0.0,0.0,0.0,0.0,0.0,0.0,0.0,0.0,0.0,0.0,0.0,0.0,0.0,0.0,0.0,0.0,0.0,0.0,0.0,0.0,0.0,0.0,0.0,0.0,0.0,0.0,0.0,0.0,0.0,0.0,0.0,0.0,0.0,0.0,0.0,0.0,0.0,0.0,0.0,0.0,0.0,0.0,0.0,0.0,0.0,0.0,0.0,0.0,0.0,0.0,0.0,0.0,0.0,0.0,0.0,0.0,0.0,0.0,0.0,0.0,0.0,0.0,0.0,0.0,0.0,0.0,0.0,0.0,0.0,0.0,0.0,0.0,0.0,0.0,0.0,0.0,0.0,0.0,0.0,0.0,0.0,0.0,0.0,0.0,0.0,0.0,0.0,0.0,0.0,0.0,0.0,0.0,0.0,0.0,0.0,0.0,0.0,0.0,0.0,0.0,0.0,0.0,0.0,0.0,0.0,0.0,0.0,0.0,0.0,0.0,0.0,0.0,0.0,0.0,0.0,0.0,0.0,0.0,0.0,0.0,0.0,0.0,0.0,0.0,0.0,0.0,0.0,0.0,0.0,0.0,0.0,0.0,0.0,0.0,0.0,0.0,0.0,0.0,0.0,0.0,0.0,0.0,0.0,0.0,0.0,0.0,0.0,0.0,0.0,0.0,0.0,0.0,0.0,0.0,0.0,0.0,0.0,0.0,0.0,0.0,0.0,0.0,0.0,0.0,0.0,0.0,0.0,0.0,0.0,0.0,0.0,0.0,0.0,0.0,0.0,0.0,0.0,0.0,0.0,0.0,0.0,0.0,0.0,0.0,0.0,0.0,0.0,0.0,0.0,0.0,0.0,0.0,0.0,0.0,0.0,0.0,0.0,0.0,0.0,0.0,0.0,0.0,0.0,0.0,0.0,0.0,0.0,0.0,0.0,0.0,0.0,0.0,0.0,0.0,0.0,0.0,0.0,0.0,0.0,0.0,0.0,0.0,0.0,0.0,0.0,0.0,0.0,0.0,0.0,0.0,0.0,0.0,0.0,0.0,0.0,0.0,0.0,0.0,0.0,0.0,0.0,0.0,0.0,0.0,0.0,0.0,0.0,0.0,0.0,0.0,0.0,0.0,0.0,0.0,0.0,0.0,0.0,0.0,0.0,0.0,0.0,0.0,0.0,0.0,0.0,0.0,0.0,0.0,0.0,0.0,0.0,0.0,0.0,0.0,0.0,0.0,0.0,0.0,0.0,0.0,0.0,0.0,0.0,0.0,0.0,0.0,0.0,0.0,0.0,0.0,0.0,0.0,0.0,0.0,0.0,0.0,0.0,0.0,0.0,0.0,0.0,0.0,0.0,0.0,0.0,0.0,0.0,0.0,0.0,0.0,0.0,0.0,0.0,0.0,0.0,0.0,0.0,0.0,0.0,0.0,0.0,0.0,0.0,0.0,0.0,0.0,0.0,0.0,0.0,0.0,0.0,0.0,0.0,0.0,0.0,0.0,0.0,0.0,0.0,0.0,0.0,0.0,0.0,0.0,0.0,0.0,0.0,0.0,0.0,0.0,0.0,0.0,0.0,0.0,0.0,0.0,0.0,0.0,0.0,0.0,0.0,0.0,0.0,0.0,0.0,0.0,0.0,0.0,0.0,0.0,0.0,0.0,0.0,0.0,0.0,0.0,0.0,0.0,0.0,0.0,0.0,0.0,0.0,0.0,0.0,0.0,0.0,0.0,0.0,0.0,0.0,0.0,0.0,0.0,0.0,0.0,0.0,0.0,0.0,0.0,0.0,0.0,0.0,0.0,0.0,0.0,0.0,0.0,0.0,0.0,0.0,0.0,0.0,0.0,0.0,0.0,0.0,0.0,0.0,0.0,0.0,0.0,0.0,0.0,0.0,0.0,0.0,0.0,0.0,0.0,0.0,0.0,0.0,0.0,0.0,0.0,0.0,0.0,0.0,0.0,0.0,0.0,0.0,0.0,0.0,0.0,0.0,0.0,0.0,0.0,0.0,0.0,0.0,0.0,0.0,0.0,0.0,0.0,0.0,0.0,0.0,0.0,0.0,0.0,0.0,0.0,0.0,0.0,0.0,0.0,0.0,0.0,0.0,0.0,0.0,0.0,0.0,0.0,0.0,0.0,0.0,0.0,0.0,0.0,0.0,0.0,0.0,0.0,0.0,0.0,0.0,0.0,0.0,0.0,0.0,0.0,0.0,0.0,0.0,0.0,0.0,0.0,0.0,0.0,0.0,0.0,0.0,0.0,0.0,0.0,0.0,0.0,0.0,0.0,0.0,0.0,0.0,0.0,0.0,0.0,0.0,0.0,0.0,0.0,-3.9878,0.0,0.0,0.0,0.0,0.0,0.0,0.0,0.0,0.0,0.0,0.0,0.0,0.0,0.0,0.0,0.0,0.0,0.0,0.0,0.0,0.0,0.0,0.0,0.0,0.0,0.0,0.0,0.0,0.0,0.0,0.0,0.0,0.0,0.0,0.0,0.0,0.0,0.0,0.0,0.0,0.0,0.0,0.0,0.0,0.0,0.0,0.0,0.0,0.0,0.0,0.0,0.0,0.0,0.0,0.0,0.0,0.0,0.0,0.0,0.0,0.0,0.0,0.0,0.0,0.0,0.0,0.0,0.0,0.0,0.0,0.0,0.0,0.0,0.0,0.0,0.0,0.0,0.0,0.0,0.0,0.0,0.0,0.0,0.0,0.0,0.0,0.0,0.0,0.0,0.0,0.0,0.0,0.0,0.0,0.0,0.0,0.0,0.0,0.0,0.0,0.0,0.0,0.0,0.0,0.0,0.0,0.0,0.0,0.0,0.0,-3.9458,-3.9661,-4.0177,-4.0284,-3.9908,0.0,0.0,0.0,0.0,0.0,0.0,0.0,0.0,0.0,0.0,0.0,0.0,0.0,0.0,0.0,0.0,0.0,0.0,0.0,0.0,0.0,0.0,0.0,0.0,0.0,0.0,0.0,0.0,0.0,0.0,0.0,0.0,0.0,0.0,0.0,0.0,0.0,0.0,0.0,0.0,0.0,0.0,0.0,0.0,0.0,0.0,0.0,0.0,0.0,0.0,0.0,0.0,0.0,0.0,0.0,0.0,0.0,0.0,0.0,0.0,0.0,0.0,0.0,0.0,0.0,0.0,0.0,0.0,0.0,0.0,0.0,0.0,0.0,0.0,0.0,0.0,0.0,0.0,0.0,0.0,0.0,0.0,0.0,0.0,0.0,0.0,0.0,0.0,0.0,0.0,0.0,0.0,0.0,0.0,0.0,0.0,0.0,0.0,0.0,0.0,0.0,0.0,0.0,0.0,0.0,0.0,0.0,0.0,0.0,0.0,0.0,0.0,-4.1057,-4.1059,-4.0397,0.0,0.0,0.0,0.0,0.0,0.0,0.0,0.0,0.0,0.0,0.0,0.0,0.0,0.0,0.0,0.0,0.0,0.0,0.0,0.0,0.0,0.0,0.0,0.0,0.0,0.0,0.0,0.0,0.0,0.0,0.0,0.0,0.0,0.0,0.0,0.0,0.0,0.0,0.0,0.0,0.0,0.0,0.0,0.0,0.0,0.0,0.0,0.0,0.0,0.0,0.0,0.0,0.0,0.0,0.0,0.0,0.0,0.0,0.0,0.0,0.0,0.0,0.0,0.0,0.0,0.0,0.0,0.0,0.0,0.0,0.0,0.0,0.0,0.0,0.0,0.0,0.0,0.0,0.0,0.0,0.0,0.0,0.0,0.0,0.0,0.0,0.0,0.0,0.0,0.0,0.0,0.0,0.0,0.0,0.0,0.0,0.0,0.0,0.0,0.0,0.0,0.0,0.0,0.0,0.0,0.0,0.0,0.0,0.0,0.0,-4.0859,-4.2614,-4.2354,0.0,-4.1738,0.0,0.0,0.0,0.0,0.0,0.0,0.0,0.0,0.0,0.0,0.0,0.0,0.0,0.0,0.0,0.0,0.0,0.0,0.0,0.0,0.0,0.0,0.0,0.0,0.0,0.0,0.0,0.0,0.0,0.0,0.0,0.0,0.0,0.0,0.0,0.0,0.0,0.0,0.0,0.0,0.0,0.0,0.0,0.0,0.0,0.0,0.0,0.0,0.0,0.0,0.0,0.0,0.0,0.0,0.0,0.0,0.0,0.0,0.0,0.0,0.0,0.0,0.0,0.0,0.0,0.0,0.0,0.0,0.0,0.0,0.0,0.0,0.0,0.0,0.0,0.0,0.0,0.0,0.0,0.0,0.0,0.0,0.0,0.0,0.0,0.0,0.0,0.0,0.0,0.0,0.0,0.0,0.0,0.0,0.0,0.0,0.0,0.0,0.0,0.0,0.0,0.0,0.0,0.0,0.0,0.0,0.0,0.0,0.0,0.0,-4.0222,-4.229,-4.2353,-4.1945,0.0,0.0,0.0,0.0,0.0,0.0,0.0,0.0,0.0,0.0,0.0,0.0,0.0,0.0,0.0,0.0,0.0,0.0,0.0,0.0,0.0,0.0,0.0,0.0,0.0,0.0,0.0,0.0,0.0,0.0,0.0,0.0,0.0,0.0,0.0,0.0,0.0,0.0,0.0,0.0,0.0,0.0,0.0,0.0,0.0,0.0,0.0,0.0,0.0,0.0,0.0,0.0,0.0,0.0,0.0,0.0,0.0,0.0,0.0,0.0,0.0,0.0,0.0,0.0,0.0,0.0,0.0,0.0,0.0,0.0,0.0,0.0,0.0,0.0,0.0,0.0,0.0,0.0,0.0,0.0,0.0,0.0,0.0,0.0,0.0,0.0,0.0,0.0,0.0,0.0,0.0,0.0,0.0,0.0,0.0,0.0,0.0,0.0,0.0,0.0,0.0,0.0,0.0,0.0,0.0,0.0,0.0,0.0,0.0,0.0,-4.0008,-4.0741,-4.2808,-4.2705,-4.2057,-4.1016,0.0,0.0,0.0,0.0,0.0,0.0,0.0,0.0,0.0,0.0,0.0,0.0,0.0,0.0,0.0,0.0,0.0,0.0,0.0,0.0,0.0,0.0,0.0,0.0,0.0,0.0,0.0,0.0,0.0,0.0,0.0,0.0,0.0,0.0,0.0,0.0,0.0,0.0,0.0,0.0,0.0,0.0,0.0,0.0,0.0,0.0,0.0,0.0,0.0,0.0,0.0,0.0,0.0,0.0,0.0,0.0,0.0,0.0,0.0,0.0,0.0,0.0,0.0,0.0,0.0,0.0,0.0,0.0,0.0,0.0,0.0,0.0,0.0,0.0,0.0,0.0,0.0,0.0,0.0,0.0,0.0,0.0,0.0,0.0,0.0,0.0,0.0,0.0,0.0,0.0,0.0,0.0,0.0,0.0,0.0,0.0,0.0,0.0,0.0,0.0,0.0,0.0,0.0,0.0,0.0,0.0,0.0,0.0,-4.337,-4.2592,-4.324,-4.5421,-4.3877,-4.2878,0.0,0.0,0.0,0.0,0.0,0.0,0.0,0.0,0.0,0.0,0.0,0.0,0.0,0.0,0.0,0.0,0.0,0.0,0.0,0.0,0.0,0.0,0.0,0.0,0.0,0.0,0.0,0.0,0.0,0.0,0.0,0.0,0.0,0.0,0.0,0.0,0.0,0.0,0.0,0.0,0.0,0.0,0.0,0.0,0.0,0.0,0.0,0.0,0.0,0.0,0.0,0.0,0.0,0.0,0.0,0.0,0.0,0.0,0.0,0.0,0.0,0.0,0.0,0.0,0.0,0.0,0.0,0.0,0.0,0.0,0.0,0.0,0.0,0.0,0.0,0.0,0.0,0.0,0.0,0.0,0.0,0.0,0.0,0.0,0.0,0.0,0.0,0.0,0.0,0.0,0.0,0.0,0.0,0.0,0.0,0.0,0.0,0.0,0.0,0.0,0.0,0.0,0.0,0.0,0.0,0.0,0.0,0.0,0.0,-4.0777,-4.1805,-4.3074,-4.4482,-4.355,-4.2847,0.0,0.0,0.0,0.0,0.0,0.0,0.0,0.0,0.0,0.0,0.0,0.0,0.0,0.0,0.0,0.0,0.0,0.0,0.0,0.0,0.0,0.0,0.0,0.0,0.0,0.0,0.0,0.0,0.0,0.0,0.0,0.0,0.0,0.0,0.0,0.0,0.0,0.0,0.0,0.0,0.0,0.0,0.0,0.0,0.0,0.0,0.0,0.0,0.0,0.0,0.0,0.0,0.0,0.0,0.0,0.0,0.0,0.0,0.0,0.0,0.0,0.0,0.0,0.0,0.0,0.0,0.0,0.0,0.0,0.0,0.0,0.0,0.0,0.0,0.0,0.0,0.0,0.0,0.0,0.0,0.0,0.0,0.0,0.0,0.0,0.0,0.0,0.0,0.0,0.0,0.0,0.0,0.0,0.0,0.0,0.0,0.0,0.0,0.0,0.0,0.0,0.0,0.0,0.0,0.0,0.0,0.0,0.0,0.0,-4.0402,0.0,-4.4111,-4.4621,-4.3926,-4.3063,0.0,0.0,0.0,0.0,0.0,0.0,0.0,0.0,0.0,0.0,0.0,0.0,0.0,0.0,0.0,0.0,0.0,0.0,0.0,0.0,0.0,0.0,0.0,0.0,0.0,0.0,0.0,0.0,0.0,0.0,0.0,0.0,0.0,0.0,0.0,0.0,0.0,0.0,0.0,0.0,0.0,0.0,0.0,0.0,0.0,0.0,0.0,0.0,0.0,0.0,0.0,0.0,0.0,0.0,0.0,0.0,0.0,0.0,0.0,0.0,0.0,0.0,0.0,0.0,0.0,0.0,0.0,0.0,0.0,0.0,0.0,0.0,0.0,0.0,0.0,0.0,0.0,0.0,0.0,0.0,0.0,0.0,0.0,0.0,0.0,0.0,0.0,0.0,0.0,0.0,0.0,0.0,0.0,0.0,0.0,0.0,0.0,0.0,0.0,0.0,0.0,0.0,0.0,0.0,0.0,0.0,0.0,0.0,-4.0145,-4.2941,-4.5346,-4.6433,-4.6292,-4.5147,-4.3519,0.0,0.0,0.0,0.0,0.0,0.0,0.0,0.0,0.0,0.0,0.0,0.0,0.0,0.0,0.0,0.0,0.0,0.0,0.0,0.0,0.0,0.0,0.0,0.0,0.0,0.0,0.0,0.0,0.0,0.0,0.0,0.0,0.0,0.0,0.0,0.0,0.0,0.0,0.0,0.0,0.0,0.0,0.0,0.0,0.0,0.0,0.0,0.0,0.0,0.0,0.0,0.0,0.0,0.0,0.0,0.0,0.0,0.0,0.0,0.0,0.0,0.0,0.0,0.0,0.0,0.0,0.0,0.0,0.0,0.0,0.0,0.0,0.0,0.0,0.0,0.0,0.0,0.0,0.0,0.0,0.0,0.0,0.0,0.0,0.0,0.0,0.0,0.0,0.0,0.0,0.0,0.0,0.0,0.0,0.0,0.0,0.0,0.0,0.0,0.0,0.0,0.0,0.0,0.0,0.0,0.0,0.0,0.0,0.0,-4.1397,-4.3834,-4.5974,-4.75,-4.5132,-4.4199,0.0,0.0,0.0,0.0,0.0,0.0,0.0,0.0,0.0,0.0,0.0,0.0,0.0,0.0,0.0,0.0,0.0,0.0,0.0,0.0,0.0,0.0,0.0,0.0,0.0,0.0,0.0,0.0,0.0,0.0,0.0,0.0,0.0,0.0,0.0,0.0,0.0,0.0,0.0,0.0,0.0,0.0,0.0,0.0,0.0,0.0,0.0,0.0,0.0,0.0,0.0,0.0,0.0,0.0,0.0,0.0,0.0,0.0,0.0,0.0,0.0,0.0,0.0,0.0,0.0,0.0,0.0,0.0,0.0,0.0,0.0,0.0,0.0,0.0,0.0,0.0,0.0,0.0,0.0,0.0,0.0,0.0,0.0,0.0,0.0,0.0,0.0,0.0,0.0,0.0,0.0,0.0,0.0,0.0,0.0,0.0,0.0,0.0,0.0,0.0,0.0,0.0,0.0,0.0,0.0,0.0,0.0,0.0,0.0,-4.1976,-4.4105,-4.5916,-4.7256,-4.5278,-4.4455,-4.4927,0.0,0.0,0.0,0.0,0.0,0.0,0.0,0.0,0.0,0.0,0.0,0.0,0.0,0.0,0.0,0.0,0.0,0.0,0.0,0.0,0.0,0.0,0.0,0.0,0.0,0.0,0.0,0.0,0.0,0.0,0.0,0.0,0.0,0.0,0.0,0.0,0.0,0.0,0.0,0.0,0.0,0.0,0.0,0.0,0.0,0.0,0.0,0.0,0.0,0.0,0.0,0.0,0.0,0.0,0.0,0.0,0.0,0.0,0.0,0.0,0.0,0.0,0.0,0.0,0.0,0.0,0.0,0.0,0.0,0.0,0.0,0.0,0.0,0.0,0.0,0.0,0.0,0.0,0.0,0.0,0.0,0.0,0.0,0.0,0.0,0.0,0.0,0.0,0.0,0.0,0.0,0.0,0.0,0.0,0.0,0.0,0.0,0.0,0.0,0.0,0.0,0.0,0.0,0.0,0.0,0.0,0.0,0.0,-4.4061,-4.5936,-4.6605,-4.5968,-4.5822,-4.4617,0.0,0.0,0.0,0.0,0.0,0.0,0.0,0.0,0.0,0.0,0.0,0.0,0.0,0.0,0.0,0.0,0.0,0.0,0.0,0.0,0.0,0.0,0.0,0.0,0.0,0.0,0.0,0.0,0.0,0.0,0.0,0.0,0.0,0.0,0.0,0.0,0.0,0.0,0.0,0.0,0.0,0.0,0.0,0.0,0.0,0.0,0.0,0.0,0.0,0.0,0.0,0.0,0.0,0.0,0.0,0.0,0.0,0.0,0.0,0.0,0.0,0.0,0.0,0.0,0.0,0.0,0.0,0.0,0.0,0.0,0.0,0.0,0.0,0.0,0.0,0.0,0.0,0.0,0.0,0.0,0.0,0.0,0.0,0.0,0.0,0.0,0.0,0.0,0.0,0.0,0.0,0.0,0.0,0.0,0.0,0.0,0.0,0.0,0.0,0.0,0.0,0.0,0.0,0.0,0.0,0.0,0.0,0.0,0.0,-4.5243,-4.7176,-4.8505,-4.9083,-4.7947,-4.6957,0.0,0.0,0.0,0.0,0.0,0.0,0.0,0.0,0.0,0.0,0.0,0.0,0.0,0.0,0.0,0.0,0.0,0.0,0.0,0.0,0.0,0.0,0.0,0.0,0.0,0.0,0.0,0.0,0.0,0.0,0.0,0.0,0.0,0.0,0.0,0.0,0.0,0.0,0.0,0.0,0.0,0.0,0.0,0.0,0.0,0.0,0.0,0.0,0.0,0.0,0.0,0.0,0.0,0.0,0.0,0.0,0.0,0.0,0.0,0.0,0.0,0.0,0.0,0.0,0.0,0.0,0.0,0.0,0.0,0.0,0.0,0.0,0.0,0.0,0.0,0.0,0.0,0.0,0.0,0.0,0.0,0.0,0.0,0.0,0.0,0.0,0.0,0.0,0.0,0.0,0.0,0.0,0.0,0.0,0.0,0.0,0.0,0.0,0.0,0.0,0.0,0.0,0.0,0.0,0.0,0.0,0.0,0.0,-4.3692,-4.6117,-4.8002,-4.9708,-5.1246,-5.0046,-4.8511,0.0,0.0,0.0,0.0,0.0,0.0,0.0,0.0,0.0,0.0,0.0,0.0,0.0,0.0,0.0,0.0,0.0,0.0,0.0,0.0,0.0,0.0,0.0,0.0,0.0,0.0,0.0,0.0,0.0,0.0,0.0,0.0,0.0,0.0,0.0,0.0,0.0,0.0,0.0,0.0,0.0,0.0,0.0,0.0,0.0,0.0,0.0,0.0,0.0,0.0,0.0,0.0,0.0,0.0,0.0,0.0,0.0,0.0,0.0,0.0,0.0,0.0,0.0,0.0,0.0,0.0,0.0,0.0,0.0,0.0,0.0,0.0,0.0,0.0,0.0,0.0,0.0,0.0,0.0,0.0,0.0,0.0,0.0,0.0,0.0,0.0,0.0,0.0,0.0,0.0,0.0,0.0,0.0,0.0,0.0,0.0,0.0,0.0,0.0,0.0,0.0,0.0,0.0,0.0,0.0,0.0,0.0,0.0,-4.3707,-4.6896,-4.8633,-5.0498,-5.2428,-5.1715,-4.9405,0.0,0.0,0.0,0.0,0.0,0.0,0.0,0.0,0.0,0.0,0.0,0.0,0.0,0.0,0.0,0.0,0.0,0.0,0.0,0.0,0.0,0.0,0.0,0.0,0.0,0.0,0.0,0.0,0.0,0.0,0.0,0.0,0.0,0.0,0.0,0.0,0.0,0.0,0.0,0.0,0.0,0.0,0.0,0.0,0.0,0.0,0.0,0.0,0.0,0.0,0.0,0.0,0.0,0.0,0.0,0.0,0.0,0.0,0.0,0.0,0.0,0.0,0.0,0.0,0.0,0.0,0.0,0.0,0.0,0.0,0.0,0.0,0.0,0.0,0.0,0.0,0.0,0.0,0.0,0.0,0.0,0.0,0.0,0.0,0.0,0.0,0.0,0.0,0.0,0.0,0.0,0.0,0.0,0.0,0.0,0.0,0.0,0.0,0.0,0.0,0.0,0.0,0.0,0.0,0.0,0.0,0.0,0.0,-4.4597,-4.7983,-4.949,-5.1124,-5.2916,-5.1297,-4.9153,0.0,0.0,0.0,0.0,0.0,0.0,0.0,0.0,0.0,0.0,0.0,0.0,0.0,0.0,0.0,0.0,0.0,0.0,0.0,0.0,0.0,0.0,0.0,0.0,0.0,0.0,0.0,0.0,0.0,0.0,0.0,0.0,0.0,0.0,0.0,0.0,0.0,0.0,0.0,0.0,0.0,0.0,0.0,0.0,0.0,0.0,0.0,0.0,-3.9474,0.0,0.0,0.0,0.0,0.0,0.0,0.0,0.0,0.0,0.0,0.0,0.0,0.0,0.0,0.0,0.0,0.0,0.0,0.0,0.0,0.0,0.0,0.0,0.0,0.0,0.0,0.0,0.0,0.0,0.0,0.0,0.0,0.0,0.0,0.0,0.0,0.0,0.0,0.0,0.0,0.0,0.0,0.0,0.0,0.0,0.0,0.0,0.0,0.0,0.0,0.0,0.0,0.0,0.0,0.0,0.0,0.0,0.0,0.0,-4.4784,-4.8242,-4.9298,-5.0838,-5.2816,-5.1257,-4.9333,0.0,0.0,0.0,0.0,0.0,0.0,0.0,0.0,0.0,0.0,0.0,0.0,0.0,0.0,0.0,0.0,0.0,0.0,0.0,0.0,0.0,0.0,0.0,0.0,0.0,0.0,0.0,0.0,0.0,0.0,0.0,0.0,0.0,0.0,0.0,0.0,0.0,0.0,0.0,0.0,0.0,0.0,0.0,0.0,0.0,0.0,0.0,0.0,0.0,0.0,0.0,0.0,0.0,0.0,0.0,0.0,0.0,0.0,0.0,0.0,0.0,0.0,0.0,0.0,0.0,0.0,0.0,0.0,0.0,0.0,0.0,0.0,0.0,0.0,0.0,0.0,0.0,0.0,0.0,0.0,0.0,0.0,0.0,0.0,0.0,0.0,0.0,0.0,0.0,0.0,0.0,0.0,0.0,0.0,0.0,0.0,0.0,0.0,0.0,0.0,0.0,0.0,0.0,0.0,0.0,0.0,0.0,-4.2774,-4.4708,-4.819,-4.877,-5.0143,-5.2523,-5.1055,-4.9376,-4.7713,0.0,0.0,0.0,0.0,0.0,0.0,0.0,0.0,0.0,0.0,0.0,0.0,0.0,0.0,0.0,0.0,0.0,0.0,0.0,0.0,0.0,0.0,0.0,0.0,0.0,0.0,0.0,0.0,0.0,0.0,0.0,0.0,0.0,0.0,0.0,0.0,0.0,0.0,-3.5293,-3.5681,0.0,0.0,0.0,0.0,0.0,0.0,0.0,0.0,-3.8003,0.0,0.0,0.0,0.0,0.0,0.0,0.0,0.0,0.0,0.0,0.0,0.0,0.0,0.0,0.0,0.0,0.0,0.0,0.0,0.0,0.0,0.0,0.0,0.0,0.0,0.0,0.0,0.0,0.0,0.0,0.0,0.0,0.0,0.0,0.0,0.0,0.0,0.0,0.0,0.0,0.0,0.0,0.0,0.0,0.0,0.0,0.0,0.0,0.0,0.0,0.0,0.0,0.0,0.0,0.0,0.0,-4.3736,-4.3161,-4.4766,-4.8598,-4.8741,-4.9588,-5.1264,-4.9713,-4.8232,-4.7004,0.0,0.0,0.0,0.0,0.0,0.0,0.0,0.0,0.0,0.0,0.0,0.0,0.0,0.0,0.0,0.0,0.0,0.0,0.0,0.0,0.0,0.0,0.0,0.0,0.0,0.0,0.0,0.0,0.0,0.0,0.0,0.0,0.0,0.0,0.0,0.0,0.0,0.0,0.0,-3.7033,-3.7281,0.0,0.0,0.0,0.0,0.0,0.0,0.0,0.0,-3.7312,0.0,0.0,0.0,0.0,0.0,0.0,0.0,0.0,0.0,0.0,0.0,0.0,0.0,0.0,0.0,0.0,0.0,0.0,0.0,0.0,0.0,0.0,0.0,0.0,0.0,0.0,0.0,0.0,0.0,0.0,0.0,0.0,0.0,0.0,0.0,0.0,0.0,0.0,0.0,0.0,0.0,0.0,0.0,0.0,0.0,0.0,0.0,0.0,0.0,0.0,0.0,0.0,0.0,0.0,0.0,-4.3191,-4.2489,-4.3997,-4.7944,-4.7918,-4.839,-4.9565,-4.8321,-4.7108,0.0,0.0,0.0,0.0,0.0,0.0,0.0,0.0,0.0,0.0,0.0,0.0,0.0,0.0,0.0,0.0,0.0,0.0,0.0,0.0,0.0,0.0,0.0,0.0,0.0,0.0,0.0,0.0,0.0,0.0,0.0,0.0,0.0,0.0,0.0,0.0,0.0,0.0,0.0,0.0,-3.7408,-3.7788,-3.776,0.0,0.0,0.0,0.0,0.0,0.0,-3.727,-3.6896,0.0,0.0,0.0,0.0,0.0,0.0,0.0,0.0,0.0,0.0,0.0,0.0,0.0,0.0,0.0,0.0,0.0,0.0,0.0,0.0,0.0,0.0,0.0,0.0,0.0,0.0,0.0,0.0,0.0,0.0,0.0,0.0,0.0,0.0,0.0,0.0,0.0,0.0,0.0,0.0,0.0,0.0,0.0,0.0,0.0,0.0,0.0,0.0,0.0,0.0,0.0,0.0,0.0,0.0,0.0,-4.2553,-4.1967,-4.3447,-4.7096,-4.6951,-4.7185,-4.8031,-4.6957,-4.5924,0.0,0.0,0.0,0.0,0.0,0.0,0.0,0.0,0.0,0.0,0.0,0.0,0.0,0.0,0.0,0.0,0.0,0.0,0.0,0.0,0.0,0.0,0.0,0.0,0.0,0.0,0.0,0.0,0.0,0.0,0.0,0.0,0.0,0.0,0.0,0.0,0.0,0.0,0.0,0.0,0.0,-3.8376,-3.8308,-3.8517,0.0,0.0,0.0,0.0,-3.7301,-3.7431,0.0,0.0,0.0,0.0,0.0,0.0,0.0,0.0,0.0,0.0,0.0,0.0,0.0,0.0,0.0,0.0,0.0,0.0,0.0,0.0,0.0,0.0,0.0,0.0,0.0,0.0,0.0,0.0,0.0,0.0,0.0,0.0,0.0,0.0,0.0,0.0,0.0,0.0,0.0,0.0,0.0,0.0,0.0,0.0,0.0,0.0,0.0,0.0,0.0,0.0,0.0,0.0,0.0,0.0,0.0,0.0,-4.229,-4.248,-4.3858,-4.6444,-4.6238,-4.6413,-4.7249,-4.5732,-4.4493,0.0,0.0,0.0,0.0,0.0,0.0,0.0,0.0,0.0,0.0,0.0,0.0,0.0,0.0,0.0,0.0,0.0,0.0,0.0,0.0,0.0,0.0,0.0,0.0,0.0,0.0,0.0,0.0,0.0,0.0,0.0,0.0,0.0,0.0,0.0,0.0,0.0,0.0,0.0,0.0,0.0,-3.9245,-3.7815,-3.9023,-3.9558,0.0,0.0,-3.8618,-3.851,-3.9561,0.0,0.0,0.0,0.0,0.0,0.0,0.0,0.0,0.0,0.0,0.0,0.0,0.0,0.0,0.0,0.0,0.0,0.0,0.0,0.0,0.0,0.0,0.0,0.0,0.0,0.0,0.0,0.0,0.0,0.0,0.0,0.0,0.0,0.0,0.0,0.0,0.0,0.0,0.0,0.0,0.0,0.0,0.0,0.0,0.0,0.0,0.0,0.0,0.0,0.0,0.0,0.0,0.0,0.0,0.0,-3.9126,-4.1194,-4.0864,-4.2031,-4.4749,-4.5002,-4.5326,-4.5755,-4.4084,-4.3263,0.0,0.0,0.0,0.0,0.0,0.0,0.0,0.0,0.0,0.0,0.0,0.0,0.0,0.0,0.0,0.0,0.0,0.0,0.0,0.0,0.0,0.0,0.0,0.0,0.0,0.0,0.0,0.0,0.0,0.0,0.0,0.0,0.0,0.0,0.0,0.0,0.0,0.0,0.0,0.0,0.0,0.0,-3.8014,-3.9634,0.0,0.0,0.0,-3.9295,-3.9118,0.0,0.0,0.0,0.0,0.0,0.0,0.0,0.0,0.0,0.0,0.0,0.0,0.0,0.0,0.0,0.0,0.0,0.0,0.0,0.0,0.0,0.0,0.0,0.0,0.0,0.0,0.0,0.0,0.0,0.0,0.0,0.0,0.0,0.0,0.0,0.0,0.0,0.0,0.0,0.0,0.0,0.0,0.0,0.0,0.0,0.0,0.0,0.0,0.0,0.0,0.0,0.0,0.0,0.0,0.0,0.0,0.0,-4.0429,-3.9952,-4.0836,-4.327,-4.3981,-4.4301,-4.4254,-4.2663,0.0,0.0,0.0,0.0,0.0,0.0,0.0,0.0,0.0,0.0,0.0,0.0,0.0,0.0,0.0,0.0,0.0,0.0,0.0,0.0,0.0,0.0,0.0,0.0,0.0,0.0,0.0,-3.0671,0.0,0.0,0.0,0.0,0.0,0.0,0.0,0.0,0.0,0.0,0.0,0.0,0.0,0.0,-3.9362,-3.8375,-3.9943,-4.0883,0.0,0.0,-3.9649,-3.9664,-3.9637,-3.9125,0.0,0.0,0.0,0.0,0.0,0.0,0.0,0.0,0.0,0.0,0.0,0.0,0.0,0.0,0.0,0.0,0.0,0.0,0.0,0.0,0.0,0.0,0.0,0.0,0.0,0.0,0.0,0.0,0.0,0.0,0.0,0.0,0.0,0.0,0.0,0.0,0.0,0.0,0.0,0.0,0.0,0.0,0.0,0.0,0.0,0.0,0.0,0.0,0.0,0.0,0.0,0.0,0.0,0.0,-3.9113,-4.0448,-4.0926,-4.1602,-4.2632,-4.3392,-4.3582,-4.3188,-4.176,-4.1152,0.0,0.0,0.0,0.0,0.0,0.0,0.0,0.0,0.0,0.0,0.0,0.0,0.0,0.0,0.0,0.0,0.0,0.0,0.0,0.0,0.0,0.0,0.0,0.0,0.0,0.0,0.0,0.0,0.0,0.0,0.0,0.0,0.0,0.0,0.0,0.0,0.0,0.0,0.0,0.0,0.0,-3.8682,-3.8903,-3.9649,-4.0539,0.0,-4.0464,-3.9688,-4.0248,-4.1309,-4.0799,-3.6838,0.0,0.0,0.0,0.0,0.0,0.0,0.0,0.0,0.0,0.0,0.0,0.0,0.0,0.0,0.0,0.0,0.0,0.0,0.0,0.0,0.0,0.0,0.0,0.0,0.0,0.0,0.0,0.0,0.0,0.0,0.0,0.0,0.0,0.0,0.0,0.0,0.0,0.0,0.0,0.0,0.0,0.0,0.0,0.0,0.0,0.0,0.0,0.0,0.0,0.0,0.0,0.0,0.0,-3.8169,-4.0164,-3.9588,-4.0246,-4.2189,-4.2782,-4.2956,-4.2789,-4.139,-4.0609,0.0,0.0,0.0,0.0,0.0,0.0,0.0,0.0,0.0,0.0,0.0,0.0,0.0,0.0,0.0,0.0,0.0,0.0,0.0,0.0,0.0,0.0,0.0,0.0,0.0,0.0,0.0,0.0,-3.1102,-3.1264,-3.2104,0.0,0.0,0.0,0.0,0.0,0.0,0.0,0.0,0.0,0.0,-3.8121,-3.8567,-3.9802,0.0,0.0,-3.9831,-3.9448,-3.885,-3.8827,-3.8092,-3.5727,-3.4829,0.0,0.0,0.0,0.0,0.0,0.0,0.0,0.0,0.0,0.0,0.0,0.0,0.0,0.0,0.0,0.0,0.0,0.0,0.0,0.0,0.0,0.0,0.0,0.0,0.0,0.0,0.0,0.0,0.0,0.0,0.0,0.0,0.0,0.0,0.0,0.0,0.0,0.0,0.0,0.0,0.0,0.0,0.0,0.0,0.0,0.0,0.0,0.0,0.0,0.0,0.0,0.0,-3.7705,-3.9967,-3.898,-3.9588,-4.19,-4.2414,-4.2574,-4.2412,-4.1283,-4.045,0.0,0.0,0.0,0.0,0.0,0.0,0.0,0.0,0.0,0.0,0.0,0.0,0.0,0.0,0.0,0.0,0.0,0.0,0.0,0.0,0.0,0.0,0.0,0.0,0.0,0.0,0.0,0.0,-3.1946,-3.2198,-3.2838,0.0,0.0,0.0,0.0,0.0,0.0,0.0,0.0,0.0,0.0,-3.7546,-3.8275,-3.9073,-3.938,-3.8675,-3.831,-3.7938,-3.7363,-3.6678,-3.5781,-3.4449,0.0,0.0,0.0,0.0,0.0,0.0,0.0,0.0,0.0,0.0,0.0,0.0,0.0,0.0,0.0,0.0,0.0,0.0,0.0,0.0,0.0,0.0,0.0,0.0,0.0,0.0,0.0,-4.7481,0.0,0.0,-4.3571,0.0,0.0,0.0,0.0,0.0,0.0,0.0,0.0,0.0,0.0,0.0,0.0,0.0,0.0,0.0,0.0,0.0,0.0,0.0,0.0,0.0,0.0,-3.8185,-3.9983,-3.9595,-4.0151,-4.1574,-4.2317,-4.25,-4.2093,-4.1374,-4.0793,-4.0432,0.0,0.0,0.0,0.0,0.0,0.0,0.0,0.0,0.0,0.0,0.0,0.0,0.0,0.0,0.0,0.0,0.0,0.0,0.0,0.0,0.0,0.0,0.0,0.0,0.0,0.0,-3.3438,-3.3152,-3.2943,0.0,0.0,0.0,0.0,0.0,0.0,0.0,0.0,0.0,-3.558,-3.6314,-3.7002,-3.7993,-3.7227,-3.6916,-3.783,-3.6007,-3.4889,-3.6038,-3.5638,-3.4646,0.0,0.0,0.0,0.0,0.0,0.0,0.0,0.0,0.0,0.0,0.0,0.0,0.0,0.0,0.0,0.0,0.0,0.0,0.0,0.0,0.0,0.0,0.0,0.0,0.0,0.0,0.0,-4.7721,-4.6031,0.0,0.0,0.0,0.0,0.0,0.0,0.0,0.0,0.0,0.0,0.0,-4.2347,-4.2284,0.0,0.0,0.0,0.0,0.0,0.0,0.0,0.0,0.0,0.0,0.0,0.0,-3.8685,-3.9903,-3.9246,-3.974,-4.1525,-4.1825,-4.1907,-4.1737,-4.061,-3.9561,-3.867,0.0,0.0,0.0,0.0,0.0,0.0,0.0,0.0,0.0,0.0,0.0,0.0,0.0,0.0,0.0,0.0,0.0,0.0,0.0,0.0,0.0,0.0,0.0,0.0,0.0,-3.3865,0.0,0.0,0.0,0.0,0.0,0.0,0.0,0.0,0.0,0.0,-3.3407,-3.3475,-3.5389,-3.5161,-3.5134,-3.6091,-3.5867,-3.5732,0.0,0.0,0.0,0.0,0.0,0.0,0.0,0.0,0.0,0.0,0.0,0.0,0.0,0.0,-3.2942,-3.1459,-3.0847,-3.0523,-3.0401,0.0,0.0,0.0,0.0,0.0,0.0,0.0,0.0,0.0,0.0,0.0,0.0,0.0,0.0,-4.7372,-4.6264,-4.6113,0.0,0.0,0.0,0.0,0.0,0.0,0.0,0.0,-4.274,-4.2949,-4.3289,-4.3508,-4.3637,0.0,-4.2795,-4.1567,0.0,0.0,0.0,0.0,0.0,0.0,0.0,0.0,-3.9427,-3.9951,-3.95,-4.0008,-4.1494,-4.1588,-4.1588,-4.1573,-4.0482,-3.9502,-3.8739,-3.8051,-3.8033,0.0,0.0,0.0,0.0,0.0,0.0,0.0,0.0,0.0,0.0,0.0,0.0,0.0,0.0,0.0,0.0,0.0,0.0,0.0,0.0,0.0,0.0,0.0,-3.4214,0.0,0.0,0.0,0.0,0.0,0.0,0.0,0.0,0.0,-3.4406,-3.3653,-3.3666,-3.5511,-3.4924,-3.4572,-3.5266,0.0,0.0,0.0,0.0,0.0,0.0,0.0,-3.1929,-3.1172,-3.1593,-3.2053,-3.2168,-3.2461,-3.2701,-3.2701,0.0,0.0,-3.153,-3.0923,-3.0527,-3.0586,-3.0623,-3.0645,-3.0608,-3.0749,-3.0949,0.0,0.0,0.0,0.0,0.0,0.0,0.0,0.0,-4.6488,-4.7129,0.0,-4.6343,0.0,0.0,0.0,0.0,-4.2869,-4.2211,0.0,0.0,-4.2492,-4.2371,-4.2365,-4.3271,-4.3257,-4.2475,-4.3125,-4.2551,-4.0876,-3.9561,0.0,0.0,0.0,0.0,0.0,0.0,-4.0333,-4.0031,-4.0372,-4.0909,-4.1557,-4.1588,-4.1573,-4.1478,-4.0877,-4.0498,-4.0419,-3.9262,-3.9004,-3.9689,-3.9076,0.0,0.0,0.0,0.0,0.0,0.0,0.0,0.0,0.0,0.0,0.0,0.0,0.0,0.0,0.0,0.0,0.0,0.0,0.0,0.0,-3.5084,0.0,0.0,0.0,0.0,0.0,0.0,0.0,0.0,0.0,-3.3543,-3.4901,-3.3898,-3.3823,-3.5944,0.0,0.0,0.0,0.0,-3.3438,-3.283,-3.1782,-3.1075,-3.1112,-3.1384,-3.1529,-3.1253,0.0,0.0,-3.2273,-3.1907,-3.1726,-3.1673,-3.1445,-3.1508,-3.2914,-3.253,-3.2106,-3.1968,-3.167,-3.1471,-3.1134,-3.1182,-3.1272,-5.2753,0.0,0.0,0.0,0.0,-5.0596,-5.0196,-4.8809,-4.9441,-4.8968,-4.7617,-4.6124,0.0,0.0,0.0,0.0,0.0,0.0,-4.3341,-4.4041,-4.4612,-4.5005,-4.5319,-4.6018,-4.5911,-4.5032,-4.4517,-4.3597,-4.2367,-4.1272,-4.0507,-4.0115,0.0,0.0,0.0,0.0,-4.0303,-3.9909,-4.0341,-4.0909,-4.1606,-4.1588,-4.1114,-4.0135,-3.9929,-3.9376,-3.8443,-3.849,-3.8708,-3.9052,-3.8984,0.0,0.0,0.0,0.0,0.0,0.0,0.0,0.0,0.0,0.0,0.0,0.0,0.0,0.0,0.0,0.0,0.0,0.0,0.0,-3.5575,-3.557,-3.5516,0.0,0.0,0.0,0.0,0.0,0.0,0.0,0.0,0.0,-3.4851,-3.42,-3.3939,0.0,0.0,-3.3913,-3.3622,-3.3123,-3.2815,-3.2914,-3.2259,0.0,-3.2164,-3.2055,-3.1905,-3.1721,-3.2253,-3.2793,-3.3136,-3.2904,-3.2671,-3.2658,-3.2222,-3.2005,-3.2334,-3.1541,-3.0864,-3.0895,-3.1021,-3.1195,-3.1222,-3.1508,-3.1767,-5.4687,-5.3068,-5.297,-5.2101,-5.0901,-5.1882,-5.129,-4.9644,-4.9863,-4.9352,-4.8241,-4.6298,-4.5189,-4.4653,-4.363,0.0,0.0,0.0,-4.4327,-4.4923,-4.6082,-4.6762,-4.7052,-4.7399,-4.7065,-4.6182,-4.5265,-4.4213,-4.3071,-4.2729,-4.1979,-4.1,0.0,-4.0762,-3.9764,-4.0521,-4.0653,-4.0079,-4.0738,-4.1291,-4.1703,-4.1621,-4.1067,-3.9993,-3.9945,-3.955,-3.8744,-3.8586,-3.8664,-3.9056,-3.8733,-3.8463,0.0,0.0,0.0,0.0,0.0,0.0,0.0,0.0,0.0,0.0,0.0,-3.4913,-3.453,0.0,0.0,0.0,-3.4743,-3.5312,-3.5732,-3.557,0.0,0.0,0.0,0.0,0.0,0.0,0.0,-3.2864,-3.3275,-3.3824,-3.4419,-3.4377,-3.45,-3.5008,-3.4633,-3.4193,-3.394,0.0,-3.3395,-3.3688,-3.3227,-3.2921,-3.3179,-3.3069,-3.2853,-3.2512,-3.2529,-3.279,-3.3268,-3.303,-3.2843,-3.2966,-3.2612,-3.2205,-3.2205,-3.1487,-3.0956,-3.1075,-3.1311,-3.1505,-3.1639,-3.1866,-3.2073,-5.5765,-5.4414,-5.4371,-5.3286,-5.1639,-5.2139,-5.1394,-4.9765,-4.8976,-4.9046,-4.9653,-4.7013,-4.6118,-4.656,-4.5224,0.0,-4.3905,-4.4756,-4.5285,-4.5574,-4.711,-4.7775,-4.7775,-4.7775,-4.7272,-4.6302,-4.5579,-4.4545,-4.3362,-4.3803,-4.3435,-4.2298,-4.1622,-4.082,-3.9964,-4.0989,-4.1162,-4.0418,-4.1374,-4.1898,-4.1881,-4.1655,-4.1193,-4.0514,-4.0467,-4.0388,-4.0324,-3.9171,-3.876,-3.9281,-3.8435,-3.7904,-3.7826,0.0,0.0,0.0,0.0,0.0,0.0,0.0,0.0,0.0,0.0,0.0,0.0,0.0,0.0,0.0,-3.407,0.0,-3.5906,-3.521,0.0,0.0,0.0,-3.4055,-3.3848,-3.3373,-3.3047,-3.301,0.0,0.0,-3.3982,-3.4594,-3.535,-3.6308,-3.5855,-3.5494,-3.5682,-3.5071,-3.4703,-3.4835,-3.4453,-3.4072,-3.3967,-3.395,-3.3741,-3.316,-3.2778,-3.2677,-3.2979,-3.2721,-3.2558,-3.3006,-3.2612,-3.2205,-3.2205,-3.2128,-3.2205,-3.2151,-3.2178,-3.2191,-3.2178,-3.2155,-3.2169,-5.6826,-5.6159,-5.5857,-5.4295,-5.2138,-5.3313,-5.3236,-5.2337,-5.2099,-5.1745,-5.1129,-4.8793,-4.7143,-4.6056,-4.5745,-4.5788,-4.6195,-4.6333,-4.7032,-4.8166,-4.8418,-4.8534,-4.8534,-4.8534,-4.7754,-4.6327,-4.5755,-4.5004,-4.4074,-4.3835,-4.323,-4.2331,-4.2133,-4.1805,-4.133,-4.1148,-4.1067,-4.1061,-4.1709,-4.1931,-4.1654,-4.1131,-4.0482,-3.9787,-3.9281,-3.876,-3.8254,-3.8412,-3.8333,-3.7986,-3.8211,-3.7949,-3.7049,-3.7443,0.0,0.0,0.0,0.0,0.0,0.0,0.0,0.0,0.0,-3.5492,-3.5243,0.0,-3.6295,0.0,-3.4394,-3.4661,-3.527,-3.4979,0.0,0.0,-3.4657,-3.4238,-3.3329,-3.3363,-3.3348,-3.3088,-3.3721,-3.4403,-3.5033,-3.5666,-3.6251,-3.6744,-3.616,-3.5627,-3.5669,-3.5401,-3.5248,-3.5281,-3.5083,-3.4724,-3.4247,-3.3522,-3.3023,-3.265,-3.2786,-3.2975,-3.3088,-3.2993,-3.2952,-3.3033,-3.2626,-3.2259,-3.2205,-3.2205,-3.2205,-3.2205,-3.2205,-3.2205,-3.2205,-3.2205,-3.2205,-5.6899,-5.6519,-5.6189,-5.5147,-5.382,-5.457,-5.4442,-5.3664,-5.3359,-5.253,-5.129,-4.9257,-4.7806,-4.6873,-4.6543,-4.6726,-4.728,-4.6958,-4.7553,-4.8832,-4.8735,-4.8707,-4.869,-4.8278,-4.7386,-4.6099,-4.5365,-4.4754,-4.4184,-4.3654,-4.3201,-4.2864,-4.2492,-4.2433,-4.2667,-4.1862,-4.152,-4.1657,-4.2105,-4.2125,-4.172,-4.1436,-4.0912,-4.0245,-3.9514,-3.8861,-3.8266,-3.8241,-3.8062,-3.7727,-3.8042,-3.7779,-3.6874,-3.6935,-3.6761,0.0,0.0,0.0,0.0,0.0,0.0,0.0,0.0,0.0,0.0,0.0,-3.6474,-3.5288,-3.4263,-3.3982,-3.4872,-3.4595,-3.4347,-3.4277,-3.4292,-3.3956,-3.3227,-3.3573,-3.3789,-3.362,-3.4529,-3.5346,-3.5732,-3.6264,-3.6772,-3.6993,-3.6601,-3.627,-3.6243,-3.6164,-3.6086,-3.597,-3.6001,-3.5718,-3.4915,-3.3845,-3.3059,-3.2768,-3.2676,-3.2775,-3.302,-3.287,-3.2789,-3.2993,-3.2612,-3.2205,-3.2205,-3.2205,-3.2205,-3.2205,-3.2205,-3.2205,-3.2205,-3.2205,-3.2205,-5.6591,-5.6207,-5.5993,-5.585,-5.5706,-5.5572,-5.5044,-5.4244,-5.3489,-5.2393,-5.0926,-4.9319,-4.8583,-4.8398,-4.7797,-4.7734,-4.8045,-4.7548,-4.7793,-4.8633,-4.8621,-4.8489,-4.818,-4.7387,-4.6527,-4.5609,-4.4682,-4.4167,-4.3993,-4.3446,-4.3309,-4.3591,-4.2861,-4.2936,-4.3752,-4.2805,-4.2242,-4.2152,-4.245,-4.2397,-4.1931,-4.1917,-4.1613,-4.1019,-4.0203,-3.9498,-3.8932,-3.8179,-3.7747,-3.767,-3.7639,-3.7402,-3.6871,-3.6439,-3.6168,0.0,-3.5879,0.0,0.0,0.0,0.0,0.0,0.0,0.0,0.0,-3.5687,-3.5899,-3.5661,-3.3929,-3.3306,-3.4497,-3.4127,-3.3744,-3.357,-3.3585,-3.3515,-3.3452,-3.388,-3.4259,-3.4413,-3.5419,-3.6117,-3.622,-3.6708,-3.6978,-3.6978,-3.694,-3.69,-3.6978,-3.6911,-3.6844,-3.6649,-3.6623,-3.5965,-3.5149,-3.4242,-3.334,-3.3009,-3.268,-3.2504,-3.302,-3.2707,-3.2517,-3.2925,-3.2599,-3.2218,-3.2205,-3.2205,-3.2205,-3.2205,-3.2205,-3.2205,-3.2205,-3.2205,-3.2205,-5.6626,-5.6346,-5.6049,-5.589,-5.578,-5.4933,-5.4483,-5.4244,-5.3506,-5.2664,-5.1751,-5.0811,-5.0398,-5.0353,-5.0196,-5.0231,-5.0299,-4.9998,-4.9562,-4.9024,-4.8832,-4.7849,-4.6186,-4.6004,-4.5301,-4.4223,-4.3985,-4.3831,-4.3697,-4.3549,-4.3578,-4.3756,-4.3593,-4.3714,-4.3993,0.0,0.0,0.0,-4.2569,-4.2445,-4.2045,-4.1238,-4.0746,-4.0585,-3.9207,0.0,-3.7545,-3.7255,-3.6846,-3.6317,-3.6269,0.0,0.0,0.0,0.0,0.0,0.0,0.0,0.0,0.0,0.0,0.0,-3.7368,-3.6599,-3.5038,-3.4558,-3.4474,-3.4704,-3.3952,-3.3485,-3.3572,-3.3487,-3.3396,-3.3361,-3.3361,-3.3544,-3.3964,-3.4147,-3.4554,-3.5616,-3.5977,-3.63,-3.6726,-3.6961,-3.6978,-3.6978,-3.6978,-3.6978,-3.6978,-3.6978,-3.681,-3.628,-3.5508,-3.4654,-3.4113,-3.3444,-3.2844,-3.2504,-3.2748,-3.2925,-3.302,-3.3006,-3.2911,-3.3061,-3.2626,-3.2205,-3.2205,-3.2205,-3.2205,-3.2205,-3.2205,-3.2205,-3.2205,-3.2205,-3.2205,-5.6286,-5.5785,-5.551,-5.5352,0.0,-5.3778,-5.3173,-5.3138,-5.2786,-5.2172,-5.1417,-5.0645,-5.0294,-5.0285,-4.9504,-4.9337,-4.9556,-4.8644,-4.8273,-4.838,-4.7761,-4.6851,-4.5761,-4.5693,-4.5046,-4.3981,-4.3935,-4.3831,-4.3608,-4.3608,-4.3713,-4.3935,-4.3935,-4.3993,-4.4068,-4.3595,-4.316,-4.2728,-4.2728,-4.2571,-4.2238,-4.1798,-4.131,-4.0877,-3.9801,0.0,0.0,0.0,0.0,0.0,0.0,0.0,0.0,-3.6632,0.0,-3.6472,-3.6418,-3.638,-3.6324,-3.649,-3.6596,-3.657,-3.6353,-3.6031,-3.5616,-3.4938,-3.4604,-3.4814,-3.4538,-3.4333,-3.4261,-3.4225,-3.4225,-3.4225,-3.4225,-3.4365,-3.466,-3.4955,-3.5391,-3.5991,-3.637,-3.6694,-3.6936,-3.6978,-3.6978,-3.6978,-3.6929,-3.685,-3.6864,-3.685,-3.6626,-3.6011,-3.4841,-3.3999,-3.3793,-3.3176,-3.2632,-3.2413,-3.2486,-3.2626,-3.2667,-3.2667,-3.2653,-3.2653,-3.2409,-3.2205,-3.2205,-3.2205,-3.2205,-3.2205,-3.2205,-3.2205,-3.2205,-3.2205,-3.2205,-5.5571,-5.4955,-5.4693,-5.4555,-5.4439,-5.2722,-5.1916,-5.1821,-5.1821,0.0,0.0,-5.0048,-4.9723,-4.9618,-4.8222,-4.7847,-4.8181,-4.689,-4.669,-4.7448,-4.6525,-4.5869,-4.5518,-4.5322,-4.4742,-4.3881,-4.3935,-4.3877,-4.3608,-4.3654,-4.3831,-4.4068,-4.4039,-4.3964,-4.3894,-4.3386,-4.3021,-4.2868,-4.2868,-4.2728,-4.2445,-4.2473,-4.2052,-4.1218,-4.0526,-3.9454,-3.8069,-3.7831,-3.7387,-3.6693,-3.7188,-3.7277,-3.681,-3.66,-3.6293,-3.5876,-3.564,-3.5542,-3.5569,-3.5926,-3.6015,-3.5697,-3.5696,-3.5863,-3.6212,-3.5596,-3.5189,-3.5189,-3.5189,-3.5189,-3.5189,-3.5189,-3.5189,-3.5189,-3.5189,-3.5217,-3.5358,-3.578,-3.6103,-3.6248,-3.6669,-3.6978,-3.6978,-3.6978,-3.6978,-3.6993,-3.6889,-3.6707,-3.6693,-3.6456,-3.6108,-3.5579,-3.4529,-3.374,-3.3598,-3.3143,-3.2646,-3.2395,-3.2291,-3.2205,-3.2205,-3.2205,-3.2205,-3.2259,-3.2218,-3.2205,-3.2205,-3.2205,-3.2205,-3.2205,-3.2205,-3.2205,-3.2205,-3.2205,-3.2205,-5.4216,-5.3985,-5.3841,-5.3704,-5.3523,-5.2466,-5.1663,-5.1049,-5.1049,-5.0978,-5.082,-5.0057,-4.9723,-4.9671,-4.8802,-4.839,-4.8295,-4.8059,-4.7517,-4.6734,-4.6184,-4.5269,-4.4115,-4.3654,-4.3258,-4.2867,-4.3416,-4.3638,-4.3638,-4.3877,-4.4051,-4.4085,-4.3818,-4.3519,-4.3265,-4.3143,-4.2943,-4.2665,-4.2837,-4.2806,-4.2555,-4.2248,-4.1686,-4.0883,-4.0008,-3.882,-3.7312,-3.7147,-3.6723,-3.6071,-3.6019,-3.608,-3.6285,-3.6174,-3.616,-3.6367,-3.6211,-3.5975,-3.5718,-3.6076,-3.6605,-3.7155,-3.7564,-3.7112,-3.5526,-3.5282,-3.5189,-3.5189,-3.5245,-3.5189,-3.5189,-3.5231,-3.5273,-3.5231,-3.5203,-3.54,-3.592,-3.6061,-3.6328,-3.6754,-3.6908,-3.6978,-3.6978,-3.6978,-3.6978,-3.6978,-3.6929,-3.6889,-3.6568,-3.5736,-3.5123,-3.4817,-3.4058,-3.331,-3.3187,-3.2836,-3.2643,-3.2264,-3.2296,-3.2264,-3.2368,-3.2314,-3.2314,-3.2246,-3.2304,-3.23,-3.2259,-3.2205,-3.2232,-3.2246,-3.2205,-3.2205,-3.2205,-3.2205,-3.2205,-5.3593,-5.3087,-5.2908,-5.2799,-5.2657,-5.1341,-5.0803,-5.0803,-4.996,-5.0101,-5.0733,-4.9495,-4.9188,-4.9486,-4.8277,-4.7701,-4.757,-4.6986,-4.6367,-4.5743,-4.5425,-4.4772,-4.3848,-4.3684,-4.3386,-4.2929,-4.3369,-4.3519,-4.3369,-4.3654,-4.3848,-4.3818,-4.3489,-4.3248,-4.3113,-4.2929,-4.2759,-4.2602,-4.2696,-4.2696,-4.2586,-4.2372,-4.1644,-4.0471,-3.9875,-3.8902,-3.7375,-3.7238,-3.7104,-3.6784,-3.66,-3.66,-3.6723,-3.6523,-3.6414,-3.6492,-3.6305,-3.6174,-3.6084,-3.6639,-3.7266,-3.7864,-3.8065,-3.7745,-3.6585,-3.6491,-3.6429,-3.6188,-3.6188,-3.6188,-3.6188,-3.6188,-3.6188,-3.6188,-3.6174,-3.63,-3.6539,-3.6595,-3.6669,-3.6936,-3.6978,-3.6978,-3.6978,-3.6978,-3.6978,-3.6978,-3.6915,-3.6733,-3.6417,-3.5684,-3.5204,-3.5235,-3.4413,-3.389,-3.3916,-3.3431,-3.3234,-3.3412,-3.3022,-3.287,-3.2996,-3.2928,-3.2806,-3.3064,-3.3132,-3.2996,-3.2775,-3.2694,-3.2558,-3.2246,-3.2205,-3.2205,-3.2205,-3.2205,-3.2205,-5.2821,-5.2148,-5.2023,-5.1924,-5.1756,-5.0154,-4.9908,-5.0434,-4.8766,-4.8863,-4.9995,-4.8715,-4.8417,-4.8775,-4.7405,-4.6717,-4.6552,-4.5797,-4.53,-4.5032,-4.4786,-4.4395,-4.3889,-4.3923,-4.3582,-4.3143,-4.3339,-4.3355,-4.3174,-4.3369,-4.3413,-4.3355,-4.3096,-4.2974,-4.2974,-4.2743,-4.2602,-4.2602,-4.2571,-4.2555,-4.2571,-4.2445,-4.1659,-4.0204,-3.9892,-3.9086,-3.7664,-3.751,-3.751,-3.751,-3.727,-3.715,-3.715,-3.68,-3.6538,-3.6429,-3.6364,-3.6453,-3.6768,-3.7234,-3.7777,-3.8383,-3.8352,-3.8188,-3.7915,-3.7763,-3.7534,-3.7095,-3.6922,-3.6936,-3.6922,-3.6936,-3.6978,-3.6978,-3.6978,-3.6922,-3.6978,-3.6978,-3.6978,-3.6978,-3.6978,-3.6993,-3.6954,-3.6915,-3.6915,-3.6836,-3.6811,-3.6628,-3.6256,-3.591,-3.5817,-3.5683,-3.4901,-3.4205,-3.4715,-3.3993,-3.3569,-3.4107,-3.3393,-3.3088,-3.3349,-3.3281,-3.3322,-3.3637,-3.3691,-3.3471,-3.3156,-3.2925,-3.268,-3.23,-3.2205,-3.2205,-3.2205,-3.2205,-3.2205,-5.1423,-5.1238,-5.1229,-5.1113,-5.09,-4.9398,-4.917,-4.9504,-4.7407,-4.7208,-4.8391,-4.7648,-4.7351,-4.7281,-4.6386,-4.5909,-4.5806,-4.5519,-4.531,-4.5096,-4.462,-4.4253,-4.401,-4.3476,-4.3099,-4.2961,-4.3082,-4.3127,-4.3082,-4.3096,-4.2974,-4.2711,-4.2665,-4.2665,-4.2665,-4.2586,-4.2602,-4.2602,-4.2476,-4.2413,-4.2413,-4.2397,-4.1643,-4.0062,-3.9892,-3.9147,-3.7769,-3.7569,-3.751,-3.748,-3.7181,-3.7015,-3.6984,-3.6538,-3.6242,-3.6257,-3.6533,-3.7045,-3.7783,-3.7708,-3.8039,-3.887,-3.8833,-3.8708,-3.8634,-3.8352,-3.7825,-3.7211,-3.7017,-3.6978,-3.6978,-3.6978,-3.6978,-3.6978,-3.6978,-3.6978,-3.6978,-3.6978,-3.6978,-3.6978,-3.6993,-3.6954,-3.6786,-3.6747,-3.6668,-3.6549,-3.6733,-3.6772,-3.6589,-3.6466,-3.6369,-3.627,-3.5374,-3.4389,-3.4122,-3.3564,-3.349,-3.3015,-3.2582,-3.2803,-3.3278,-3.3349,-3.3254,-3.3718,-3.3729,-3.3495,-3.3129,-3.2707,-3.2449,-3.2395,-3.23,-3.2205,-3.2205,-3.2205,-3.2205,-5.1088,-5.0989,-5.0972,-5.1208,-5.1312,-4.989,-4.9416,-4.9486,-4.7654,-4.6877,-4.6845,-4.63,-4.6594,-4.7525,-4.655,-4.6061,-4.5973,-4.5346,-4.4923,-4.4659,-4.4406,-4.4064,-4.3671,-4.3432,-4.316,-4.2899,-4.2852,-4.2821,-4.2805,-4.2805,-4.2711,-4.2634,-4.2602,-4.2602,-4.2602,-4.2508,-4.2476,-4.2476,-4.2318,-4.2174,-4.2109,-4.2125,-4.1598,-4.0545,-3.9928,-3.9185,-3.825,-3.7777,-3.751,-3.748,-3.7197,-3.7202,-3.7561,-3.6832,-3.6625,-3.721,-3.741,-3.7699,-3.8094,-3.8352,-3.8677,-3.909,-3.9141,-3.9068,-3.8819,-3.8634,-3.83,-3.7772,-3.7303,-3.6978,-3.6978,-3.6978,-3.6978,-3.6978,-3.6978,-3.6978,-3.6978,-3.6978,-3.6978,-3.6978,-3.6889,-3.6811,-3.6707,-3.6589,-3.6549,-3.6563,-3.6668,-3.6628,-3.651,-3.6431,-3.6272,-3.6084,-3.554,-3.5409,-3.5231,-3.4927,-3.4672,-3.4609,-3.4317,-3.4123,-3.3946,-3.4095,-3.4122,-3.3975,-3.4217,-3.4136,-3.3702,-3.3742,-3.362,-3.3078,-3.2368,-3.2205,-3.2205,-3.2205,-3.2205,-5.0998,-5.0918,-5.0891,-5.1066,-5.1242,-4.9943,-4.9214,-4.8855,-4.7395,-4.6377,-4.5761,-4.5283,-4.5733,-4.6728,-4.6196,-4.5929,-4.5887,-4.5179,-4.4692,-4.4491,-4.4452,-4.4179,-4.373,-4.3552,-4.3342,-4.3023,-4.2728,-4.2602,-4.2602,-4.2602,-4.2602,-4.2602,-4.2555,-4.2539,-4.2539,-4.2397,-4.2318,-4.2286,-4.2109,-4.1964,-4.1898,-4.1833,-4.1468,-4.0817,-4.0167,-3.9518,-3.8885,-3.8174,-3.7889,-3.8017,-3.7603,-3.7545,-3.7872,-3.7172,-3.7084,-3.7819,-3.8167,-3.8355,-3.8519,-3.8945,-3.9192,-3.9177,-3.9301,-3.9265,-3.9031,-3.887,-3.8671,-3.8389,-3.7734,-3.7327,-3.7187,-3.707,-3.6993,-3.6978,-3.6978,-3.6978,-3.6978,-3.6978,-3.6978,-3.6978,-3.6889,-3.6707,-3.6628,-3.6563,-3.6524,-3.6391,-3.6445,-3.6445,-3.6405,-3.6246,-3.6032,-3.5884,-3.5871,-3.5882,-3.6196,-3.5595,-3.5597,-3.5501,-3.4963,-3.4578,-3.476,-3.4775,-3.4924,-3.4707,-3.5222,-3.5141,-3.4341,-3.4409,-3.4312,-3.3427,-3.2762,-3.2381,-3.2232,-3.2218,-3.2205,-5.0918,-5.0873,-5.0873,-5.0452,-4.9732,-4.8934,-4.811,-4.7386,-4.6222,-4.5546,-4.5247,-4.4872,-4.4703,-4.4783,-4.4895,-4.5019,-4.5209,-4.4903,-4.4803,-4.4869,-4.4776,-4.4648,-4.4435,-4.4006,-4.3625,-4.3281,-4.2852,-4.2634,-4.2602,-4.2602,-4.2602,-4.2602,-4.2476,-4.2413,-4.2381,-4.2238,-4.2109,-4.2109,-4.1964,-4.1898,-4.1866,-4.1703,-4.1386,-4.0864,-4.0626,-4.0246,-3.9721,-3.8901,-3.8744,-3.936,-3.8637,-3.8138,-3.7856,-3.7554,-3.7534,-3.779,-3.8355,-3.8968,-3.9444,-3.9436,-3.9388,-3.9373,-3.9409,-3.9373,-3.9316,-3.9017,-3.8819,-3.876,-3.8352,-3.7938,-3.761,-3.7303,-3.7056,-3.7017,-3.6993,-3.6978,-3.6978,-3.6978,-3.6978,-3.6978,-3.6954,-3.6733,-3.6484,-3.6563,-3.6351,-3.6098,-3.6312,-3.6549,-3.6405,-3.6192,-3.6112,-3.6192,-3.6111,-3.588,-3.5347,-3.5386,-3.5006,-3.4913,-3.5008,-3.4299,-3.4545,-3.4843,-3.51,-3.5248,-3.5208,-3.5019,-3.4734,-3.4355,-3.3946,-3.339,-3.3142,-3.2816,-3.23,-3.2232,-3.2205,-5.0575,-5.0118,-5.0145,-4.9662,-4.8916,-4.8444,-4.7797,-4.7021,-4.6278,-4.5579,-4.5039,-4.4547,-4.4378,-4.4502,-4.4395,-4.4581,-4.4869,-4.4406,-4.4293,-4.448,-4.4196,-4.3964,-4.3818,-4.3684,-4.3462,-4.3099,-4.2959,-4.2821,-4.2602,-4.2602,-4.2602,-4.2602,-4.2555,-4.2476,-4.2365,-4.2222,-4.2061,-4.1996,-4.1784,-4.1703,-4.1719,-4.1621,-4.1495,-4.129,-4.0847,-4.0514,-4.0325,-3.9566,-3.9266,-3.9487,-3.9109,-3.903,-3.9179,-3.9216,-3.902,-3.8743,-3.9202,-3.9597,-3.9687,-3.9732,-3.9676,-3.9424,-3.9517,-3.9517,-3.9409,-3.9265,-3.9177,-3.9104,-3.8701,-3.8329,-3.8142,-3.7687,-3.7341,-3.7187,-3.707,-3.6978,-3.6978,-3.6978,-3.6978,-3.694,-3.6797,-3.651,-3.6312,-3.6152,-3.6018,-3.5992,-3.6032,-3.6098,-3.6138,-3.6032,-3.5898,-3.5938,-3.5884,-3.5776,-3.5613,-3.5744,-3.5741,-3.5566,-3.5391,-3.5055,-3.5071,-3.5248,-3.5466,-3.4978,-3.4897,-3.5141,-3.4978,-3.4775,-3.4206,-3.3758,-3.3512,-3.3091,-3.2341,-3.2368,-3.23,-5.0443,-4.9776,-4.9723,-4.903,-4.8032,-4.7814,-4.7221,-4.635,-4.5795,-4.5228,-4.4671,-4.4184,-4.4051,-4.415,-4.3964,-4.408,-4.4423,-4.415,-4.415,-4.4265,-4.408,-4.3935,-4.3848,-4.3805,-4.3522,-4.316,-4.2959,-4.2805,-4.2634,-4.2602,-4.2602,-4.2602,-4.2571,-4.246,-4.2286,-4.2125,-4.1964,-4.1817,-4.167,-4.1588,-4.1588,-4.1588,-4.1588,-4.1525,-4.1146,-4.0925,-4.0893,-4.023,-3.9977,-4.0087,-3.9818,-3.9687,-3.9811,-3.992,-3.9776,-3.9375,-3.9775,-4.0031,-3.991,-3.996,-3.9854,-3.9568,-3.961,-3.961,-3.9424,-3.9388,-3.9388,-3.9316,-3.901,-3.8649,-3.8427,-3.8014,-3.761,-3.7341,-3.7148,-3.6978,-3.6978,-3.6978,-3.6954,-3.6889,-3.6707,-3.6405,-3.6152,-3.6018,-3.5978,-3.5978,-3.5844,-3.5898,-3.6032,-3.5898,-3.5764,-3.5804,-3.5764,-3.5764,-3.5669,-3.5762,-3.5895,-3.5747,-3.5706,-3.549,-3.5423,-3.5574,-3.5466,-3.4897,-3.4843,-3.5195,-3.5276,-3.5114,-3.4748,-3.426,-3.4016,-3.3729,-3.3091,-3.2558,-3.2504,-5.0417,-4.9688,-4.9662,-4.8654,-4.7213,-4.7047,-4.6254,-4.5272,-4.4811,-4.4501,-4.4172,-4.3776,-4.3658,-4.3628,-4.3568,-4.3565,-4.3831,-4.4241,-4.4384,-4.431,-4.4575,-4.471,-4.4654,-4.4373,-4.4001,-4.3575,-4.2947,-4.2666,-4.2602,-4.2602,-4.2602,-4.2571,-4.2476,-4.2333,-4.2109,-4.198,-4.1817,-4.167,-4.1588,-4.1588,-4.1588,-4.1588,-4.1588,-4.1588,-4.1525,-4.1509,-4.1525,-4.0925,-4.0846,-4.1304,-4.0715,-4.0074,-3.9689,-3.9576,-3.9378,-3.9501,-3.996,-4.0266,-4.0226,-4.0101,-3.9925,-3.9696,-3.9696,-3.961,-3.9445,-3.9388,-3.9388,-3.9352,-3.9192,-3.8922,-3.8516,-3.8127,-3.7711,-3.7366,-3.7095,-3.6978,-3.6978,-3.6978,-3.6915,-3.6747,-3.6628,-3.6524,-3.6246,-3.6152,-3.6098,-3.5844,-3.5884,-3.5992,-3.5992,-3.5858,-3.5858,-3.5938,-3.5844,-3.571,-3.571,-3.571,-3.571,-3.5696,-3.5709,-3.5601,-3.5614,-3.5696,-3.5696,-3.5289,-3.5262,-3.5574,-3.5574,-3.5398,-3.5141,-3.4748,-3.4558,-3.4231,-3.358,-3.2996,-3.2803,-5.0118,-4.8977,-4.8889,-4.8129,-4.6952,-4.6652,-4.6162,-4.5586,-4.5021,-4.4461,-4.3977,-4.3704,-4.3539,-4.3509,-4.3492,-4.3402,-4.3251,-4.3877,-4.4212,-4.4239,-4.457,-4.4741,-4.4783,-4.5083,-4.484,-4.4056,-4.3553,-4.3072,-4.2683,-4.2602,-4.2602,-4.2571,-4.2476,-4.2302,-4.2109,-4.1947,-4.1784,-4.1637,-4.1588,-4.1588,-4.1588,-4.1604,-4.1588,-4.1588,-4.1588,-4.1588,-4.1573,-4.1383,-4.1383,-4.1588,-4.1218,-4.0794,-4.0458,-4.0216,-4.0128,-4.0144,-4.0297,-4.0296,-4.0137,-4.0172,-3.9996,-3.9625,-3.9625,-3.9589,-3.9424,-3.9388,-3.9388,-3.9388,-3.9213,-3.8907,-3.8553,-3.8127,-3.7734,-3.7341,-3.7134,-3.6978,-3.6954,-3.6875,-3.6786,-3.6682,-3.6484,-3.6232,-3.6112,-3.6058,-3.5884,-3.5764,-3.5804,-3.5858,-3.5804,-3.5764,-3.571,-3.5804,-3.571,-3.571,-3.571,-3.571,-3.571,-3.571,-3.571,-3.571,-3.571,-3.571,-3.571,-3.571,-3.571,-3.571,-3.571,-3.5615,-3.5358,-3.51,-3.4788,-3.4314,-3.3797,-3.3485,-3.3295,-4.9539,-4.8187,-4.7901,-4.7404,-4.6652,-4.6227,-4.5852,-4.5508,-4.5096,-4.4487,-4.3863,-4.3615,-4.3479,-4.3419,-4.3358,-4.3176,-4.2994,-4.3756,-4.4145,-4.4208,-4.4634,-4.484,-4.4865,-4.5342,-4.5089,-4.4231,-4.3831,-4.3298,-4.2635,-4.2602,-4.2571,-4.2508,-4.2445,-4.2254,-4.2029,-4.1963,-4.1817,-4.1637,-4.1588,-4.1588,-4.1652,-4.1857,-4.1999,-4.1999,-4.1999,-4.2033,-4.1983,-4.1746,-4.1588,-4.1555,-4.1357,-4.107,-4.073,-4.0558,-4.0489,-4.0489,-4.0489,-4.0401,-4.0172,-4.0242,-4.0086,-3.9646,-3.9625,-3.9625,-3.9445,-3.9388,-3.9388,-3.9388,-3.9228,-3.8995,-3.8612,-3.815,-3.7772,-3.7457,-3.7187,-3.6993,-3.6889,-3.6786,-3.6589,-3.6484,-3.6246,-3.6072,-3.5938,-3.5938,-3.5804,-3.5764,-3.5804,-3.5764,-3.5764,-3.571,-3.571,-3.571,-3.571,-3.571,-3.571,-3.571,-3.571,-3.571,-3.571,-3.571,-3.571,-3.571,-3.571,-3.571,-3.571,-3.571,-3.571,-3.571,-3.5574,-3.5263,-3.5019,-3.4626,-3.4244,-3.4095,-3.3878,-4.8845,-4.7452,-4.6908,-4.6625,-4.6299,-4.5892,-4.5555,-4.5077,-4.4986,-4.4563,-4.3913,-4.3677,-4.357,-4.3446,-4.3313,-4.3159,-4.3175,-4.3786,-4.4286,-4.4478,-4.4937,-4.5205,-4.5272,-4.5566,-4.5195,-4.4317,-4.3945,-4.3428,-4.2781,-4.2604,-4.2492,-4.2381,-4.2318,-4.2238,-4.1963,-4.1914,-4.1784,-4.1637,-4.1588,-4.1588,-4.1604,-4.2173,-4.2568,-4.26,-4.26,-4.2647,-4.2663,-4.2126,-4.1683,-4.1538,-4.1254,-4.0932,-4.0608,-4.0489,-4.0489,-4.0489,-4.0489,-4.0436,-4.0312,-4.0191,-4.0051,-3.9717,-3.9661,-3.9625,-3.9409,-3.9388,-3.9388,-3.9373,-3.9177,-3.8995,-3.8708,-3.8263,-3.781,-3.7534,-3.7187,-3.6954,-3.6761,-3.6682,-3.651,-3.6246,-3.6086,-3.6032,-3.5858,-3.5978,-3.5978,-3.5871,-3.5952,-3.5898,-3.5764,-3.571,-3.571,-3.571,-3.571,-3.571,-3.571,-3.571,-3.571,-3.571,-3.571,-3.571,-3.571,-3.571,-3.571,-3.571,-3.571,-3.571,-3.571,-3.571,-3.571,-3.556,-3.5303,-3.4978,-3.4775,-3.4638,-3.4475,-4.9118,-4.8136,-4.7134,-4.6564,-4.633,-4.6252,-4.6079,-4.5763,-4.5592,-4.527,-4.4884,-4.4393,-4.4222,-4.4477,-4.394,-4.3974,-4.4331,-4.4311,-4.4538,-4.5061,-4.5666,-4.611,-4.6355,-4.6567,-4.6139,-4.519,-4.4558,-4.3928,-4.3235,-4.2687,-4.2334,-4.2174,-4.2189,-4.206,-4.1898,-4.1767,-4.167,-4.1588,-4.1588,-4.1604,-4.1652,-4.1825,-4.2157,-4.2647,-4.271,-4.2947,-4.3311,-4.2774,-4.1992,-4.1268,-4.1169,-4.0932,-4.0558,-4.0489,-4.0489,-4.0489,-4.0401,-4.0331,-4.0277,-4.0016,-3.9839,-3.9732,-3.9589,-3.9445,-3.9424,-3.9388,-3.9388,-3.9337,-3.9104,-3.887,-3.8708,-3.8263,-3.7734,-3.7264,-3.7127,-3.6957,-3.6707,-3.6563,-3.6365,-3.6152,-3.6086,-3.6046,-3.6046,-3.6112,-3.6192,-3.6032,-3.5992,-3.5992,-3.5804,-3.571,-3.571,-3.571,-3.571,-3.571,-3.571,-3.571,-3.571,-3.571,-3.571,-3.571,-3.571,-3.571,-3.571,-3.571,-3.571,-3.571,-3.571,-3.5696,-3.571,-3.571,-3.5588,-3.5343,-3.5262,-3.514,-3.5032,-4.8969,-4.7797,-4.6844,-4.6436,-4.6397,-4.6193,-4.6134,-4.6131,-4.5757,-4.5349,-4.4876,-4.4187,-4.4207,-4.4703,-4.4281,-4.4525,-4.5194,-4.508,-4.5325,-4.5783,-4.6405,-4.6727,-4.6882,-4.703,-4.6604,-4.5771,-4.5235,-4.4637,-4.3975,-4.3362,-4.3054,-4.2891,-4.2488,-4.231,-4.2211,-4.1797,-4.1604,-4.1588,-4.1604,-4.1699,-4.2031,-4.228,-4.2766,-4.3173,-4.3176,-4.3034,-4.2716,-4.2275,-4.1747,-4.1247,-4.1083,-4.0932,-4.0574,-4.0489,-4.0489,-4.0489,-4.0366,-4.0261,-4.0137,-3.9874,-3.9646,-3.9589,-3.9445,-3.9424,-3.9388,-3.9388,-3.9388,-3.925,-3.9031,-3.8907,-3.8708,-3.8337,-3.7902,-3.7618,-3.7425,-3.713,-3.6579,-3.6445,-3.6232,-3.6072,-3.6032,-3.6099,-3.6099,-3.622,-3.6206,-3.6112,-3.6086,-3.5938,-3.575,-3.571,-3.571,-3.571,-3.5723,-3.5737,-3.5737,-3.575,-3.571,-3.571,-3.571,-3.571,-3.571,-3.5696,-3.5574,-3.5574,-3.5655,-3.5683,-3.5601,-3.5615,-3.571,-3.571,-3.571,-3.5588,-3.5398,-3.5465,-3.5385,-4.8601,-4.7021,-4.6333,-4.6141,-4.617,-4.5645,-4.5582,-4.5914,-4.5537,-4.5029,-4.4571,-4.3817,-4.4402,-4.4774,-4.4896,-4.5041,-4.5892,-4.5979,-4.6208,-4.6519,-4.6859,-4.7032,-4.6894,-4.6927,-4.655,-4.5914,-4.5821,-4.5233,-4.4566,-4.4356,-4.4156,-4.3713,-4.32,-4.2958,-4.2762,-4.2205,-4.1906,-4.1968,-4.2047,-4.2299,-4.271,-4.2987,-4.3293,-4.3776,-4.3521,-4.2702,-4.1964,-4.1476,-4.1346,-4.1083,-4.1068,-4.0864,-4.0539,-4.0489,-4.0489,-4.0455,-4.0331,-4.0172,-4.0031,-3.9839,-3.9625,-3.9496,-3.946,-3.9388,-3.9388,-3.9373,-3.9265,-3.9141,-3.9031,-3.8856,-3.8766,-3.8446,-3.8299,-3.8129,-3.7983,-3.74,-3.6598,-3.6422,-3.6411,-3.6062,-3.6237,-3.6318,-3.633,-3.6289,-3.6276,-3.64,-3.6264,-3.5938,-3.5804,-3.571,-3.571,-3.571,-3.5737,-3.5764,-3.5778,-3.5778,-3.5737,-3.571,-3.571,-3.571,-3.571,-3.5642,-3.5425,-3.5384,-3.5601,-3.556,-3.5343,-3.5411,-3.5628,-3.571,-3.571,-3.5438,-3.5154,-3.5493,-3.5588,-4.8408,-4.7444,-4.613,-4.525,-4.4812,-4.4563,-4.4602,-4.4784,-4.516,-4.5358,-4.5587,-4.57,-4.606,-4.6651,-4.6207,-4.6583,-4.7158,-4.6783,-4.6585,-4.6989,-4.695,-4.6945,-4.6911,-4.6876,-4.6622,-4.6175,-4.5656,-4.5248,-4.4851,-4.4397,-4.3891,-4.3807,-4.3743,-4.3519,-4.344,-4.3232,-4.3232,-4.3232,-4.3184,-4.32,-4.3263,-4.315,-4.3201,-4.36,-4.3333,-4.2794,-4.2153,-4.1935,-4.1566,-4.1056,-4.0833,-4.0746,-4.0539,-4.0505,-4.0455,-4.0401,-4.0226,-4.0101,-4.0137,-3.9818,-3.9517,-3.9625,-3.9532,-3.9388,-3.9373,-3.9265,-3.9177,-3.9017,-3.8716,-3.8579,-3.8645,-3.8928,-3.8774,-3.8464,-3.828,-3.7989,-3.7158,-3.7205,-3.7387,-3.7497,-3.7566,-3.7717,-3.7662,-3.7246,-3.7041,-3.6783,-3.6415,-3.602,-3.5939,-3.5886,-3.5981,-3.6103,-3.5927,-3.5995,-3.609,-3.6062,-3.5967,-3.594,-3.5913,-3.5737,-3.5737,-3.5669,-3.5493,-3.5506,-3.5615,-3.5453,-3.5195,-3.5452,-3.571,-3.571,-3.571,-3.556,-3.5479,-3.5683,-3.5696,-4.8822,-4.7946,-4.6878,-4.6105,-4.5584,-4.5251,-4.5049,-4.4968,-4.4984,-4.5212,-4.5456,-4.5601,-4.6124,-4.698,-4.6977,-4.7304,-4.7769,-4.7391,-4.7077,-4.7202,-4.7064,-4.6996,-4.6876,-4.6807,-4.6633,-4.6359,-4.6105,-4.5789,-4.5416,-4.5068,-4.4886,-4.4638,-4.4334,-4.418,-4.4069,-4.3895,-4.3658,-4.3643,-4.3706,-4.3816,-4.4006,-4.3743,-4.3293,-4.3181,-4.2888,-4.2334,-4.1545,-4.1467,-4.1159,-4.0823,-4.0677,-4.0608,-4.0451,-4.0401,-4.0366,-4.0242,-4.0137,-4.0031,-4.0031,-3.9889,-3.9747,-3.9818,-3.9676,-3.9553,-3.9481,-3.9373,-3.9177,-3.9068,-3.8856,-3.8689,-3.8818,-3.9338,-3.9279,-3.8877,-3.8663,-3.8413,-3.811,-3.7959,-3.7854,-3.7951,-3.7965,-3.8076,-3.8048,-3.7841,-3.7593,-3.7236,-3.6716,-3.6375,-3.6837,-3.6767,-3.6699,-3.6672,-3.6361,-3.628,-3.6415,-3.6388,-3.6266,-3.6252,-3.628,-3.6008,-3.5791,-3.571,-3.5561,-3.5561,-3.556,-3.5385,-3.5222,-3.552,-3.571,-3.571,-3.571,-3.571,-3.571,-3.571,-3.571,-4.8944,-4.8031,-4.7501,-4.7101,-4.6756,-4.6078,-4.5699,-4.5517,-4.5046,-4.5016,-4.5033,-4.4895,-4.5941,-4.6746,-4.7236,-4.7696,-4.7884,-4.7803,-4.7437,-4.7201,-4.7115,-4.6996,-4.6842,-4.6703,-4.6563,-4.6528,-4.6394,-4.6234,-4.6017,-4.6024,-4.5647,-4.5634,-4.5191,-4.4907,-4.4733,-4.4385,-4.4211,-4.4243,-4.4204,-4.4346,-4.461,-4.4441,-4.3858,-4.2935,-4.2136,-4.1569,-4.0966,-4.0839,-4.0754,-4.0662,-4.0693,-4.0589,-4.05,-4.0414,-4.0394,-4.0233,-4.0223,-4.0182,-4.0152,-4.0046,-3.9935,-4.0031,-3.9833,-3.9787,-3.9811,-3.9535,-3.9265,-3.9177,-3.9054,-3.9062,-3.9226,-3.9644,-3.9681,-3.9347,-3.9015,-3.9015,-3.8913,-3.845,-3.8194,-3.8237,-3.8574,-3.8769,-3.8505,-3.8228,-3.7936,-3.7631,-3.7151,-3.6904,-3.7309,-3.7499,-3.7336,-3.7201,-3.6862,-3.6726,-3.689,-3.6917,-3.6768,-3.6687,-3.67,-3.6334,-3.5981,-3.5724,-3.5615,-3.5438,-3.5343,-3.5263,-3.5317,-3.5507,-3.5683,-3.5696,-3.571,-3.571,-3.571,-3.571,-3.571,-4.7373,-4.6596,-4.5963,-4.5664,-4.5568,-4.5196,-4.5031,-4.4949,-4.4868,-4.5326,-4.6029,-4.6191,-4.6712,-4.7634,-4.7963,-4.7982,-4.782,-4.7654,-4.747,-4.7217,-4.703,-4.6842,-4.6687,-4.6563,-4.6439,-4.6223,-4.6187,-4.6096,-4.5916,-4.5844,-4.5844,-4.5776,-4.5649,-4.5555,-4.5523,-4.5491,-4.5218,-4.5104,-4.5063,-4.5148,-4.5096,-4.4652,-4.3776,-4.2533,-4.167,-4.1048,-4.0732,-4.062,-4.0801,-4.134,-4.1401,-4.1249,-4.1051,-4.0965,-4.0929,-4.0761,-4.0582,-4.0414,-4.0362,-4.009,-4.0037,-4.0115,-4.0022,-4.0049,-4.0127,-3.9745,-3.9418,-3.9382,-3.9333,-3.9321,-3.9553,-4.0129,-3.9868,-3.96,-3.946,-3.9324,-3.8913,-3.877,-3.8907,-3.9049,-3.9269,-3.9355,-3.8977,-3.8641,-3.8335,-3.8126,-3.7779,-3.7557,-3.7756,-3.7797,-3.7648,-3.7526,-3.739,-3.7336,-3.7363,-3.7377,-3.7323,-3.7256,-3.7134,-3.6741,-3.6361,-3.5954,-3.5696,-3.5533,-3.5506,-3.556,-3.5615,-3.5655,-3.5669,-3.571,-3.571,-3.571,-3.571,-3.571,-3.571,-4.7156,-4.6296,-4.5974,-4.5635,-4.5308,-4.4935,-4.4804,-4.4804,-4.482,-4.5358,-4.6012,-4.6255,-4.6693,-4.7416,-4.782,-4.786,-4.7901,-4.7671,-4.7521,-4.7335,-4.6961,-4.6687,-4.6547,-4.6439,-4.6294,-4.6096,-4.6004,-4.5932,-4.5807,-4.5807,-4.5807,-4.5807,-4.5807,-4.5807,-4.5807,-4.5776,-4.5735,-4.5662,-4.5552,-4.5478,-4.5416,-4.4757,-4.3725,-4.2692,-4.1988,-4.1503,-4.1109,-4.1078,-4.1232,-4.1432,-4.1197,-4.1023,-4.0999,-4.1061,-4.0934,-4.0578,-4.044,-4.0368,-4.045,-4.0324,-4.0557,-4.0349,-4.0385,-4.0313,-4.0175,-3.9826,-3.9634,-3.9775,-4.0489,-4.0569,-4.0598,-4.1164,-4.127,-4.068,-4.0332,-3.9795,-3.9276,-3.9159,-3.9337,-3.9518,-3.9208,-3.9186,-3.9437,-3.9086,-3.8736,-3.8553,-3.8369,-3.8308,-3.8274,-3.8231,-3.8149,-3.8109,-3.8027,-3.7878,-3.7865,-3.7838,-3.7919,-3.7838,-3.7636,-3.7243,-3.6822,-3.6429,-3.6022,-3.571,-3.5723,-3.5818,-3.571,-3.5683,-3.5696,-3.571,-3.571,-3.571,-3.571,-3.571,-3.571,-4.7118,-4.6096,-4.6076,-4.5734,-4.5212,-4.4903,-4.4804,-4.4804,-4.4804,-4.5195,-4.5832,-4.5812,-4.6165,-4.695,-4.7552,-4.7933,-4.8081,-4.777,-4.7554,-4.7183,-4.6842,-4.6582,-4.6404,-4.6243,-4.6076,-4.5988,-4.588,-4.5807,-4.5807,-4.5807,-4.5807,-4.5807,-4.5807,-4.5807,-4.5807,-4.5807,-4.5698,-4.5589,-4.5478,-4.5442,-4.5232,-4.4627,-4.3925,-4.3144,-4.2901,-4.2371,-4.1848,-4.1801,-4.1801,-4.174,-4.1417,-4.0951,-4.0843,-4.1056,-4.0812,-4.0061,-4.0082,-4.0203,-4.0491,-4.0741,-4.0908,-4.0719,-4.0938,-4.0633,-4.04,-4.0288,-4.0304,-4.0492,-4.1201,-4.1758,-4.1603,-4.2408,-4.2464,-4.1841,-4.1083,-4.0551,-4.0106,-3.9841,-3.9586,-3.9498,-3.9057,-3.9086,-3.9438,-3.9116,-3.8726,-3.8996,-3.8837,-3.8774,-3.8765,-3.8939,-3.8925,-3.8884,-3.8762,-3.8518,-3.841,-3.8328,-3.845,-3.8545,-3.8233,-3.7853,-3.7406,-3.6958,-3.6578,-3.6239,-3.6022,-3.6076,-3.59,-3.5723,-3.571,-3.571,-3.571,-3.571,-3.571,-3.571,-3.571,-4.6383,-4.5371,-4.5098,-4.4918,-4.4805,-4.4739,-4.4755,-4.4755,-4.4739,-4.5017,-4.544,-4.5437,-4.6019,-4.7028,-4.7885,-4.806,-4.7918,-4.7671,-4.7404,-4.7014,-4.6687,-4.6423,-4.6223,-4.6148,-4.6004,-4.588,-4.5807,-4.5807,-4.5807,-4.5807,-4.5807,-4.5807,-4.5807,-4.5807,-4.5807,-4.5807,-4.5771,-4.5698,-4.5405,-4.5167,-4.4909,-4.4217,-4.3876,-4.3546,-4.3117,-4.2653,-4.2448,-4.2371,-4.2325,-4.2463,-4.2371,-4.2017,-4.1632,-4.1474,-4.106,-4.0639,-4.0649,-4.1046,-4.117,-4.131,-4.1189,-4.1051,-4.1133,-4.0867,-4.0891,-4.1005,-4.1128,-4.1194,-4.1912,-4.2288,-4.2291,-4.2554,-4.2428,-4.2281,-4.1934,-4.155,-4.1189,-4.0499,-4.0226,-3.975,-3.9424,-3.9448,-3.962,-3.9117,-3.8755,-3.9083,-3.9335,-3.9199,-3.9176,-3.9282,-3.9305,-3.9197,-3.9088,-3.8871,-3.886,-3.8793,-3.8847,-3.9064,-3.8776,-3.841,-3.7962,-3.7541,-3.7406,-3.7052,-3.6727,-3.6266,-3.6035,-3.5873,-3.5764,-3.571,-3.571,-3.571,-3.571,-3.571,-3.571,-4.5862,-4.4654,-4.4302,-4.3945,-4.3589,-4.3541,-4.3816,-4.4123,-4.4188,-4.4545,-4.5064,-4.5039,-4.5723,-4.6854,-4.7237,-4.7682,-4.8029,-4.7704,-4.7471,-4.7082,-4.6719,-4.6349,-4.6314,-4.6096,-4.5859,-4.5844,-4.5807,-4.5807,-4.5807,-4.5807,-4.5807,-4.5807,-4.5807,-4.5807,-4.5807,-4.5807,-4.5735,-4.5589,-4.5331,-4.5055,-4.4774,-4.4467,-4.4143,-4.375,-4.3353,-4.3193,-4.2956,-4.2325,-4.254,-4.2725,-4.2571,-4.194,-4.1786,-4.1878,-4.1827,-4.1172,-4.1209,-4.1117,-4.087,-4.1583,-4.1608,-4.1444,-4.16,-4.2184,-4.1989,-4.1887,-4.1908,-4.2011,-4.2646,-4.2968,-4.3122,-4.3473,-4.3589,-4.3409,-4.281,-4.244,-4.2038,-4.1381,-4.0844,-4.0334,-3.9847,-3.98,-3.9761,-3.9452,-3.9032,-3.9009,-3.9305,-3.9366,-3.9258,-3.9264,-3.9305,-3.9292,-3.9241,-3.9132,-3.919,-3.9234,-3.9193,-3.9329,-3.9183,-3.8817,-3.845,-3.8095,-3.796,-3.7499,-3.6931,-3.6524,-3.6239,-3.594,-3.5737,-3.571,-3.571,-3.5669,-3.5669,-3.5669,-3.5669,-4.5113,-4.4069,-4.3799,-4.3281,-4.2619,-4.2602,-4.2926,-4.3379,-4.3654,-4.3994,-4.4478,-4.4838,-4.5687,-4.6615,-4.6996,-4.7759,-4.8515,-4.7671,-4.7471,-4.7201,-4.6735,-4.6294,-4.6171,-4.5952,-4.5823,-4.5807,-4.5807,-4.5807,-4.5807,-4.5807,-4.5807,-4.5807,-4.5807,-4.5807,-4.5807,-4.5787,-4.5698,-4.5405,-4.5294,-4.5017,-4.4723,-4.4708,-4.4291,-4.3861,-4.3593,-4.3547,-4.3223,-4.254,-4.2571,-4.2786,-4.2479,-4.2017,-4.2001,-4.2263,-4.2309,-4.195,-4.2058,-4.1791,-4.1559,-4.1754,-4.1893,-4.1689,-4.1754,-4.2346,-4.2517,-4.2481,-4.2671,-4.2796,-4.3448,-4.3741,-4.3947,-4.4264,-4.431,-4.4082,-4.3686,-4.3281,-4.276,-4.1996,-4.1372,-4.0845,-4.039,-3.9957,-3.9885,-3.9744,-3.946,-3.9129,-3.9161,-3.9376,-3.9397,-3.9363,-3.9349,-3.9349,-3.9278,-3.9299,-3.9428,-3.9513,-3.954,-3.954,-3.9452,-3.9254,-3.883,-3.8681,-3.8572,-3.7975,-3.7297,-3.7189,-3.7148,-3.6415,-3.571,-3.571,-3.571,-3.5629,-3.5629,-3.5629,-3.5629,-4.4008,-4.3735,-4.3702,-4.325,-4.2602,-4.2602,-4.2635,-4.2829,-4.3395,-4.3378,-4.3374,-4.4692,-4.5813,-4.6541,-4.7522,-4.81,-4.8227,-4.7638,-4.7252,-4.6823,-4.6314,-4.6096,-4.6044,-4.5972,-4.5807,-4.5807,-4.5807,-4.5807,-4.5807,-4.5807,-4.5807,-4.5807,-4.5807,-4.5807,-4.5787,-4.575,-4.5604,-4.5331,-4.5182,-4.498,-4.4685,-4.4586,-4.4302,-4.3824,-4.3593,-4.331,-4.2756,-4.2556,-4.2586,-4.2894,-4.2694,-4.2417,-4.2432,-4.2756,-4.2786,-4.2679,-4.2894,-4.2646,-4.2444,-4.2303,-4.1925,-4.1456,-4.1574,-4.2316,-4.2763,-4.3242,-4.3448,-4.3578,-4.4055,-4.4348,-4.4418,-4.4556,-4.4594,-4.4434,-4.4044,-4.3652,-4.3079,-4.2434,-4.1814,-4.135,-4.0873,-4.0435,-4.0121,-3.9994,-3.9808,-3.9475,-3.9251,-3.9453,-3.9486,-3.9465,-3.9407,-3.9394,-3.9305,-3.938,-3.9584,-3.9642,-3.9628,-3.9642,-3.9598,-3.9452,-3.9241,-3.9159,-3.8966,-3.8681,-3.8111,-3.8084,-3.7799,-3.6795,-3.6049,-3.5805,-3.5669,-3.5629,-3.5548,-3.5521,-3.548,-4.3619,-4.3023,-4.3007,-4.2845,-4.2602,-4.2602,-4.2602,-4.2651,-4.2894,-4.3114,-4.3164,-4.4655,-4.5674,-4.64,-4.6932,-4.7699,-4.7836,-4.6996,-4.6961,-4.6858,-4.649,-4.6223,-4.6152,-4.6008,-4.5807,-4.5807,-4.5807,-4.5807,-4.5807,-4.5807,-4.5807,-4.5807,-4.5771,-4.5807,-4.5787,-4.5677,-4.5442,-4.5257,-4.5055,-4.4852,-4.4685,-4.461,-4.4486,-4.4271,-4.3716,-4.3793,-4.3694,-4.2971,-4.2956,-4.3063,-4.3171,-4.3002,-4.294,-4.3371,-4.3479,-4.3264,-4.3562,-4.3396,-4.3245,-4.3293,-4.3327,-4.3235,-4.3166,-4.3225,-4.3468,-4.3996,-4.4194,-4.4332,-4.4409,-4.4594,-4.4572,-4.4572,-4.4572,-4.4511,-4.4243,-4.384,-4.3354,-4.2699,-4.2196,-4.1728,-4.1226,-4.0731,-4.0503,-4.0272,-4.0112,-3.9895,-3.9642,-3.9516,-3.9563,-3.9554,-3.9496,-3.9438,-3.9349,-3.9526,-3.976,-3.9716,-3.9672,-3.973,-3.9774,-3.9642,-3.9496,-3.9336,-3.9142,-3.8966,-3.8667,-3.8233,-3.765,-3.6877,-3.6361,-3.6049,-3.5805,-3.5629,-3.5521,-3.5399,-3.5318,-4.3324,-4.2713,-4.265,-4.2602,-4.2602,-4.2602,-4.2602,-4.2602,-4.2665,-4.2976,-4.3545,-4.468,-4.5607,-4.6241,-4.6969,-4.7389,-4.7671,-4.7098,-4.6996,-4.6754,-4.6455,-4.6207,-4.6243,-4.6152,-4.5807,-4.5807,-4.5807,-4.5807,-4.5807,-4.5807,-4.5807,-4.5771,-4.5735,-4.5698,-4.5677,-4.5531,-4.5315,-4.5129,-4.4964,-4.4799,-4.461,-4.461,-4.4409,-4.4271,-4.3778,-4.3578,-4.3525,-4.3002,-4.2987,-4.3331,-4.3531,-4.347,-4.3602,-4.3879,-4.424,-4.4086,-4.3901,-4.3886,-4.3919,-4.369,-4.4006,-4.3915,-4.3906,-4.4067,-4.4434,-4.4549,-4.4479,-4.4434,-4.4518,-4.4572,-4.4549,-4.4534,-4.4572,-4.4496,-4.4073,-4.3684,-4.3394,-4.286,-4.2496,-4.2032,-4.1534,-4.1029,-4.0816,-4.0573,-4.0184,-4.0023,-3.9867,-3.9697,-3.9618,-3.9612,-3.9554,-3.9496,-3.9394,-3.9659,-3.9922,-3.9834,-3.9834,-3.9993,-3.9993,-3.9774,-3.9628,-3.9482,-3.9322,-3.9115,-3.8735,-3.8149,-3.7512,-3.689,-3.6524,-3.6252,-3.5913,-3.5548,-3.548,-3.5318,-3.5249,-4.307,-4.2868,-4.2696,-4.2602,-4.2602,-4.2602,-4.2602,-4.2696,-4.2883,-4.3207,-4.3764,-4.5081,-4.5898,-4.6469,-4.7268,-4.7753,-4.7688,-4.7082,-4.6823,-4.6633,-4.6207,-4.59,-4.5916,-4.588,-4.5787,-4.5823,-4.5807,-4.5807,-4.5771,-4.5735,-4.5771,-4.5698,-4.5589,-4.5478,-4.5494,-4.5294,-4.5092,-4.4964,-4.4911,-4.4761,-4.4648,-4.461,-4.4348,-4.4055,-4.387,-4.3716,-4.3387,-4.3233,-4.3264,-4.3516,-4.3747,-4.3855,-4.4163,-4.4363,-4.4533,-4.4486,-4.4486,-4.4517,-4.4464,-4.3387,-4.3536,-4.4159,-4.4113,-4.4043,-4.4274,-4.4419,-4.4511,-4.4396,-4.4435,-4.4458,-4.4458,-4.4458,-4.4534,-4.4458,-4.402,-4.3723,-4.3472,-4.3275,-4.2915,-4.2618,-4.1935,-4.131,-4.11,-4.0844,-4.0357,-4.014,-4.0053,-3.9892,-3.9744,-3.9656,-3.9612,-3.9452,-3.9394,-3.9584,-3.9791,-3.9908,-4.0009,-4.0198,-4.0168,-3.9862,-3.9686,-3.9554,-3.9411,-3.9254,-3.8857,-3.8355,-3.7663,-3.6958,-3.6483,-3.6022,-3.5737,-3.548,-3.5358,-3.5277,-3.5249,-4.3129,-4.2899,-4.2837,-4.2696,-4.2602,-4.2602,-4.2711,-4.299,-4.3325,-4.3595,-4.4029,-4.541,-4.6091,-4.6448,-4.6995,-4.7505,-4.7218,-4.658,-4.6243,-4.6442,-4.5992,-4.6028,-4.5992,-4.5864,-4.575,-4.5677,-4.5698,-4.5698,-4.5589,-4.5589,-4.5625,-4.5552,-4.5315,-4.5204,-4.5204,-4.5129,-4.4949,-4.4874,-4.4799,-4.4648,-4.461,-4.461,-4.4502,-4.4225,-4.4225,-4.4071,-4.3802,-4.3741,-4.3793,-4.3778,-4.3932,-4.4194,-4.424,-4.4317,-4.461,-4.461,-4.461,-4.461,-4.4579,-4.4125,-4.4065,-4.422,-4.4251,-4.4143,-4.4189,-4.4281,-4.432,-4.4335,-4.4335,-4.4374,-4.4473,-4.4396,-4.4435,-4.4534,-4.4266,-4.4035,-4.384,-4.3738,-4.3488,-4.3235,-4.2725,-4.1769,-4.1254,-4.0787,-4.0328,-4.0053,-3.9922,-3.9848,-3.9744,-3.97,-3.9598,-3.9452,-3.9394,-3.954,-3.9716,-3.9834,-3.9952,-4.011,-3.9993,-3.9788,-3.9656,-3.9598,-3.9452,-3.9264,-3.8912,-3.8518,-3.7528,-3.6646,-3.6117,-3.5683,-3.5588,-3.5521,-3.544,-3.5358,-3.5277,-4.3281,-4.3084,-4.2976,-4.2945,-4.2883,-4.2805,-4.299,-4.3339,-4.3684,-4.3964,-4.4523,-4.5664,-4.6243,-4.6444,-4.6963,-4.7134,-4.6892,-4.6474,-4.61,-4.6266,-4.5972,-4.5936,-4.5956,-4.592,-4.5771,-4.5677,-4.5625,-4.5625,-4.5515,-4.5457,-4.5368,-4.5241,-4.5024,-4.4964,-4.4927,-4.4852,-4.4799,-4.4761,-4.4685,-4.461,-4.461,-4.461,-4.461,-4.4564,-4.4564,-4.4548,-4.4579,-4.4533,-4.4425,-4.4194,-4.4225,-4.4372,-4.4225,-4.4286,-4.461,-4.461,-4.461,-4.461,-4.4579,-4.4564,-4.4388,-4.4289,-4.4435,-4.4442,-4.4287,-4.4372,-4.4526,-4.4526,-4.4311,-4.4366,-4.4465,-4.4404,-4.4557,-4.4672,-4.4481,-4.4303,-4.4433,-4.4332,-4.3895,-4.3645,-4.322,-4.2304,-4.124,-4.0716,-4.0198,-3.9966,-3.9791,-3.9774,-3.97,-3.9598,-3.9554,-3.9452,-3.9394,-3.954,-3.973,-3.9804,-3.9922,-4.0009,-3.9892,-3.97,-3.97,-3.9642,-3.9452,-3.9214,-3.86,-3.7892,-3.7011,-3.6293,-3.59,-3.571,-3.5669,-3.5588,-3.5521,-3.544,-3.5358,-4.3402,-4.3372,-4.3204,-4.3204,-4.3325,-4.3235,-4.3399,-4.3802,-4.3831,-4.4332,-4.5169,-4.5651,-4.6034,-4.6597,-4.7423,-4.7357,-4.688,-4.6708,-4.6493,-4.6246,-4.59,-4.5864,-4.5844,-4.5807,-4.5735,-4.5698,-4.5625,-4.5499,-4.5463,-4.5294,-4.5092,-4.4949,-4.4874,-4.4814,-4.4701,-4.4648,-4.4648,-4.4648,-4.4648,-4.461,-4.461,-4.461,-4.461,-4.461,-4.461,-4.461,-4.461,-4.4579,-4.4564,-4.4533,-4.4564,-4.4594,-4.4579,-4.4594,-4.461,-4.461,-4.461,-4.461,-4.4572,-4.4572,-4.4419,-4.4281,-4.4243,-4.4493,-4.456,-4.4386,-4.4487,-4.4587,-4.4487,-4.4473,-4.4504,-4.4719,-4.4934,-4.4803,-4.4633,-4.4725,-4.5002,-4.4764,-4.4234,-4.384,-4.3472,-4.2603,-4.1254,-4.0516,-4.0198,-3.9906,-3.9716,-3.9628,-3.9554,-3.9452,-3.9394,-3.9407,-3.9407,-3.9598,-3.9686,-3.9716,-3.9703,-3.9747,-3.9791,-3.9716,-3.9686,-3.9598,-3.9452,-3.9051,-3.8179,-3.7431,-3.6943,-3.6402,-3.5818,-3.571,-3.571,-3.5669,-3.5588,-3.5521,-3.548,-4.3509,-4.3372,-4.3174,-4.3248,-4.3549,-4.3814,-4.3977,-4.4023,-4.4241,-4.4597,-4.48,-4.5232,-4.556,-4.5696,-4.6401,-4.6453,-4.636,-4.6309,-4.6198,-4.5992,-4.5864,-4.5807,-4.5807,-4.5771,-4.5698,-4.5589,-4.5499,-4.5389,-4.5241,-4.5092,-4.4889,-4.4723,-4.4723,-4.4648,-4.461,-4.461,-4.461,-4.461,-4.461,-4.461,-4.461,-4.461,-4.461,-4.461,-4.461,-4.461,-4.461,-4.461,-4.461,-4.461,-4.461,-4.461,-4.461,-4.461,-4.461,-4.461,-4.461,-4.4572,-4.4572,-4.4458,-4.432,-4.4181,-4.4026,-4.3916,-4.4037,-4.4248,-4.4342,-4.4572,-4.4557,-4.4473,-4.4718,-4.5033,-4.5272,-4.5302,-4.5086,-4.4941,-4.5133,-4.4849,-4.4327,-4.3903,-4.3536,-4.2441,-4.1128,-4.0602,-4.027,-3.9862,-3.9656,-3.9554,-3.9452,-3.9349,-3.9305,-3.9305,-3.9363,-3.9496,-3.9452,-3.9452,-3.9482,-3.9469,-3.9571,-3.9615,-3.9496,-3.9452,-3.9407,-3.8969,-3.822,-3.7675,-3.7268,-3.6659,-3.5927,-3.5737,-3.571,-3.571,-3.5669,-3.5588,-3.5548,-4.3568,-4.3479,-4.3372,-4.3505,-4.3902,-4.4236,-4.4384,-4.4412,-4.4542,-4.4677,-4.4843,-4.5094,-4.522,-4.5384,-4.5961,-4.6108,-4.5633,-4.6121,-4.614,-4.59,-4.5807,-4.5807,-4.5807,-4.5698,-4.5625,-4.5499,-4.5315,-4.5167,-4.5039,-4.4889,-4.4685,-4.461,-4.461,-4.461,-4.461,-4.461,-4.461,-4.461,-4.461,-4.461,-4.461,-4.461,-4.461,-4.461,-4.461,-4.461,-4.461,-4.461,-4.461,-4.461,-4.461,-4.461,-4.461,-4.461,-4.461,-4.461,-4.461,-4.461,-4.4572,-4.4511,-4.4358,-4.4258,-4.4104,-4.408,-4.4003,-4.4134,-4.4433,-4.4694,-4.4565,-4.4503,-4.4956,-4.5356,-4.5656,-4.5942,-4.5541,-4.5141,-4.4979,-4.4779,-4.435,-4.3942,-4.3111,-4.2114,-4.1296,-4.0759,-4.0314,-3.9906,-3.9656,-3.9554,-3.9452,-3.9349,-3.9305,-3.9305,-3.9305,-3.9363,-3.9305,-3.9305,-3.9349,-3.9394,-3.9394,-3.9394,-3.9305,-3.9264,-3.9224,-3.8857,-3.8355,-3.784,-3.7284,-3.6727,-3.613,-3.5913,-3.571,-3.571,-3.571,-3.5669,-3.5669,-4.3549,-4.3482,-4.3558,-4.3823,-4.4293,-4.4525,-4.4637,-4.4748,-4.4598,-4.4754,-4.5027,-4.5055,-4.5023,-4.5096,-4.57,-4.5682,-4.5602,-4.5907,-4.6104,-4.5807,-4.5735,-4.5735,-4.5662,-4.5589,-4.5478,-4.5315,-4.5151,-4.4964,-4.4852,-4.4723,-4.4648,-4.461,-4.461,-4.461,-4.461,-4.461,-4.461,-4.461,-4.461,-4.461,-4.461,-4.461,-4.461,-4.461,-4.461,-4.461,-4.461,-4.461,-4.461,-4.461,-4.461,-4.461,-4.4534,-4.4572,-4.4572,-4.4534,-4.4496,-4.4534,-4.4496,-4.4435,-4.4511,-4.4473,-4.4534,-4.4358,-4.4205,-4.4205,-4.4519,-4.468,-4.458,-4.4764,-4.5148,-4.5279,-4.5503,-4.5672,-4.5503,-4.5187,-4.4926,-4.4573,-4.405,-4.3521,-4.275,-4.1757,-4.1029,-4.0443,-4.0227,-3.9862,-3.9656,-3.9598,-3.9452,-3.9319,-3.9305,-3.9305,-3.9305,-3.9305,-3.9305,-3.9305,-3.9305,-3.9305,-3.9305,-3.9305,-3.9305,-3.9224,-3.9115,-3.8776,-3.841,-3.7731,-3.7148,-3.6592,-3.613,-3.5859,-3.571,-3.571,-3.5723,-3.5764,-3.571,-4.3267,-4.2829,-4.3141,-4.3726,-4.4429,-4.4648,-4.4692,-4.4575,-4.4423,-4.4428,-4.4476,-4.4328,-4.4284,-4.4539,-4.529,-4.5358,-4.5269,-4.5789,-4.6024,-4.5828,-4.5662,-4.5625,-4.5515,-4.5405,-4.5294,-4.522,-4.5002,-4.4799,-4.4723,-4.461,-4.461,-4.461,-4.461,-4.461,-4.461,-4.461,-4.461,-4.461,-4.461,-4.461,-4.461,-4.461,-4.461,-4.461,-4.461,-4.461,-4.461,-4.461,-4.461,-4.461,-4.461,-4.4496,-4.4396,-4.4511,-4.4435,-4.4243,-4.4335,-4.4389,-4.4488,-4.4481,-4.4442,-4.4396,-4.4381,-4.4312,-4.4281,-4.4396,-4.4465,-4.4573,-4.4749,-4.4995,-4.5194,-4.5249,-4.5357,-4.5426,-4.5418,-4.5149,-4.4895,-4.4388,-4.3778,-4.3046,-4.2278,-4.1577,-4.0858,-4.0328,-4.0097,-3.9892,-3.9744,-3.9612,-3.9452,-3.9305,-3.9305,-3.9305,-3.9305,-3.9305,-3.9305,-3.9305,-3.9305,-3.9305,-3.9305,-3.9305,-3.9305,-3.9264,-3.9169,-3.8857,-3.845,-3.7935,-3.7311,-3.6456,-3.6049,-3.6022,-3.6008,-3.613,-3.5967,-3.594,-3.5818,-4.273,-4.2259,-4.302,-4.3826,-4.4462,-4.4703,-4.4676,-4.4474,-4.431,-4.4184,-4.4193,-4.424,-4.4288,-4.437,-4.5143,-4.5424,-4.5269,-4.5786,-4.5917,-4.5771,-4.5589,-4.5552,-4.5405,-4.5204,-4.5129,-4.5017,-4.4852,-4.4685,-4.461,-4.461,-4.461,-4.461,-4.461,-4.461,-4.461,-4.461,-4.461,-4.461,-4.461,-4.461,-4.461,-4.461,-4.461,-4.461,-4.461,-4.461,-4.461,-4.461,-4.461,-4.461,-4.461,-4.4458,-4.4396,-4.4396,-4.4358,-4.422,-4.425,-4.438,-4.4572,-4.4648,-4.4555,-4.4618,-4.4772,-4.491,-4.445,-4.4496,-4.4435,-4.4511,-4.4588,-4.4826,-4.5033,-4.5164,-4.5303,-4.5395,-4.5133,-4.4849,-4.4872,-4.4733,-4.3959,-4.3021,-4.2421,-4.1934,-4.1141,-4.027,-4.0009,-3.9818,-3.97,-3.9598,-3.9407,-3.9305,-3.9305,-3.9359,-3.9386,-3.9346,-3.9305,-3.9305,-3.9305,-3.9305,-3.9305,-3.9305,-3.9305,-3.9305,-3.9224,-3.8993,-3.8762,-3.8464,-3.7745,-3.6958,-3.6741,-3.6849,-3.6754,-3.6646,-3.6429,-3.6239,-3.6198,-4.2119,-4.1888,-4.2963,-4.3837,-4.4461,-4.4714,-4.4676,-4.4463,-4.4212,-4.3969,-4.3876,-4.4447,-4.4699,-4.492,-4.544,-4.5632,-4.5745,-4.5817,-4.5801,-4.5698,-4.5515,-4.5389,-4.5241,-4.5039,-4.4927,-4.4814,-4.4739,-4.4648,-4.461,-4.461,-4.461,-4.461,-4.461,-4.461,-4.461,-4.461,-4.461,-4.461,-4.461,-4.461,-4.461,-4.461,-4.461,-4.461,-4.461,-4.4572,-4.4572,-4.4572,-4.4572,-4.4572,-4.4534,-4.4435,-4.4358,-4.432,-4.4281,-4.4205,-4.4127,-4.4526,-4.4933,-4.4955,-4.5071,-4.5225,-4.5426,-4.5234,-4.471,-4.4549,-4.4473,-4.4473,-4.4549,-4.4641,-4.4849,-4.5002,-4.518,-4.5156,-4.4803,-4.4519,-4.4688,-4.4762,-4.3916,-4.297,-4.2456,-4.2035,-4.1212,-4.0342,-3.9993,-3.9802,-3.9639,-3.951,-3.9394,-3.9349,-3.9305,-3.9441,-3.9549,-3.9481,-3.9359,-3.9359,-3.9373,-3.9305,-3.9305,-3.9305,-3.9305,-3.9305,-3.9292,-3.9251,-3.9007,-3.8627,-3.8383,-3.7756,-3.7662,-3.7485,-3.7241,-3.7025,-3.7011,-3.6848,-3.6768,-4.1721,-4.2196,-4.2572,-4.3267,-4.415,-4.463,-4.462,-4.4338,-4.4184,-4.3789,-4.3567,-4.3988,-4.4304,-4.4324,-4.5374,-4.5641,-4.5317,-4.5477,-4.5604,-4.5552,-4.5336,-4.5188,-4.5039,-4.4889,-4.4685,-4.4648,-4.4648,-4.461,-4.461,-4.461,-4.461,-4.461,-4.461,-4.461,-4.4641,-4.4603,-4.4618,-4.4649,-4.4564,-4.4534,-4.4572,-4.4572,-4.461,-4.461,-4.461,-4.4496,-4.4435,-4.4534,-4.4458,-4.4458,-4.4473,-4.4396,-4.432,-4.432,-4.432,-4.4205,-4.4127,-4.4411,-4.4772,-4.4863,-4.4948,-4.4926,-4.5003,-4.4918,-4.4595,-4.4549,-4.4473,-4.4435,-4.4473,-4.4473,-4.4634,-4.4657,-4.478,-4.4526,-4.4212,-4.4119,-4.4109,-4.4019,-4.3603,-4.2762,-4.2109,-4.1525,-4.0756,-4.0152,-3.9884,-3.9762,-3.9741,-3.9594,-3.9689,-3.9522,-3.9414,-3.959,-3.9807,-3.9563,-3.9441,-3.9454,-3.9454,-3.9373,-3.9305,-3.9305,-3.9305,-3.9305,-3.9292,-3.9278,-3.8993,-3.86,-3.8369,-3.841,-3.8027,-3.777,-3.7567,-3.7418,-3.7499,-3.7472,-3.7392]},{"header":{"parameterUnit":"m.s-1","parameterCategory":1,"la1":31.0,"la2":29.5877,"lo1":-88.7671,"lo2":-86.6584,"dy":0.0162,"dx":0.0185,"nx":115,"ny":88,"refTime":"2023-02-27T18:00:00:Z","depth":0,"parameterNumber":3,"parameterNumberName":"V-component_of_WINDS"},"data":[0.0,0.0,0.0,0.0,0.0,0.0,0.0,0.0,0.0,0.0,0.0,0.0,0.0,0.0,0.0,0.0,0.0,0.0,0.0,0.0,0.0,0.0,0.0,0.0,0.0,0.0,0.0,0.0,0.0,0.0,0.0,0.0,0.0,0.0,0.0,0.0,0.0,0.0,0.0,0.0,0.0,0.0,0.0,0.0,0.0,0.0,0.0,0.0,0.0,0.0,0.0,0.0,0.0,0.0,0.0,0.0,0.0,0.0,0.0,0.0,0.0,0.0,0.0,0.0,0.0,0.0,0.0,0.0,0.0,0.0,0.0,0.0,0.0,0.0,0.0,0.0,0.0,0.0,0.0,0.0,0.0,0.0,0.0,0.0,0.0,0.0,0.0,0.0,0.0,0.0,0.0,0.0,0.0,0.0,0.0,0.0,0.0,0.0,0.0,0.0,0.0,0.0,0.0,0.0,0.0,0.0,0.0,0.0,0.0,0.0,0.0,0.0,0.0,0.0,0.0,0.0,0.0,0.0,0.0,0.0,0.0,0.0,0.0,0.0,0.0,0.0,0.0,0.0,0.0,0.0,0.0,0.0,0.0,0.0,0.0,0.0,0.0,0.0,0.0,0.0,0.0,0.0,0.0,0.0,0.0,0.0,0.0,0.0,0.0,0.0,0.0,0.0,0.0,0.0,0.0,0.0,0.0,0.0,0.0,0.0,0.0,0.0,0.0,0.0,0.0,0.0,0.0,0.0,0.0,0.0,0.0,0.0,0.0,0.0,0.0,0.0,0.0,0.0,0.0,0.0,0.0,0.0,0.0,0.0,0.0,0.0,0.0,0.0,0.0,0.0,0.0,0.0,0.0,0.0,0.0,0.0,0.0,0.0,0.0,0.0,0.0,0.0,0.0,0.0,0.0,0.0,0.0,0.0,0.0,0.0,0.0,0.0,0.0,0.0,0.0,0.0,0.0,0.0,0.0,0.0,0.0,0.0,0.0,0.0,0.0,0.0,0.0,0.0,0.0,0.0,0.0,0.0,0.0,0.0,0.0,0.0,0.0,0.0,0.0,0.0,0.0,0.0,0.0,0.0,0.0,0.0,0.0,0.0,0.0,0.0,0.0,0.0,0.0,0.0,0.0,0.0,0.0,0.0,0.0,0.0,0.0,0.0,0.0,0.0,0.0,0.0,0.0,0.0,0.0,0.0,0.0,0.0,0.0,0.0,0.0,0.0,0.0,0.0,0.0,0.0,0.0,0.0,0.0,0.0,0.0,0.0,0.0,0.0,0.0,0.0,0.0,0.0,0.0,0.0,0.0,0.0,0.0,0.0,0.0,0.0,0.0,0.0,0.0,0.0,0.0,0.0,0.0,0.0,0.0,0.0,0.0,0.0,0.0,0.0,0.0,0.0,0.0,0.0,0.0,0.0,0.0,0.0,0.0,0.0,0.0,0.0,0.0,0.0,0.0,0.0,0.0,0.0,0.0,0.0,0.0,0.0,0.0,0.0,0.0,0.0,0.0,0.0,0.0,0.0,0.0,0.0,0.0,0.0,0.0,0.0,0.0,0.0,0.0,0.0,0.0,0.0,0.0,0.0,0.0,0.0,0.0,0.0,0.0,0.0,0.0,0.0,0.0,0.0,0.0,0.0,0.0,0.0,0.0,0.0,0.0,0.0,0.0,0.0,0.0,0.0,0.0,0.0,0.0,0.0,0.0,0.0,0.0,0.0,0.0,0.0,0.0,0.0,0.0,0.0,0.0,0.0,0.0,0.0,0.0,0.0,0.0,0.0,0.0,0.0,0.0,0.0,0.0,0.0,0.0,0.0,0.0,0.0,0.0,0.0,0.0,0.0,0.0,0.0,0.0,0.0,0.0,0.0,0.0,0.0,0.0,0.0,0.0,0.0,0.0,0.0,0.0,0.0,0.0,0.0,0.0,0.0,0.0,0.0,0.0,0.0,0.0,0.0,0.0,0.0,0.0,0.0,0.0,0.0,0.0,0.0,0.0,0.0,0.0,0.0,0.0,0.0,0.0,0.0,0.0,0.0,0.0,0.0,0.0,0.0,0.0,0.0,0.0,0.0,0.0,0.0,0.0,0.0,0.0,0.0,0.0,0.0,0.0,0.0,0.0,0.0,0.0,0.0,0.0,0.0,0.0,0.0,0.0,0.0,0.0,0.0,0.0,0.0,0.0,0.0,0.0,0.0,0.0,0.0,0.0,0.0,0.0,0.0,0.0,0.0,0.0,0.0,0.0,0.0,0.0,0.0,0.0,0.0,0.0,0.0,0.0,0.0,0.0,0.0,0.0,0.0,0.0,0.0,0.0,0.0,0.0,0.0,0.0,0.0,0.0,0.0,0.0,0.0,0.0,0.0,0.0,0.0,0.0,0.0,0.0,0.0,0.0,0.0,0.0,0.0,0.0,0.0,0.0,0.0,0.0,0.0,0.0,0.0,0.0,0.0,0.0,0.0,0.0,0.0,0.0,0.0,0.0,0.0,0.0,0.0,0.0,0.0,0.0,0.0,0.0,0.0,0.0,0.0,0.0,0.0,0.0,0.0,0.0,0.0,0.0,0.0,0.0,0.0,0.0,0.0,0.0,0.0,0.0,0.0,0.0,0.0,0.0,0.0,0.0,0.0,0.0,0.0,0.0,0.0,0.0,0.0,0.0,0.0,0.0,0.0,0.0,0.0,0.0,0.0,0.0,0.0,0.0,0.0,0.0,0.0,0.0,0.0,0.0,0.0,0.0,0.0,0.0,0.0,0.0,0.0,0.0,0.0,0.0,0.0,0.0,0.0,0.0,0.0,0.0,0.0,0.0,0.0,0.0,0.0,0.0,0.0,0.0,0.0,0.0,0.0,0.0,0.0,0.0,0.0,0.0,0.0,0.0,0.0,0.0,0.0,0.0,0.0,0.0,0.0,0.0,0.0,0.0,0.0,0.0,0.0,0.0,0.0,0.0,0.0,0.0,0.0,0.0,0.0,0.0,0.0,0.0,0.0,0.0,0.0,0.0,0.0,0.0,0.0,0.0,0.0,0.0,0.0,0.0,0.0,0.0,0.0,0.0,0.0,0.0,0.0,0.0,0.0,0.0,0.0,0.0,0.0,0.0,0.0,0.0,0.0,0.0,0.0,0.0,0.0,0.0,0.0,0.0,0.0,0.0,0.0,0.0,0.0,0.0,0.0,0.0,0.0,0.0,0.0,0.0,0.0,0.0,0.0,0.0,0.0,0.0,0.0,0.0,0.0,0.0,0.0,0.0,0.0,0.0,0.0,0.0,0.0,0.0,0.0,0.0,0.0,0.0,0.0,0.0,0.0,0.0,0.0,0.0,0.0,0.0,0.0,0.0,0.0,0.0,0.0,0.0,0.0,0.0,0.0,0.0,0.0,0.0,0.0,0.0,0.0,0.0,0.0,0.0,0.0,0.0,0.0,0.0,0.0,0.0,0.0,0.0,0.0,0.0,0.0,0.0,0.0,0.0,0.0,0.0,0.0,0.0,0.0,0.0,0.0,0.0,0.0,0.0,0.0,0.0,0.0,0.0,0.0,0.0,0.0,0.0,0.0,0.0,0.0,0.0,0.0,0.0,0.0,0.0,0.0,0.0,0.0,0.0,0.0,0.0,0.0,0.0,0.0,0.0,0.0,0.0,0.0,0.0,0.0,0.0,0.0,0.0,0.0,0.0,0.0,0.0,0.0,0.0,0.0,0.0,0.0,0.0,0.0,0.0,0.0,0.0,0.0,0.0,0.0,0.0,0.0,0.0,0.0,0.0,0.0,0.0,0.0,0.0,0.0,0.0,0.0,0.0,0.0,0.0,0.0,0.0,0.0,0.0,0.0,0.0,0.0,0.0,0.0,0.0,0.0,0.0,0.0,0.0,0.0,0.0,0.0,0.0,0.0,0.0,0.0,0.0,0.0,0.0,0.0,0.0,0.0,0.0,0.0,0.0,0.0,0.0,0.0,0.0,0.0,0.0,0.0,0.0,0.0,0.0,0.0,0.0,0.0,0.0,0.0,0.0,0.0,0.0,0.0,0.0,0.0,0.0,0.0,0.0,0.0,0.0,0.0,0.0,0.0,0.0,0.0,0.0,0.0,0.0,0.0,0.0,0.0,0.0,0.0,0.0,0.0,0.0,0.0,0.0,0.0,0.0,0.0,0.0,0.0,0.0,0.0,0.0,0.0,0.0,0.0,0.0,0.0,0.0,0.0,0.0,0.0,0.0,0.0,0.0,0.0,0.0,0.0,0.0,0.0,0.0,0.0,0.0,0.0,0.0,0.0,-1.0081,0.0,0.0,0.0,0.0,0.0,0.0,0.0,0.0,0.0,0.0,0.0,0.0,0.0,0.0,0.0,0.0,0.0,0.0,0.0,0.0,0.0,0.0,0.0,0.0,0.0,0.0,0.0,0.0,0.0,0.0,0.0,0.0,0.0,0.0,0.0,0.0,0.0,0.0,0.0,0.0,0.0,0.0,0.0,0.0,0.0,0.0,0.0,0.0,0.0,0.0,0.0,0.0,0.0,0.0,0.0,0.0,0.0,0.0,0.0,0.0,0.0,0.0,0.0,0.0,0.0,0.0,0.0,0.0,0.0,0.0,0.0,0.0,0.0,0.0,0.0,0.0,0.0,0.0,0.0,0.0,0.0,0.0,0.0,0.0,0.0,0.0,0.0,0.0,0.0,0.0,0.0,0.0,0.0,0.0,0.0,0.0,0.0,0.0,0.0,0.0,0.0,0.0,0.0,0.0,0.0,0.0,0.0,0.0,0.0,0.0,-1.2868,-1.0906,-1.0718,-1.0465,-1.0043,0.0,0.0,0.0,0.0,0.0,0.0,0.0,0.0,0.0,0.0,0.0,0.0,0.0,0.0,0.0,0.0,0.0,0.0,0.0,0.0,0.0,0.0,0.0,0.0,0.0,0.0,0.0,0.0,0.0,0.0,0.0,0.0,0.0,0.0,0.0,0.0,0.0,0.0,0.0,0.0,0.0,0.0,0.0,0.0,0.0,0.0,0.0,0.0,0.0,0.0,0.0,0.0,0.0,0.0,0.0,0.0,0.0,0.0,0.0,0.0,0.0,0.0,0.0,0.0,0.0,0.0,0.0,0.0,0.0,0.0,0.0,0.0,0.0,0.0,0.0,0.0,0.0,0.0,0.0,0.0,0.0,0.0,0.0,0.0,0.0,0.0,0.0,0.0,0.0,0.0,0.0,0.0,0.0,0.0,0.0,0.0,0.0,0.0,0.0,0.0,0.0,0.0,0.0,0.0,0.0,0.0,0.0,0.0,0.0,0.0,0.0,0.0,-1.0905,-1.0666,-1.0494,0.0,0.0,0.0,0.0,0.0,0.0,0.0,0.0,0.0,0.0,0.0,0.0,0.0,0.0,0.0,0.0,0.0,0.0,0.0,0.0,0.0,0.0,0.0,0.0,0.0,0.0,0.0,0.0,0.0,0.0,0.0,0.0,0.0,0.0,0.0,0.0,0.0,0.0,0.0,0.0,0.0,0.0,0.0,0.0,0.0,0.0,0.0,0.0,0.0,0.0,0.0,0.0,0.0,0.0,0.0,0.0,0.0,0.0,0.0,0.0,0.0,0.0,0.0,0.0,0.0,0.0,0.0,0.0,0.0,0.0,0.0,0.0,0.0,0.0,0.0,0.0,0.0,0.0,0.0,0.0,0.0,0.0,0.0,0.0,0.0,0.0,0.0,0.0,0.0,0.0,0.0,0.0,0.0,0.0,0.0,0.0,0.0,0.0,0.0,0.0,0.0,0.0,0.0,0.0,0.0,0.0,0.0,0.0,0.0,0.0,-1.3424,-1.2724,-1.1497,0.0,-1.1673,0.0,0.0,0.0,0.0,0.0,0.0,0.0,0.0,0.0,0.0,0.0,0.0,0.0,0.0,0.0,0.0,0.0,0.0,0.0,0.0,0.0,0.0,0.0,0.0,0.0,0.0,0.0,0.0,0.0,0.0,0.0,0.0,0.0,0.0,0.0,0.0,0.0,0.0,0.0,0.0,0.0,0.0,0.0,0.0,0.0,0.0,0.0,0.0,0.0,0.0,0.0,0.0,0.0,0.0,0.0,0.0,0.0,0.0,0.0,0.0,0.0,0.0,0.0,0.0,0.0,0.0,0.0,0.0,0.0,0.0,0.0,0.0,0.0,0.0,0.0,0.0,0.0,0.0,0.0,0.0,0.0,0.0,0.0,0.0,0.0,0.0,0.0,0.0,0.0,0.0,0.0,0.0,0.0,0.0,0.0,0.0,0.0,0.0,0.0,0.0,0.0,0.0,0.0,0.0,0.0,0.0,0.0,0.0,0.0,0.0,-1.3361,-1.2577,-1.1349,-1.1288,0.0,0.0,0.0,0.0,0.0,0.0,0.0,0.0,0.0,0.0,0.0,0.0,0.0,0.0,0.0,0.0,0.0,0.0,0.0,0.0,0.0,0.0,0.0,0.0,0.0,0.0,0.0,0.0,0.0,0.0,0.0,0.0,0.0,0.0,0.0,0.0,0.0,0.0,0.0,0.0,0.0,0.0,0.0,0.0,0.0,0.0,0.0,0.0,0.0,0.0,0.0,0.0,0.0,0.0,0.0,0.0,0.0,0.0,0.0,0.0,0.0,0.0,0.0,0.0,0.0,0.0,0.0,0.0,0.0,0.0,0.0,0.0,0.0,0.0,0.0,0.0,0.0,0.0,0.0,0.0,0.0,0.0,0.0,0.0,0.0,0.0,0.0,0.0,0.0,0.0,0.0,0.0,0.0,0.0,0.0,0.0,0.0,0.0,0.0,0.0,0.0,0.0,0.0,0.0,0.0,0.0,0.0,0.0,0.0,0.0,-1.4909,-1.3533,-1.2478,-1.1693,-1.1911,-1.3129,0.0,0.0,0.0,0.0,0.0,0.0,0.0,0.0,0.0,0.0,0.0,0.0,0.0,0.0,0.0,0.0,0.0,0.0,0.0,0.0,0.0,0.0,0.0,0.0,0.0,0.0,0.0,0.0,0.0,0.0,0.0,0.0,0.0,0.0,0.0,0.0,0.0,0.0,0.0,0.0,0.0,0.0,0.0,0.0,0.0,0.0,0.0,0.0,0.0,0.0,0.0,0.0,0.0,0.0,0.0,0.0,0.0,0.0,0.0,0.0,0.0,0.0,0.0,0.0,0.0,0.0,0.0,0.0,0.0,0.0,0.0,0.0,0.0,0.0,0.0,0.0,0.0,0.0,0.0,0.0,0.0,0.0,0.0,0.0,0.0,0.0,0.0,0.0,0.0,0.0,0.0,0.0,0.0,0.0,0.0,0.0,0.0,0.0,0.0,0.0,0.0,0.0,0.0,0.0,0.0,0.0,0.0,0.0,-1.8242,-1.6137,-1.4311,-1.2863,-1.2997,-1.3263,0.0,0.0,0.0,0.0,0.0,0.0,0.0,0.0,0.0,0.0,0.0,0.0,0.0,0.0,0.0,0.0,0.0,0.0,0.0,0.0,0.0,0.0,0.0,0.0,0.0,0.0,0.0,0.0,0.0,0.0,0.0,0.0,0.0,0.0,0.0,0.0,0.0,0.0,0.0,0.0,0.0,0.0,0.0,0.0,0.0,0.0,0.0,0.0,0.0,0.0,0.0,0.0,0.0,0.0,0.0,0.0,0.0,0.0,0.0,0.0,0.0,0.0,0.0,0.0,0.0,0.0,0.0,0.0,0.0,0.0,0.0,0.0,0.0,0.0,0.0,0.0,0.0,0.0,0.0,0.0,0.0,0.0,0.0,0.0,0.0,0.0,0.0,0.0,0.0,0.0,0.0,0.0,0.0,0.0,0.0,0.0,0.0,0.0,0.0,0.0,0.0,0.0,0.0,0.0,0.0,0.0,0.0,0.0,0.0,-1.7204,-1.5734,-1.4622,-1.4025,-1.3471,-1.3561,0.0,0.0,0.0,0.0,0.0,0.0,0.0,0.0,0.0,0.0,0.0,0.0,0.0,0.0,0.0,0.0,0.0,0.0,0.0,0.0,0.0,0.0,0.0,0.0,0.0,0.0,0.0,0.0,0.0,0.0,0.0,0.0,0.0,0.0,0.0,0.0,0.0,0.0,0.0,0.0,0.0,0.0,0.0,0.0,0.0,0.0,0.0,0.0,0.0,0.0,0.0,0.0,0.0,0.0,0.0,0.0,0.0,0.0,0.0,0.0,0.0,0.0,0.0,0.0,0.0,0.0,0.0,0.0,0.0,0.0,0.0,0.0,0.0,0.0,0.0,0.0,0.0,0.0,0.0,0.0,0.0,0.0,0.0,0.0,0.0,0.0,0.0,0.0,0.0,0.0,0.0,0.0,0.0,0.0,0.0,0.0,0.0,0.0,0.0,0.0,0.0,0.0,0.0,0.0,0.0,0.0,0.0,0.0,0.0,-1.6683,0.0,-1.5566,-1.4984,-1.4538,-1.4409,0.0,0.0,0.0,0.0,0.0,0.0,0.0,0.0,0.0,0.0,0.0,0.0,0.0,0.0,0.0,0.0,0.0,0.0,0.0,0.0,0.0,0.0,0.0,0.0,0.0,0.0,0.0,0.0,0.0,0.0,0.0,0.0,0.0,0.0,0.0,0.0,0.0,0.0,0.0,0.0,0.0,0.0,0.0,0.0,0.0,0.0,0.0,0.0,0.0,0.0,0.0,0.0,0.0,0.0,0.0,0.0,0.0,0.0,0.0,0.0,0.0,0.0,0.0,0.0,0.0,0.0,0.0,0.0,0.0,0.0,0.0,0.0,0.0,0.0,0.0,0.0,0.0,0.0,0.0,0.0,0.0,0.0,0.0,0.0,0.0,0.0,0.0,0.0,0.0,0.0,0.0,0.0,0.0,0.0,0.0,0.0,0.0,0.0,0.0,0.0,0.0,0.0,0.0,0.0,0.0,0.0,0.0,0.0,-1.7144,-1.6861,-1.752,-1.713,-1.5714,-1.6209,-1.6001,0.0,0.0,0.0,0.0,0.0,0.0,0.0,0.0,0.0,0.0,0.0,0.0,0.0,0.0,0.0,0.0,0.0,0.0,0.0,0.0,0.0,0.0,0.0,0.0,0.0,0.0,0.0,0.0,0.0,0.0,0.0,0.0,0.0,0.0,0.0,0.0,0.0,0.0,0.0,0.0,0.0,0.0,0.0,0.0,0.0,0.0,0.0,0.0,0.0,0.0,0.0,0.0,0.0,0.0,0.0,0.0,0.0,0.0,0.0,0.0,0.0,0.0,0.0,0.0,0.0,0.0,0.0,0.0,0.0,0.0,0.0,0.0,0.0,0.0,0.0,0.0,0.0,0.0,0.0,0.0,0.0,0.0,0.0,0.0,0.0,0.0,0.0,0.0,0.0,0.0,0.0,0.0,0.0,0.0,0.0,0.0,0.0,0.0,0.0,0.0,0.0,0.0,0.0,0.0,0.0,0.0,0.0,0.0,0.0,-1.6516,-1.6991,-1.7189,-1.6996,-1.6594,-1.6525,0.0,0.0,0.0,0.0,0.0,0.0,0.0,0.0,0.0,0.0,0.0,0.0,0.0,0.0,0.0,0.0,0.0,0.0,0.0,0.0,0.0,0.0,0.0,0.0,0.0,0.0,0.0,0.0,0.0,0.0,0.0,0.0,0.0,0.0,0.0,0.0,0.0,0.0,0.0,0.0,0.0,0.0,0.0,0.0,0.0,0.0,0.0,0.0,0.0,0.0,0.0,0.0,0.0,0.0,0.0,0.0,0.0,0.0,0.0,0.0,0.0,0.0,0.0,0.0,0.0,0.0,0.0,0.0,0.0,0.0,0.0,0.0,0.0,0.0,0.0,0.0,0.0,0.0,0.0,0.0,0.0,0.0,0.0,0.0,0.0,0.0,0.0,0.0,0.0,0.0,0.0,0.0,0.0,0.0,0.0,0.0,0.0,0.0,0.0,0.0,0.0,0.0,0.0,0.0,0.0,0.0,0.0,0.0,0.0,-1.7066,-1.7262,-1.7453,-1.7551,-1.6985,-1.6898,-1.7358,0.0,0.0,0.0,0.0,0.0,0.0,0.0,0.0,0.0,0.0,0.0,0.0,0.0,0.0,0.0,0.0,0.0,0.0,0.0,0.0,0.0,0.0,0.0,0.0,0.0,0.0,0.0,0.0,0.0,0.0,0.0,0.0,0.0,0.0,0.0,0.0,0.0,0.0,0.0,0.0,0.0,0.0,0.0,0.0,0.0,0.0,0.0,0.0,0.0,0.0,0.0,0.0,0.0,0.0,0.0,0.0,0.0,0.0,0.0,0.0,0.0,0.0,0.0,0.0,0.0,0.0,0.0,0.0,0.0,0.0,0.0,0.0,0.0,0.0,0.0,0.0,0.0,0.0,0.0,0.0,0.0,0.0,0.0,0.0,0.0,0.0,0.0,0.0,0.0,0.0,0.0,0.0,0.0,0.0,0.0,0.0,0.0,0.0,0.0,0.0,0.0,0.0,0.0,0.0,0.0,0.0,0.0,0.0,-1.8363,-1.8211,-1.7948,-1.7645,-1.7589,-1.7295,0.0,0.0,0.0,0.0,0.0,0.0,0.0,0.0,0.0,0.0,0.0,0.0,0.0,0.0,0.0,0.0,0.0,0.0,0.0,0.0,0.0,0.0,0.0,0.0,0.0,0.0,0.0,0.0,0.0,0.0,0.0,0.0,0.0,0.0,0.0,0.0,0.0,0.0,0.0,0.0,0.0,0.0,0.0,0.0,0.0,0.0,0.0,0.0,0.0,0.0,0.0,0.0,0.0,0.0,0.0,0.0,0.0,0.0,0.0,0.0,0.0,0.0,0.0,0.0,0.0,0.0,0.0,0.0,0.0,0.0,0.0,0.0,0.0,0.0,0.0,0.0,0.0,0.0,0.0,0.0,0.0,0.0,0.0,0.0,0.0,0.0,0.0,0.0,0.0,0.0,0.0,0.0,0.0,0.0,0.0,0.0,0.0,0.0,0.0,0.0,0.0,0.0,0.0,0.0,0.0,0.0,0.0,0.0,0.0,-1.9966,-1.9722,-1.9413,-1.8903,-1.8646,-1.8497,0.0,0.0,0.0,0.0,0.0,0.0,0.0,0.0,0.0,0.0,0.0,0.0,0.0,0.0,0.0,0.0,0.0,0.0,0.0,0.0,0.0,0.0,0.0,0.0,0.0,0.0,0.0,0.0,0.0,0.0,0.0,0.0,0.0,0.0,0.0,0.0,0.0,0.0,0.0,0.0,0.0,0.0,0.0,0.0,0.0,0.0,0.0,0.0,0.0,0.0,0.0,0.0,0.0,0.0,0.0,0.0,0.0,0.0,0.0,0.0,0.0,0.0,0.0,0.0,0.0,0.0,0.0,0.0,0.0,0.0,0.0,0.0,0.0,0.0,0.0,0.0,0.0,0.0,0.0,0.0,0.0,0.0,0.0,0.0,0.0,0.0,0.0,0.0,0.0,0.0,0.0,0.0,0.0,0.0,0.0,0.0,0.0,0.0,0.0,0.0,0.0,0.0,0.0,0.0,0.0,0.0,0.0,0.0,-2.1133,-2.0835,-2.0872,-2.0653,-2.0186,-1.9714,-1.9293,0.0,0.0,0.0,0.0,0.0,0.0,0.0,0.0,0.0,0.0,0.0,0.0,0.0,0.0,0.0,0.0,0.0,0.0,0.0,0.0,0.0,0.0,0.0,0.0,0.0,0.0,0.0,0.0,0.0,0.0,0.0,0.0,0.0,0.0,0.0,0.0,0.0,0.0,0.0,0.0,0.0,0.0,0.0,0.0,0.0,0.0,0.0,0.0,0.0,0.0,0.0,0.0,0.0,0.0,0.0,0.0,0.0,0.0,0.0,0.0,0.0,0.0,0.0,0.0,0.0,0.0,0.0,0.0,0.0,0.0,0.0,0.0,0.0,0.0,0.0,0.0,0.0,0.0,0.0,0.0,0.0,0.0,0.0,0.0,0.0,0.0,0.0,0.0,0.0,0.0,0.0,0.0,0.0,0.0,0.0,0.0,0.0,0.0,0.0,0.0,0.0,0.0,0.0,0.0,0.0,0.0,0.0,0.0,-2.203,-2.1434,-2.1717,-2.1695,-2.1382,-2.0698,-1.9898,0.0,0.0,0.0,0.0,0.0,0.0,0.0,0.0,0.0,0.0,0.0,0.0,0.0,0.0,0.0,0.0,0.0,0.0,0.0,0.0,0.0,0.0,0.0,0.0,0.0,0.0,0.0,0.0,0.0,0.0,0.0,0.0,0.0,0.0,0.0,0.0,0.0,0.0,0.0,0.0,0.0,0.0,0.0,0.0,0.0,0.0,0.0,0.0,0.0,0.0,0.0,0.0,0.0,0.0,0.0,0.0,0.0,0.0,0.0,0.0,0.0,0.0,0.0,0.0,0.0,0.0,0.0,0.0,0.0,0.0,0.0,0.0,0.0,0.0,0.0,0.0,0.0,0.0,0.0,0.0,0.0,0.0,0.0,0.0,0.0,0.0,0.0,0.0,0.0,0.0,0.0,0.0,0.0,0.0,0.0,0.0,0.0,0.0,0.0,0.0,0.0,0.0,0.0,0.0,0.0,0.0,0.0,0.0,-2.2908,-2.3209,-2.2619,-2.2362,-2.2598,-2.1052,-2.036,0.0,0.0,0.0,0.0,0.0,0.0,0.0,0.0,0.0,0.0,0.0,0.0,0.0,0.0,0.0,0.0,0.0,0.0,0.0,0.0,0.0,0.0,0.0,0.0,0.0,0.0,0.0,0.0,0.0,0.0,0.0,0.0,0.0,0.0,0.0,0.0,0.0,0.0,0.0,0.0,0.0,0.0,0.0,0.0,0.0,0.0,0.0,0.0,-2.5819,0.0,0.0,0.0,0.0,0.0,0.0,0.0,0.0,0.0,0.0,0.0,0.0,0.0,0.0,0.0,0.0,0.0,0.0,0.0,0.0,0.0,0.0,0.0,0.0,0.0,0.0,0.0,0.0,0.0,0.0,0.0,0.0,0.0,0.0,0.0,0.0,0.0,0.0,0.0,0.0,0.0,0.0,0.0,0.0,0.0,0.0,0.0,0.0,0.0,0.0,0.0,0.0,0.0,0.0,0.0,0.0,0.0,0.0,0.0,-2.3313,-2.379,-2.2988,-2.2767,-2.3171,-2.1956,-2.1387,0.0,0.0,0.0,0.0,0.0,0.0,0.0,0.0,0.0,0.0,0.0,0.0,0.0,0.0,0.0,0.0,0.0,0.0,0.0,0.0,0.0,0.0,0.0,0.0,0.0,0.0,0.0,0.0,0.0,0.0,0.0,0.0,0.0,0.0,0.0,0.0,0.0,0.0,0.0,0.0,0.0,0.0,0.0,0.0,0.0,0.0,0.0,0.0,0.0,0.0,0.0,0.0,0.0,0.0,0.0,0.0,0.0,0.0,0.0,0.0,0.0,0.0,0.0,0.0,0.0,0.0,0.0,0.0,0.0,0.0,0.0,0.0,0.0,0.0,0.0,0.0,0.0,0.0,0.0,0.0,0.0,0.0,0.0,0.0,0.0,0.0,0.0,0.0,0.0,0.0,0.0,0.0,0.0,0.0,0.0,0.0,0.0,0.0,0.0,0.0,0.0,0.0,0.0,0.0,0.0,0.0,0.0,-2.3832,-2.3584,-2.4158,-2.3328,-2.3116,-2.3591,-2.2999,-2.2632,-2.2503,0.0,0.0,0.0,0.0,0.0,0.0,0.0,0.0,0.0,0.0,0.0,0.0,0.0,0.0,0.0,0.0,0.0,0.0,0.0,0.0,0.0,0.0,0.0,0.0,0.0,0.0,0.0,0.0,0.0,0.0,0.0,0.0,0.0,0.0,0.0,0.0,0.0,0.0,-2.82,-2.9088,0.0,0.0,0.0,0.0,0.0,0.0,0.0,0.0,-2.7674,0.0,0.0,0.0,0.0,0.0,0.0,0.0,0.0,0.0,0.0,0.0,0.0,0.0,0.0,0.0,0.0,0.0,0.0,0.0,0.0,0.0,0.0,0.0,0.0,0.0,0.0,0.0,0.0,0.0,0.0,0.0,0.0,0.0,0.0,0.0,0.0,0.0,0.0,0.0,0.0,0.0,0.0,0.0,0.0,0.0,0.0,0.0,0.0,0.0,0.0,0.0,0.0,0.0,0.0,0.0,0.0,-2.6149,-2.4419,-2.418,-2.5501,-2.397,-2.3519,-2.4178,-2.3712,-2.3589,-2.3821,0.0,0.0,0.0,0.0,0.0,0.0,0.0,0.0,0.0,0.0,0.0,0.0,0.0,0.0,0.0,0.0,0.0,0.0,0.0,0.0,0.0,0.0,0.0,0.0,0.0,0.0,0.0,0.0,0.0,0.0,0.0,0.0,0.0,0.0,0.0,0.0,0.0,0.0,0.0,-2.9589,-3.0122,0.0,0.0,0.0,0.0,0.0,0.0,0.0,0.0,-2.8631,0.0,0.0,0.0,0.0,0.0,0.0,0.0,0.0,0.0,0.0,0.0,0.0,0.0,0.0,0.0,0.0,0.0,0.0,0.0,0.0,0.0,0.0,0.0,0.0,0.0,0.0,0.0,0.0,0.0,0.0,0.0,0.0,0.0,0.0,0.0,0.0,0.0,0.0,0.0,0.0,0.0,0.0,0.0,0.0,0.0,0.0,0.0,0.0,0.0,0.0,0.0,0.0,0.0,0.0,0.0,-2.6145,-2.4531,-2.4325,-2.5694,-2.435,-2.3798,-2.4241,-2.4026,-2.4003,0.0,0.0,0.0,0.0,0.0,0.0,0.0,0.0,0.0,0.0,0.0,0.0,0.0,0.0,0.0,0.0,0.0,0.0,0.0,0.0,0.0,0.0,0.0,0.0,0.0,0.0,0.0,0.0,0.0,0.0,0.0,0.0,0.0,0.0,0.0,0.0,0.0,0.0,0.0,0.0,-3.009,-3.0396,-2.9106,0.0,0.0,0.0,0.0,0.0,0.0,-2.9448,-2.948,0.0,0.0,0.0,0.0,0.0,0.0,0.0,0.0,0.0,0.0,0.0,0.0,0.0,0.0,0.0,0.0,0.0,0.0,0.0,0.0,0.0,0.0,0.0,0.0,0.0,0.0,0.0,0.0,0.0,0.0,0.0,0.0,0.0,0.0,0.0,0.0,0.0,0.0,0.0,0.0,0.0,0.0,0.0,0.0,0.0,0.0,0.0,0.0,0.0,0.0,0.0,0.0,0.0,0.0,0.0,-2.6141,-2.4844,-2.4706,-2.5904,-2.4899,-2.4367,-2.4473,-2.4509,-2.4418,0.0,0.0,0.0,0.0,0.0,0.0,0.0,0.0,0.0,0.0,0.0,0.0,0.0,0.0,0.0,0.0,0.0,0.0,0.0,0.0,0.0,0.0,0.0,0.0,0.0,0.0,0.0,0.0,0.0,0.0,0.0,0.0,0.0,0.0,0.0,0.0,0.0,0.0,0.0,0.0,0.0,-3.0662,-2.9929,-3.0296,0.0,0.0,0.0,0.0,-3.0408,-3.065,0.0,0.0,0.0,0.0,0.0,0.0,0.0,0.0,0.0,0.0,0.0,0.0,0.0,0.0,0.0,0.0,0.0,0.0,0.0,0.0,0.0,0.0,0.0,0.0,0.0,0.0,0.0,0.0,0.0,0.0,0.0,0.0,0.0,0.0,0.0,0.0,0.0,0.0,0.0,0.0,0.0,0.0,0.0,0.0,0.0,0.0,0.0,0.0,0.0,0.0,0.0,0.0,0.0,0.0,0.0,0.0,-2.6748,-2.6223,-2.6287,-2.7017,-2.616,-2.5727,-2.5788,-2.5545,-2.5237,0.0,0.0,0.0,0.0,0.0,0.0,0.0,0.0,0.0,0.0,0.0,0.0,0.0,0.0,0.0,0.0,0.0,0.0,0.0,0.0,0.0,0.0,0.0,0.0,0.0,0.0,0.0,0.0,0.0,0.0,0.0,0.0,0.0,0.0,0.0,0.0,0.0,0.0,0.0,0.0,0.0,-3.1357,-2.9544,-3.0694,-3.1466,0.0,0.0,-3.1482,-3.1675,-3.2395,0.0,0.0,0.0,0.0,0.0,0.0,0.0,0.0,0.0,0.0,0.0,0.0,0.0,0.0,0.0,0.0,0.0,0.0,0.0,0.0,0.0,0.0,0.0,0.0,0.0,0.0,0.0,0.0,0.0,0.0,0.0,0.0,0.0,0.0,0.0,0.0,0.0,0.0,0.0,0.0,0.0,0.0,0.0,0.0,0.0,0.0,0.0,0.0,0.0,0.0,0.0,0.0,0.0,0.0,0.0,-2.553,-2.7008,-2.597,-2.5946,-2.7154,-2.631,-2.5709,-2.5624,-2.5324,-2.5104,0.0,0.0,0.0,0.0,0.0,0.0,0.0,0.0,0.0,0.0,0.0,0.0,0.0,0.0,0.0,0.0,0.0,0.0,0.0,0.0,0.0,0.0,0.0,0.0,0.0,0.0,0.0,0.0,0.0,0.0,0.0,0.0,0.0,0.0,0.0,0.0,0.0,0.0,0.0,0.0,0.0,0.0,-3.0238,-3.1245,0.0,0.0,0.0,-3.232,-3.2534,0.0,0.0,0.0,0.0,0.0,0.0,0.0,0.0,0.0,0.0,0.0,0.0,0.0,0.0,0.0,0.0,0.0,0.0,0.0,0.0,0.0,0.0,0.0,0.0,0.0,0.0,0.0,0.0,0.0,0.0,0.0,0.0,0.0,0.0,0.0,0.0,0.0,0.0,0.0,0.0,0.0,0.0,0.0,0.0,0.0,0.0,0.0,0.0,0.0,0.0,0.0,0.0,0.0,0.0,0.0,0.0,0.0,-2.7206,-2.6194,-2.6267,-2.75,-2.6951,-2.6422,-2.6003,-2.5508,0.0,0.0,0.0,0.0,0.0,0.0,0.0,0.0,0.0,0.0,0.0,0.0,0.0,0.0,0.0,0.0,0.0,0.0,0.0,0.0,0.0,0.0,0.0,0.0,0.0,0.0,0.0,-2.7496,0.0,0.0,0.0,0.0,0.0,0.0,0.0,0.0,0.0,0.0,0.0,0.0,0.0,0.0,-3.1804,-3.1006,-3.1986,-3.2593,0.0,0.0,-3.3269,-3.3282,-3.3039,-3.283,0.0,0.0,0.0,0.0,0.0,0.0,0.0,0.0,0.0,0.0,0.0,0.0,0.0,0.0,0.0,0.0,0.0,0.0,0.0,0.0,0.0,0.0,0.0,0.0,0.0,0.0,0.0,0.0,0.0,0.0,0.0,0.0,0.0,0.0,0.0,0.0,0.0,0.0,0.0,0.0,0.0,0.0,0.0,0.0,0.0,0.0,0.0,0.0,0.0,0.0,0.0,0.0,0.0,0.0,-2.6011,-2.7282,-2.7865,-2.826,-2.862,-2.8994,-2.8778,-2.7846,-2.6925,-2.628,0.0,0.0,0.0,0.0,0.0,0.0,0.0,0.0,0.0,0.0,0.0,0.0,0.0,0.0,0.0,0.0,0.0,0.0,0.0,0.0,0.0,0.0,0.0,0.0,0.0,0.0,0.0,0.0,0.0,0.0,0.0,0.0,0.0,0.0,0.0,0.0,0.0,0.0,0.0,0.0,0.0,-3.1958,-3.1503,-3.2903,-3.3941,0.0,-3.4332,-3.4576,-3.3922,-3.4663,-3.4692,-3.3169,0.0,0.0,0.0,0.0,0.0,0.0,0.0,0.0,0.0,0.0,0.0,0.0,0.0,0.0,0.0,0.0,0.0,0.0,0.0,0.0,0.0,0.0,0.0,0.0,0.0,0.0,0.0,0.0,0.0,0.0,0.0,0.0,0.0,0.0,0.0,0.0,0.0,0.0,0.0,0.0,0.0,0.0,0.0,0.0,0.0,0.0,0.0,0.0,0.0,0.0,0.0,0.0,0.0,-2.5806,-2.7733,-2.7399,-2.7855,-2.9131,-2.9061,-2.8838,-2.8456,-2.7525,-2.6688,0.0,0.0,0.0,0.0,0.0,0.0,0.0,0.0,0.0,0.0,0.0,0.0,0.0,0.0,0.0,0.0,0.0,0.0,0.0,0.0,0.0,0.0,0.0,0.0,0.0,0.0,0.0,0.0,-2.6799,-2.682,-2.7969,0.0,0.0,0.0,0.0,0.0,0.0,0.0,0.0,0.0,0.0,-3.2415,-3.2005,-3.281,0.0,0.0,-3.4321,-3.4672,-3.4523,-3.4578,-3.4374,-3.3682,-3.3634,0.0,0.0,0.0,0.0,0.0,0.0,0.0,0.0,0.0,0.0,0.0,0.0,0.0,0.0,0.0,0.0,0.0,0.0,0.0,0.0,0.0,0.0,0.0,0.0,0.0,0.0,0.0,0.0,0.0,0.0,0.0,0.0,0.0,0.0,0.0,0.0,0.0,0.0,0.0,0.0,0.0,0.0,0.0,0.0,0.0,0.0,0.0,0.0,0.0,0.0,0.0,0.0,-2.5793,-2.805,-2.7485,-2.7978,-2.9681,-2.9492,-2.9261,-2.8945,-2.8174,-2.7348,0.0,0.0,0.0,0.0,0.0,0.0,0.0,0.0,0.0,0.0,0.0,0.0,0.0,0.0,0.0,0.0,0.0,0.0,0.0,0.0,0.0,0.0,0.0,0.0,0.0,0.0,0.0,0.0,-2.7405,-2.7561,-2.8672,0.0,0.0,0.0,0.0,0.0,0.0,0.0,0.0,0.0,0.0,-3.2782,-3.2835,-3.3224,-3.3708,-3.4367,-3.457,-3.4688,-3.4765,-3.4353,-3.3881,-3.3632,0.0,0.0,0.0,0.0,0.0,0.0,0.0,0.0,0.0,0.0,0.0,0.0,0.0,0.0,0.0,0.0,0.0,0.0,0.0,0.0,0.0,0.0,0.0,0.0,0.0,0.0,0.0,-2.2584,0.0,0.0,-2.4526,0.0,0.0,0.0,0.0,0.0,0.0,0.0,0.0,0.0,0.0,0.0,0.0,0.0,0.0,0.0,0.0,0.0,0.0,0.0,0.0,0.0,0.0,-2.606,-2.8061,-2.8439,-2.9104,-3.0136,-3.0675,-3.0455,-2.9542,-2.9038,-2.8299,-2.7272,0.0,0.0,0.0,0.0,0.0,0.0,0.0,0.0,0.0,0.0,0.0,0.0,0.0,0.0,0.0,0.0,0.0,0.0,0.0,0.0,0.0,0.0,0.0,0.0,0.0,0.0,-2.991,-2.9202,-2.87,0.0,0.0,0.0,0.0,0.0,0.0,0.0,0.0,0.0,-3.141,-3.1847,-3.2809,-3.4134,-3.4337,-3.4727,-3.5978,-3.5307,-3.4661,-3.4574,-3.4116,-3.3457,0.0,0.0,0.0,0.0,0.0,0.0,0.0,0.0,0.0,0.0,0.0,0.0,0.0,0.0,0.0,0.0,0.0,0.0,0.0,0.0,0.0,0.0,0.0,0.0,0.0,0.0,0.0,-2.2762,-2.3835,0.0,0.0,0.0,0.0,0.0,0.0,0.0,0.0,0.0,0.0,0.0,-2.4387,-2.4536,0.0,0.0,0.0,0.0,0.0,0.0,0.0,0.0,0.0,0.0,0.0,0.0,-2.6402,-2.8005,-2.8188,-2.8873,-3.017,-3.0388,-3.0308,-2.9977,-2.9168,-2.8218,-2.7077,0.0,0.0,0.0,0.0,0.0,0.0,0.0,0.0,0.0,0.0,0.0,0.0,0.0,0.0,0.0,0.0,0.0,0.0,0.0,0.0,0.0,0.0,0.0,0.0,0.0,-2.9634,0.0,0.0,0.0,0.0,0.0,0.0,0.0,0.0,0.0,0.0,-3.4369,-3.4439,-3.2929,-3.3513,-3.4077,-3.3951,-3.3962,-3.4131,0.0,0.0,0.0,0.0,0.0,0.0,0.0,0.0,0.0,0.0,0.0,0.0,0.0,0.0,-3.5404,-3.4407,-3.359,-3.3092,-3.3177,0.0,0.0,0.0,0.0,0.0,0.0,0.0,0.0,0.0,0.0,0.0,0.0,0.0,0.0,-2.3169,-2.4276,-2.4519,0.0,0.0,0.0,0.0,0.0,0.0,0.0,0.0,-2.5302,-2.4984,-2.443,-2.4678,-2.5004,0.0,-2.5208,-2.4791,0.0,0.0,0.0,0.0,0.0,0.0,0.0,0.0,-2.6908,-2.8039,-2.8371,-2.9068,-3.0147,-3.0216,-3.0216,-3.0204,-2.9412,-2.8634,-2.7824,-2.6768,-2.6385,0.0,0.0,0.0,0.0,0.0,0.0,0.0,0.0,0.0,0.0,0.0,0.0,0.0,0.0,0.0,0.0,0.0,0.0,0.0,0.0,0.0,0.0,0.0,-3.0537,0.0,0.0,0.0,0.0,0.0,0.0,0.0,0.0,0.0,-3.4481,-3.5001,-3.5015,-3.3995,-3.432,-3.4647,-3.4808,0.0,0.0,0.0,0.0,0.0,0.0,0.0,-3.4239,-3.3796,-3.4177,-3.4524,-3.4496,-3.4811,-3.5068,-3.5068,0.0,0.0,-3.4183,-3.36,-3.3168,-3.3087,-3.3346,-3.359,-3.3623,-3.4076,-3.4448,0.0,0.0,0.0,0.0,0.0,0.0,0.0,0.0,-2.2486,-2.3177,0.0,-2.3868,0.0,0.0,0.0,0.0,-2.5886,-2.5426,0.0,0.0,-2.4409,-2.4463,-2.4707,-2.4857,-2.4724,-2.44,-2.4836,-2.4815,-2.45,-2.4961,0.0,0.0,0.0,0.0,0.0,0.0,-2.7591,-2.8095,-2.8997,-2.9722,-3.0193,-3.0216,-3.0204,-3.0135,-2.9699,-2.9424,-2.9366,-2.82,-2.7822,-2.8375,-2.9246,0.0,0.0,0.0,0.0,0.0,0.0,0.0,0.0,0.0,0.0,0.0,0.0,0.0,0.0,0.0,0.0,0.0,0.0,0.0,0.0,-3.2079,0.0,0.0,0.0,0.0,0.0,0.0,0.0,0.0,0.0,-3.4208,-3.4148,-3.427,-3.4344,-3.456,0.0,0.0,0.0,0.0,-3.4175,-3.5906,-3.5143,-3.4361,-3.4327,-3.4025,-3.3516,-3.2647,0.0,0.0,-3.3347,-3.3697,-3.3948,-3.389,-3.3354,-3.3348,-3.5296,-3.496,-3.4581,-3.4735,-3.4186,-3.3971,-3.4201,-3.4104,-3.4128,-2.1046,0.0,0.0,0.0,0.0,-2.3392,-2.3741,-2.3608,-2.3781,-2.4348,-2.5185,-2.4331,0.0,0.0,0.0,0.0,0.0,0.0,-2.5086,-2.5044,-2.5305,-2.5204,-2.4798,-2.5311,-2.5383,-2.5155,-2.5315,-2.5425,-2.5394,-2.554,-2.562,-2.5618,0.0,0.0,0.0,0.0,-2.7635,-2.8336,-2.9108,-2.9722,-3.0159,-3.0216,-2.9871,-2.916,-2.901,-2.8609,-2.7866,-2.7901,-2.7866,-2.7856,-2.8912,0.0,0.0,0.0,0.0,0.0,0.0,0.0,0.0,0.0,0.0,0.0,0.0,0.0,0.0,0.0,0.0,0.0,0.0,0.0,-3.1474,-3.1539,-3.163,0.0,0.0,0.0,0.0,0.0,0.0,0.0,0.0,0.0,-3.5388,-3.5882,-3.6157,0.0,0.0,-3.6368,-3.6452,-3.5288,-3.4504,-3.476,-3.4143,0.0,-3.3234,-3.3339,-3.3402,-3.3281,-3.3691,-3.4256,-3.4766,-3.4447,-3.4129,-3.4115,-3.3586,-3.336,-3.3776,-3.3237,-3.2667,-3.2557,-3.2761,-3.2945,-3.2973,-3.3348,-3.3695,-2.168,-2.2389,-2.2621,-2.2857,-2.3197,-2.4193,-2.4533,-2.4347,-2.4387,-2.4673,-2.5046,-2.4294,-2.4218,-2.4752,-2.4937,0.0,0.0,0.0,-2.5015,-2.503,-2.5478,-2.5456,-2.5084,-2.5469,-2.5554,-2.5336,-2.522,-2.5334,-2.5625,-2.5928,-2.6104,-2.612,0.0,-2.6093,-2.6195,-2.7139,-2.7745,-2.8129,-2.9125,-2.9794,-3.0091,-3.017,-2.9837,-2.9056,-2.9022,-2.8735,-2.8149,-2.8035,-2.8027,-2.8052,-2.8726,-2.9248,0.0,0.0,0.0,0.0,0.0,0.0,0.0,0.0,0.0,0.0,0.0,-3.0956,-3.0887,0.0,0.0,0.0,-3.0941,-3.1241,-3.1267,-3.1539,0.0,0.0,0.0,0.0,0.0,0.0,0.0,-3.5397,-3.5064,-3.5026,-3.5564,-3.6226,-3.6594,-3.657,-3.6576,-3.6587,-3.6556,0.0,-3.4733,-3.4885,-3.4407,-3.3942,-3.369,-3.3798,-3.3872,-3.374,-3.3832,-3.4178,-3.4828,-3.4353,-3.3936,-3.4062,-3.3697,-3.3276,-3.3276,-3.2748,-3.2337,-3.225,-3.2565,-3.2839,-3.2764,-3.3142,-3.3431,-2.2248,-2.366,-2.3712,-2.3655,-2.3601,-2.4521,-2.4858,-2.4676,-2.4552,-2.4454,-2.4284,-2.389,-2.388,-2.4173,-2.5133,0.0,-2.4651,-2.4809,-2.478,-2.4616,-2.5181,-2.547,-2.547,-2.547,-2.5334,-2.5075,-2.4812,-2.4946,-2.5478,-2.6189,-2.6683,-2.6882,-2.6452,-2.6256,-2.6389,-2.7388,-2.783,-2.7778,-2.9173,-2.9886,-2.9943,-3.0057,-2.9929,-2.9435,-2.9401,-2.9343,-2.9297,-2.8459,-2.8161,-2.854,-2.8636,-2.8628,-2.8698,0.0,0.0,0.0,0.0,0.0,0.0,0.0,0.0,0.0,0.0,0.0,0.0,0.0,0.0,0.0,-3.0609,0.0,-3.1007,-3.1912,0.0,0.0,0.0,-3.4883,-3.4975,-3.4483,-3.4147,-3.4183,0.0,0.0,-3.5036,-3.5667,-3.613,-3.6308,-3.5933,-3.5961,-3.6869,-3.561,-3.493,-3.5759,-3.5367,-3.4976,-3.4641,-3.4548,-3.426,-3.3818,-3.3428,-3.3471,-3.4076,-3.381,-3.3641,-3.4104,-3.3697,-3.3276,-3.3276,-3.3269,-3.3276,-3.322,-3.3248,-3.3262,-3.3248,-3.3297,-3.3312,-2.2959,-2.4055,-2.4796,-2.4887,-2.466,-2.5644,-2.5893,-2.5597,-2.5551,-2.5518,-2.5353,-2.4394,-2.3762,-2.353,-2.375,-2.3963,-2.4112,-2.4312,-2.4745,-2.5274,-2.5676,-2.5874,-2.5874,-2.5874,-2.5592,-2.5153,-2.5624,-2.5918,-2.5962,-2.6665,-2.7013,-2.6903,-2.6777,-2.689,-2.7226,-2.7042,-2.7376,-2.8221,-2.9137,-2.9772,-3.0125,-2.9815,-2.9412,-2.8907,-2.854,-2.8161,-2.7793,-2.7908,-2.7851,-2.7598,-2.7953,-2.8209,-2.83,-2.9984,0.0,0.0,0.0,0.0,0.0,0.0,0.0,0.0,0.0,-3.1539,-3.1525,0.0,-3.2252,0.0,-3.0833,-3.1209,-3.1757,-3.2193,0.0,0.0,-3.3615,-3.4014,-3.3183,-3.3508,-3.3935,-3.4189,-3.439,-3.4705,-3.5263,-3.59,-3.6172,-3.5951,-3.6318,-3.6732,-3.6936,-3.6025,-3.5325,-3.5512,-3.4854,-3.4049,-3.3727,-3.3376,-3.324,-3.3225,-3.3583,-3.3998,-3.4189,-3.409,-3.4048,-3.4133,-3.3712,-3.3333,-3.3276,-3.3276,-3.3276,-3.3276,-3.3276,-3.3276,-3.3276,-3.3276,-3.3276,-2.386,-2.4795,-2.5533,-2.5789,-2.5671,-2.6321,-2.6406,-2.6174,-2.5953,-2.5692,-2.5293,-2.4425,-2.3965,-2.3819,-2.3651,-2.3936,-2.4481,-2.438,-2.4887,-2.5896,-2.6118,-2.6171,-2.6162,-2.6144,-2.5863,-2.5487,-2.5994,-2.6231,-2.6352,-2.7146,-2.739,-2.7045,-2.694,-2.7033,-2.7247,-2.7056,-2.7222,-2.79,-2.8736,-2.9497,-3.0034,-2.9693,-2.925,-2.8706,-2.825,-2.7719,-2.7107,-2.7277,-2.7527,-2.7853,-2.8149,-2.8533,-2.9004,-3.0177,-3.0846,0.0,0.0,0.0,0.0,0.0,0.0,0.0,0.0,0.0,0.0,0.0,-3.2697,-3.1913,-3.1327,-3.1344,-3.2165,-3.212,-3.2099,-3.2174,-3.2755,-3.2935,-3.2368,-3.2992,-3.3496,-3.3693,-3.4303,-3.481,-3.5114,-3.5715,-3.5978,-3.5723,-3.6125,-3.6429,-3.6401,-3.5928,-3.5617,-3.5735,-3.5147,-3.4568,-3.4162,-3.3551,-3.3204,-3.3491,-3.369,-3.3866,-3.4119,-3.3964,-3.388,-3.409,-3.3697,-3.3276,-3.3276,-3.3276,-3.3276,-3.3276,-3.3276,-3.3276,-3.3276,-3.3276,-3.3276,-2.468,-2.5541,-2.5961,-2.6266,-2.6571,-2.6581,-2.655,-2.6456,-2.6088,-2.5483,-2.4838,-2.4388,-2.4289,-2.4527,-2.4157,-2.4453,-2.5211,-2.4686,-2.5145,-2.6268,-2.633,-2.6328,-2.6364,-2.6267,-2.6123,-2.6002,-2.6123,-2.6342,-2.663,-2.7478,-2.7657,-2.7173,-2.6978,-2.6895,-2.6877,-2.7139,-2.7367,-2.7505,-2.8364,-2.9139,-2.984,-2.9419,-2.9003,-2.8522,-2.802,-2.7528,-2.7008,-2.6858,-2.7362,-2.8645,-2.8751,-2.909,-2.9791,-3.044,-3.0822,0.0,-3.1396,0.0,0.0,0.0,0.0,0.0,0.0,0.0,0.0,-3.2345,-3.2751,-3.3182,-3.1917,-3.1468,-3.231,-3.1963,-3.1743,-3.1927,-3.194,-3.2013,-3.2304,-3.2789,-3.3156,-3.3305,-3.4204,-3.4802,-3.4977,-3.5371,-3.571,-3.571,-3.575,-3.579,-3.571,-3.5723,-3.5736,-3.5936,-3.5599,-3.4959,-3.4843,-3.4093,-3.3559,-3.3884,-3.3768,-3.3585,-3.4119,-3.3796,-3.3599,-3.402,-3.3683,-3.329,-3.3276,-3.3276,-3.3276,-3.3276,-3.3276,-3.3276,-3.3276,-3.3276,-3.3276,-2.4548,-2.5234,-2.5839,-2.6136,-2.6233,-2.6423,-2.65,-2.6456,-2.6097,-2.5686,-2.5241,-2.4851,-2.4717,-2.4763,-2.4686,-2.4703,-2.4873,-2.4996,-2.5253,-2.5656,-2.5896,-2.6115,-2.633,-2.6294,-2.6419,-2.6703,-2.6757,-2.686,-2.704,-2.7278,-2.7231,-2.6945,-2.6911,-2.6788,-2.663,0.0,0.0,0.0,-2.8713,-2.9035,-2.9509,-2.8342,-2.7678,-2.7568,-2.6884,0.0,-2.7341,-2.7505,-2.8018,-2.8952,-2.9044,0.0,0.0,0.0,0.0,0.0,0.0,0.0,0.0,0.0,0.0,0.0,-3.3279,-3.3171,-3.2389,-3.2016,-3.2078,-3.2718,-3.2149,-3.1846,-3.2208,-3.2127,-3.2109,-3.2146,-3.2146,-3.2322,-3.287,-3.3047,-3.3441,-3.4394,-3.4666,-3.4978,-3.5465,-3.5615,-3.571,-3.571,-3.571,-3.571,-3.571,-3.571,-3.5547,-3.5112,-3.4365,-3.3758,-3.389,-3.3371,-3.306,-3.3367,-3.3838,-3.402,-3.4119,-3.4104,-3.4006,-3.4161,-3.3712,-3.3276,-3.3276,-3.3276,-3.3276,-3.3276,-3.3276,-3.3276,-3.3276,-3.3276,-3.3276,-2.4693,-2.491,-2.5517,-2.5811,0.0,-2.5939,-2.5934,-2.5917,-2.5746,-2.5446,-2.5078,-2.4701,-2.453,-2.4458,-2.4145,-2.413,-2.4438,-2.4386,-2.4729,-2.5454,-2.5663,-2.5903,-2.6089,-2.6248,-2.6468,-2.6688,-2.6726,-2.686,-2.7183,-2.7183,-2.7051,-2.6726,-2.6726,-2.663,-2.6544,-2.7241,-2.7961,-2.8617,-2.8617,-2.885,-2.9233,-2.8459,-2.7995,-2.7832,-2.7227,0.0,0.0,0.0,0.0,0.0,0.0,0.0,0.0,-2.993,0.0,-2.9601,-3.0221,-3.0662,-3.0819,-3.1166,-3.1672,-3.2354,-3.3238,-3.3673,-3.3431,-3.3011,-3.2909,-3.3255,-3.3063,-3.2938,-3.3013,-3.305,-3.305,-3.305,-3.305,-3.3186,-3.3471,-3.3756,-3.4177,-3.468,-3.5046,-3.5358,-3.5669,-3.571,-3.571,-3.571,-3.5817,-3.5898,-3.5912,-3.5898,-3.568,-3.508,-3.4014,-3.3338,-3.3353,-3.3032,-3.2775,-3.3128,-3.3494,-3.3712,-3.3754,-3.3754,-3.374,-3.374,-3.3487,-3.3276,-3.3276,-3.3276,-3.3276,-3.3276,-3.3276,-3.3276,-3.3276,-3.3276,-3.3276,-2.4814,-2.4611,-2.5142,-2.544,-2.5458,-2.543,-2.5391,-2.5275,-2.5275,0.0,0.0,-2.441,-2.4185,-2.4133,-2.352,-2.3531,-2.4088,-2.3699,-2.4176,-2.5295,-2.5524,-2.5819,-2.6082,-2.6498,-2.6751,-2.689,-2.6726,-2.6822,-2.7183,-2.7146,-2.686,-2.6544,-2.6592,-2.6678,-2.6832,-2.7573,-2.8139,-2.8441,-2.8441,-2.8617,-2.9035,-2.8716,-2.8431,-2.813,-2.7723,-2.718,-2.6471,-2.6674,-2.7226,-2.8155,-2.86,-2.9124,-2.9742,-2.997,-2.9851,-2.9312,-2.9445,-2.9625,-2.9714,-3.0413,-3.1239,-3.2071,-3.3287,-3.4107,-3.4364,-3.4076,-3.3908,-3.3908,-3.3908,-3.3908,-3.3908,-3.3908,-3.3908,-3.3908,-3.3908,-3.3935,-3.407,-3.4477,-3.4788,-3.5004,-3.5411,-3.571,-3.571,-3.571,-3.571,-3.5723,-3.5858,-3.6072,-3.6058,-3.5826,-3.5483,-3.4963,-3.3858,-3.3156,-3.3161,-3.2927,-3.2789,-3.3037,-3.322,-3.3276,-3.3276,-3.3276,-3.3276,-3.3333,-3.329,-3.3276,-3.3276,-3.3276,-3.3276,-3.3276,-3.3276,-3.3276,-3.3276,-3.3276,-3.3276,-2.4351,-2.4531,-2.4892,-2.5185,-2.5386,-2.5377,-2.5198,-2.4898,-2.4898,-2.4864,-2.4787,-2.4347,-2.4185,-2.4159,-2.3802,-2.3798,-2.4079,-2.4027,-2.4276,-2.4849,-2.5535,-2.6202,-2.6769,-2.7477,-2.8025,-2.8373,-2.7526,-2.7136,-2.7136,-2.6822,-2.6534,-2.6554,-2.6918,-2.7326,-2.7762,-2.7951,-2.8222,-2.871,-2.8488,-2.8535,-2.8839,-2.7963,-2.7396,-2.7124,-2.6922,-2.693,-2.7296,-2.7487,-2.8051,-2.8885,-2.9167,-2.9217,-2.8992,-2.9162,-2.9086,-2.8669,-2.8803,-2.9067,-2.9443,-3.0204,-3.1333,-3.2872,-3.3822,-3.4231,-3.4008,-3.3923,-3.3908,-3.3908,-3.3962,-3.3908,-3.3908,-3.3948,-3.3989,-3.3948,-3.3921,-3.4111,-3.4612,-3.4748,-3.5005,-3.5493,-3.5642,-3.571,-3.571,-3.571,-3.571,-3.571,-3.5817,-3.5858,-3.5935,-3.5194,-3.4591,-3.4289,-3.325,-3.2591,-3.2827,-3.2764,-3.2929,-3.3192,-3.3297,-3.341,-3.3445,-3.3389,-3.3389,-3.3319,-3.3452,-3.3375,-3.3333,-3.3276,-3.3304,-3.3319,-3.3276,-3.3276,-3.3276,-3.3276,-3.3276,-2.4353,-2.4474,-2.4812,-2.5043,-2.5116,-2.4833,-2.4778,-2.4778,-2.4367,-2.4436,-2.4744,-2.4341,-2.4257,-2.4404,-2.407,-2.3913,-2.4042,-2.407,-2.433,-2.4836,-2.5374,-2.6045,-2.687,-2.7098,-2.7573,-2.8279,-2.7563,-2.7326,-2.7563,-2.7146,-2.687,-2.6918,-2.7373,-2.7752,-2.7998,-2.8279,-2.8571,-2.8803,-2.8664,-2.8664,-2.8792,-2.8446,-2.8023,-2.7491,-2.7533,-2.7493,-2.7342,-2.7429,-2.7644,-2.8035,-2.8275,-2.8275,-2.8115,-2.8407,-2.8578,-2.851,-2.8685,-2.9162,-3.0011,-3.1293,-3.2538,-3.3721,-3.4199,-3.4436,-3.4566,-3.4553,-3.4646,-3.487,-3.487,-3.487,-3.487,-3.487,-3.487,-3.487,-3.4856,-3.4978,-3.5209,-3.5263,-3.5411,-3.5669,-3.571,-3.571,-3.571,-3.571,-3.571,-3.571,-3.5804,-3.6018,-3.6338,-3.5606,-3.4898,-3.4701,-3.367,-3.3087,-3.3256,-3.3358,-3.3526,-3.3926,-3.3898,-3.3964,-3.4169,-3.4098,-3.3972,-3.4239,-3.4309,-3.4169,-3.3866,-3.3782,-3.3641,-3.3319,-3.3276,-3.3276,-3.3276,-3.3276,-3.3276,-2.4351,-2.4456,-2.4675,-2.4836,-2.4825,-2.4326,-2.4342,-2.4598,-2.3785,-2.3898,-2.4519,-2.4156,-2.414,-2.4385,-2.4024,-2.3868,-2.3976,-2.4031,-2.4341,-2.4833,-2.5274,-2.5955,-2.6764,-2.6784,-2.7299,-2.7951,-2.761,-2.762,-2.7904,-2.7563,-2.7458,-2.762,-2.7987,-2.8175,-2.8175,-2.856,-2.8803,-2.8803,-2.885,-2.8839,-2.885,-2.9035,-2.8765,-2.8086,-2.8258,-2.8009,-2.7177,-2.719,-2.719,-2.719,-2.7452,-2.7615,-2.7615,-2.8047,-2.8419,-2.859,-2.8925,-2.9717,-3.0989,-3.2367,-3.3496,-3.4108,-3.423,-3.4384,-3.4743,-3.4908,-3.5154,-3.5588,-3.5655,-3.5669,-3.5655,-3.5669,-3.571,-3.571,-3.571,-3.5655,-3.571,-3.571,-3.571,-3.571,-3.571,-3.5723,-3.5764,-3.5804,-3.5804,-3.5884,-3.5938,-3.6152,-3.6415,-3.5988,-3.5584,-3.5219,-3.4372,-3.3686,-3.3892,-3.3845,-3.3937,-3.4256,-3.4055,-3.4189,-3.4534,-3.4464,-3.4506,-3.4908,-3.4964,-3.466,-3.4259,-3.402,-3.3768,-3.3375,-3.3276,-3.3276,-3.3276,-3.3276,-3.3276,-2.4116,-2.4371,-2.4435,-2.4585,-2.4757,-2.4093,-2.3982,-2.4145,-2.3186,-2.3281,-2.4061,-2.3756,-2.3608,-2.3573,-2.3571,-2.3645,-2.3845,-2.4012,-2.4282,-2.4677,-2.5567,-2.6197,-2.664,-2.7431,-2.8055,-2.8301,-2.8045,-2.794,-2.8045,-2.7987,-2.8175,-2.8606,-2.871,-2.871,-2.871,-2.8792,-2.8803,-2.8803,-2.8989,-2.9082,-2.9082,-2.9071,-2.8754,-2.8051,-2.8258,-2.7924,-2.7065,-2.7108,-2.719,-2.7231,-2.7638,-2.7893,-2.7933,-2.8419,-2.8764,-2.884,-2.965,-3.081,-3.2269,-3.2924,-3.3286,-3.3492,-3.3683,-3.3797,-3.3882,-3.423,-3.4812,-3.5467,-3.5669,-3.571,-3.571,-3.571,-3.571,-3.571,-3.571,-3.571,-3.571,-3.571,-3.571,-3.571,-3.5723,-3.5764,-3.5992,-3.6032,-3.6112,-3.6232,-3.6018,-3.5978,-3.6192,-3.6149,-3.6053,-3.5876,-3.5143,-3.4389,-3.4047,-3.3859,-3.3932,-3.3523,-3.3373,-3.3894,-3.4385,-3.4534,-3.4436,-3.4992,-3.4927,-3.461,-3.4231,-3.3796,-3.3529,-3.3473,-3.3375,-3.3276,-3.3276,-3.3276,-3.3276,-2.4368,-2.4663,-2.4654,-2.4838,-2.5026,-2.4333,-2.4102,-2.4136,-2.3436,-2.3245,-2.3484,-2.391,-2.4191,-2.4346,-2.4361,-2.4491,-2.4573,-2.4749,-2.503,-2.546,-2.5897,-2.6476,-2.7156,-2.7536,-2.7961,-2.8395,-2.843,-2.8477,-2.8466,-2.8466,-2.8606,-2.8757,-2.8803,-2.8803,-2.8803,-2.8943,-2.8989,-2.8989,-2.922,-2.9393,-2.9554,-2.9565,-2.9262,-2.8721,-2.8612,-2.8274,-2.76,-2.7321,-2.719,-2.7231,-2.765,-2.8034,-2.8369,-2.8518,-2.9067,-2.9931,-3.1044,-3.1915,-3.2536,-3.3046,-3.3326,-3.3386,-3.3356,-3.3441,-3.367,-3.3882,-3.4259,-3.484,-3.5399,-3.571,-3.571,-3.571,-3.571,-3.571,-3.571,-3.571,-3.571,-3.571,-3.571,-3.571,-3.5858,-3.5938,-3.6072,-3.6192,-3.6232,-3.6246,-3.6112,-3.6152,-3.6272,-3.6351,-3.651,-3.6559,-3.6245,-3.5798,-3.5231,-3.4927,-3.4823,-3.4913,-3.4845,-3.4952,-3.5152,-3.5307,-3.5335,-3.5259,-3.5433,-3.5349,-3.4899,-3.4941,-3.4815,-3.4253,-3.3445,-3.3276,-3.3276,-3.3276,-3.3276,-2.4599,-2.4765,-2.4821,-2.4907,-2.4992,-2.4359,-2.407,-2.396,-2.3695,-2.3503,-2.3506,-2.4332,-2.4896,-2.5108,-2.5148,-2.5067,-2.498,-2.5172,-2.5479,-2.5752,-2.5858,-2.6284,-2.7061,-2.7347,-2.7678,-2.8207,-2.8617,-2.8803,-2.8803,-2.8803,-2.8803,-2.8803,-2.8839,-2.8896,-2.8896,-2.9071,-2.922,-2.9266,-2.9485,-2.9726,-2.9886,-2.9977,-2.9715,-2.9182,-2.8982,-2.8646,-2.8122,-2.7671,-2.7465,-2.7621,-2.7888,-2.8228,-2.8734,-2.8781,-2.9432,-3.0762,-3.1814,-3.247,-3.2609,-3.3043,-3.3326,-3.3313,-3.3197,-3.324,-3.3484,-3.3641,-3.3839,-3.4189,-3.4881,-3.5345,-3.5521,-3.5642,-3.5723,-3.571,-3.571,-3.571,-3.571,-3.571,-3.571,-3.571,-3.5858,-3.6072,-3.6152,-3.6246,-3.6286,-3.6391,-3.6365,-3.6365,-3.6405,-3.6563,-3.6747,-3.6836,-3.6822,-3.6593,-3.6117,-3.5751,-3.5831,-3.5734,-3.5579,-3.5573,-3.5995,-3.6089,-3.6244,-3.6019,-3.6553,-3.6469,-3.5639,-3.5709,-3.5531,-3.454,-3.3852,-3.3459,-3.3304,-3.329,-3.3276,-2.4765,-2.4812,-2.4812,-2.4607,-2.4256,-2.3933,-2.366,-2.3626,-2.3678,-2.3963,-2.444,-2.5001,-2.5421,-2.5596,-2.54,-2.5019,-2.4674,-2.5147,-2.5284,-2.5128,-2.5333,-2.5518,-2.5849,-2.6572,-2.7194,-2.7773,-2.843,-2.8757,-2.8803,-2.8803,-2.8803,-2.8803,-2.8989,-2.9082,-2.9128,-2.9301,-2.9485,-2.9485,-2.9726,-2.9886,-2.9931,-3.0091,-2.9862,-2.935,-2.9381,-2.9106,-2.8464,-2.8133,-2.8149,-2.8597,-2.8395,-2.8479,-2.8917,-2.934,-3.0057,-3.1013,-3.1617,-3.2194,-3.266,-3.2945,-3.3124,-3.3111,-3.3068,-3.3111,-3.321,-3.3471,-3.367,-3.3768,-3.423,-3.4688,-3.5072,-3.5399,-3.5629,-3.5669,-3.5723,-3.571,-3.571,-3.571,-3.571,-3.571,-3.5764,-3.6018,-3.6325,-3.6246,-3.6431,-3.6654,-3.647,-3.6232,-3.6405,-3.6589,-3.6668,-3.6589,-3.6587,-3.6512,-3.5969,-3.593,-3.5701,-3.5683,-3.5781,-3.5517,-3.585,-3.6159,-3.6427,-3.6501,-3.6459,-3.6342,-3.6047,-3.5653,-3.5152,-3.4576,-3.4245,-3.3908,-3.3375,-3.3304,-3.3276,-2.4667,-2.4444,-2.439,-2.4222,-2.3924,-2.4087,-2.4026,-2.3829,-2.4542,-2.4812,-2.4901,-2.5654,-2.5945,-2.5693,-2.5955,-2.5674,-2.5128,-2.5897,-2.6091,-2.581,-2.6294,-2.6678,-2.6918,-2.7098,-2.7489,-2.8055,-2.8233,-2.8477,-2.8803,-2.8803,-2.8803,-2.8803,-2.8839,-2.8989,-2.9117,-2.9359,-2.9588,-2.9748,-3.0011,-3.0091,-3.0102,-3.017,-3.0079,-2.9862,-2.9609,-2.9368,-2.9097,-2.868,-2.8528,-2.8689,-2.8742,-2.9079,-2.9725,-3.0639,-3.1107,-3.1234,-3.1816,-3.2352,-3.2643,-3.268,-3.2779,-3.3081,-3.2939,-3.2939,-3.3068,-3.324,-3.3313,-3.3398,-3.3865,-3.4285,-3.4494,-3.499,-3.5358,-3.5521,-3.5642,-3.571,-3.571,-3.571,-3.571,-3.575,-3.5924,-3.6272,-3.647,-3.6628,-3.6733,-3.6786,-3.6747,-3.6654,-3.6615,-3.6747,-3.685,-3.6811,-3.6836,-3.6805,-3.6637,-3.6373,-3.6211,-3.6192,-3.6172,-3.6063,-3.6238,-3.6501,-3.6806,-3.63,-3.6216,-3.6469,-3.63,-3.6089,-3.5498,-3.5034,-3.4702,-3.4267,-3.3417,-3.3445,-3.3375,-2.4535,-2.421,-2.4185,-2.4046,-2.3817,-2.4166,-2.4255,-2.4321,-2.5189,-2.5524,-2.5596,-2.6352,-2.6534,-2.6332,-2.6678,-2.6486,-2.5907,-2.6332,-2.6332,-2.6139,-2.6486,-2.6726,-2.687,-2.6976,-2.7394,-2.7961,-2.8233,-2.8466,-2.8757,-2.8803,-2.8803,-2.8803,-2.885,-2.8978,-2.9266,-2.9497,-2.9726,-2.9966,-3.0136,-3.0216,-3.0216,-3.0216,-3.0216,-3.017,-2.9894,-2.9734,-2.9711,-2.9228,-2.9045,-2.9192,-2.9262,-2.9636,-3.0411,-3.1259,-3.1569,-3.132,-3.1852,-3.2344,-3.2463,-3.2431,-3.2562,-3.2909,-3.2797,-3.2797,-3.3081,-3.3124,-3.3124,-3.321,-3.3539,-3.3894,-3.4147,-3.4605,-3.5072,-3.5358,-3.5562,-3.571,-3.571,-3.571,-3.5764,-3.5858,-3.6072,-3.6405,-3.6628,-3.6733,-3.6772,-3.6772,-3.6875,-3.685,-3.6747,-3.685,-3.6954,-3.6915,-3.6954,-3.6954,-3.6855,-3.671,-3.6607,-3.6615,-3.6574,-3.6511,-3.6522,-3.6838,-3.6806,-3.6216,-3.6159,-3.6525,-3.661,-3.6441,-3.6061,-3.5555,-3.5302,-3.4927,-3.4267,-3.3641,-3.3585,-2.459,-2.4167,-2.4222,-2.4059,-2.3927,-2.4037,-2.4336,-2.4966,-2.5547,-2.6083,-2.641,-2.7023,-2.7214,-2.7262,-2.7357,-2.7289,-2.686,-2.6255,-2.6014,-2.61,-2.5801,-2.5684,-2.5781,-2.653,-2.703,-2.7494,-2.8358,-2.8779,-2.8803,-2.8803,-2.8803,-2.885,-2.8989,-2.9163,-2.9485,-2.9737,-2.9966,-3.0136,-3.0216,-3.0216,-3.0216,-3.0216,-3.0216,-3.0216,-3.017,-3.0158,-3.017,-2.9734,-2.9676,-3.0009,-2.9922,-3.0129,-3.073,-3.1129,-3.1253,-3.135,-3.1714,-3.1957,-3.2069,-3.2257,-3.2475,-3.2723,-3.2723,-3.2797,-3.3025,-3.3124,-3.3124,-3.3167,-3.3326,-3.3611,-3.4076,-3.4481,-3.4936,-3.5304,-3.5588,-3.571,-3.571,-3.571,-3.5804,-3.6032,-3.6152,-3.6286,-3.6563,-3.6628,-3.6654,-3.6875,-3.6836,-3.6786,-3.6786,-3.6889,-3.6889,-3.6811,-3.6875,-3.6978,-3.6978,-3.6978,-3.6978,-3.6964,-3.6897,-3.6866,-3.6799,-3.6964,-3.6964,-3.6543,-3.6515,-3.6838,-3.6838,-3.6655,-3.6469,-3.6061,-3.5864,-3.5447,-3.4773,-3.4169,-3.3894,-2.4444,-2.3888,-2.3845,-2.3931,-2.4052,-2.4545,-2.5129,-2.5726,-2.6586,-2.6913,-2.6883,-2.7177,-2.7404,-2.7452,-2.7441,-2.7584,-2.782,-2.6822,-2.6304,-2.645,-2.6847,-2.7016,-2.7175,-2.7695,-2.8087,-2.8338,-2.8964,-2.9121,-2.8858,-2.8803,-2.8803,-2.885,-2.8989,-2.9209,-2.9485,-2.9783,-3.0011,-3.0182,-3.0216,-3.0216,-3.0216,-3.0227,-3.0216,-3.0216,-3.0216,-3.0216,-3.0204,-3.0067,-3.0067,-3.0216,-3.0292,-3.0601,-3.1044,-3.142,-3.1564,-3.1576,-3.1697,-3.1981,-3.2213,-3.2169,-3.2388,-3.281,-3.281,-3.2853,-3.3081,-3.3124,-3.3124,-3.3124,-3.327,-3.3598,-3.4034,-3.4481,-3.4881,-3.5358,-3.5548,-3.571,-3.5764,-3.5844,-3.5992,-3.6126,-3.6325,-3.6549,-3.6668,-3.6693,-3.6836,-3.6954,-3.6915,-3.6889,-3.6915,-3.6954,-3.6978,-3.6915,-3.6978,-3.6978,-3.6978,-3.6978,-3.6978,-3.6978,-3.6978,-3.6978,-3.6978,-3.6978,-3.6978,-3.6978,-3.6978,-3.6978,-3.6978,-3.688,-3.6694,-3.6427,-3.6103,-3.5611,-3.4997,-3.4674,-3.4478,-2.4162,-2.3502,-2.3818,-2.4154,-2.4545,-2.5295,-2.6008,-2.6606,-2.7298,-2.7396,-2.7143,-2.732,-2.7499,-2.7594,-2.7689,-2.7972,-2.8322,-2.7608,-2.7318,-2.729,-2.7419,-2.768,-2.7899,-2.8609,-2.8933,-2.893,-2.9287,-2.9274,-2.8825,-2.8803,-2.885,-2.8943,-2.9035,-2.9312,-2.9634,-2.9794,-2.9966,-3.0182,-3.0216,-3.0216,-3.0262,-3.0411,-3.0514,-3.0514,-3.0514,-3.0468,-3.0503,-3.0331,-3.0216,-3.0261,-3.0532,-3.0949,-3.1395,-3.1617,-3.1705,-3.1705,-3.1705,-3.1849,-3.2169,-3.2081,-3.2245,-3.2754,-3.281,-3.281,-3.3025,-3.3124,-3.3124,-3.3124,-3.3283,-3.3526,-3.3937,-3.4426,-3.484,-3.5236,-3.5521,-3.5723,-3.5858,-3.5992,-3.6192,-3.6325,-3.6563,-3.6707,-3.6811,-3.6811,-3.6915,-3.6954,-3.6915,-3.6954,-3.6954,-3.6978,-3.6978,-3.6978,-3.6978,-3.6978,-3.6978,-3.6978,-3.6978,-3.6978,-3.6978,-3.6978,-3.6978,-3.6978,-3.6978,-3.6978,-3.6978,-3.6978,-3.6978,-3.6978,-3.6838,-3.6595,-3.6342,-3.5934,-3.5461,-3.5307,-3.5082,-2.3757,-2.3272,-2.3965,-2.4596,-2.5204,-2.6097,-2.6834,-2.7555,-2.7703,-2.7644,-2.7506,-2.7625,-2.7757,-2.7878,-2.8263,-2.8498,-2.8509,-2.8503,-2.8486,-2.8404,-2.8079,-2.7906,-2.8427,-2.9239,-2.9561,-2.9472,-2.9572,-2.9361,-2.8992,-2.894,-2.8932,-2.9128,-2.922,-2.937,-2.9794,-2.9897,-3.0011,-3.0182,-3.0216,-3.0216,-3.0227,-3.0641,-3.0928,-3.095,-3.095,-3.0985,-3.0996,-3.0606,-3.0285,-3.0318,-3.0736,-3.1196,-3.1584,-3.1705,-3.1705,-3.1705,-3.1705,-3.1805,-3.1994,-3.2113,-3.2288,-3.2667,-3.2766,-3.281,-3.3068,-3.3124,-3.3124,-3.3111,-3.3313,-3.3526,-3.3797,-3.4301,-3.4799,-3.5154,-3.5521,-3.5764,-3.6046,-3.6126,-3.6272,-3.6563,-3.6721,-3.6747,-3.6889,-3.6772,-3.6772,-3.6903,-3.6825,-3.685,-3.6954,-3.6978,-3.6978,-3.6978,-3.6978,-3.6978,-3.6978,-3.6978,-3.6978,-3.6978,-3.6978,-3.6978,-3.6978,-3.6978,-3.6978,-3.6978,-3.6978,-3.6978,-3.6978,-3.6978,-3.6978,-3.6824,-3.6557,-3.63,-3.6089,-3.5869,-3.57,-2.3956,-2.3608,-2.4081,-2.4628,-2.5352,-2.6569,-2.7482,-2.8043,-2.8282,-2.8357,-2.8457,-2.8282,-2.8513,-2.916,-2.8946,-2.9106,-2.9203,-2.8914,-2.8923,-2.9193,-2.9444,-2.9873,-3.0392,-3.0603,-3.0684,-3.0625,-3.0339,-3.005,-2.9645,-2.9407,-2.9368,-2.9393,-2.961,-2.9725,-2.9886,-3.0068,-3.0136,-3.0216,-3.0216,-3.0227,-3.0262,-3.0388,-3.0629,-3.0985,-3.1031,-3.1203,-3.1467,-3.1077,-3.079,-3.0816,-3.0883,-3.1196,-3.1617,-3.1705,-3.1705,-3.1705,-3.1849,-3.1937,-3.2038,-3.2332,-3.255,-3.268,-3.2853,-3.3025,-3.3081,-3.3124,-3.3124,-3.3154,-3.3398,-3.3641,-3.3797,-3.4301,-3.4881,-3.544,-3.5697,-3.5845,-3.6072,-3.6246,-3.6445,-3.6628,-3.6721,-3.6761,-3.6761,-3.6668,-3.6589,-3.6747,-3.6786,-3.6786,-3.6915,-3.6978,-3.6978,-3.6978,-3.6978,-3.6978,-3.6978,-3.6978,-3.6978,-3.6978,-3.6978,-3.6978,-3.6978,-3.6978,-3.6978,-3.6978,-3.6978,-3.6978,-3.6978,-3.6964,-3.6978,-3.6978,-3.6852,-3.6599,-3.6515,-3.6388,-3.6356,-2.4082,-2.3896,-2.4515,-2.5279,-2.6116,-2.7482,-2.8409,-2.8896,-2.894,-2.889,-2.8796,-2.8422,-2.8572,-2.91,-2.9032,-2.9122,-2.9419,-2.9486,-2.9575,-2.9732,-3.028,-3.0928,-3.14,-3.1424,-3.1287,-3.1091,-3.0872,-3.0535,-3.0223,-3.0011,-3.0077,-3.0242,-3.0236,-3.0249,-3.0388,-3.0228,-3.0227,-3.0216,-3.0227,-3.0296,-3.0537,-3.0859,-3.1286,-3.1656,-3.1586,-3.1482,-3.1321,-3.0997,-3.0891,-3.0941,-3.1029,-3.1196,-3.1629,-3.1705,-3.1705,-3.1705,-3.1893,-3.2025,-3.2213,-3.2506,-3.2754,-3.2853,-3.3025,-3.3081,-3.3124,-3.3124,-3.3124,-3.3227,-3.3484,-3.3598,-3.3797,-3.4217,-3.4959,-3.5776,-3.6062,-3.6171,-3.6341,-3.6365,-3.6549,-3.6707,-3.6747,-3.6735,-3.6735,-3.6617,-3.6603,-3.6668,-3.6721,-3.6811,-3.694,-3.6978,-3.6978,-3.6978,-3.6993,-3.7007,-3.7007,-3.7021,-3.6978,-3.6978,-3.6978,-3.6978,-3.6978,-3.6964,-3.6838,-3.6838,-3.6922,-3.695,-3.6866,-3.688,-3.6978,-3.6978,-3.6978,-3.6852,-3.6655,-3.6726,-3.6722,-2.4298,-2.4217,-2.5222,-2.6172,-2.7061,-2.8384,-2.9179,-2.9745,-2.9501,-2.9242,-2.8945,-2.8455,-2.8629,-2.8593,-2.9017,-2.8972,-2.9237,-2.9931,-3.0223,-3.0427,-3.0869,-3.1351,-3.1556,-3.1578,-3.1473,-3.1262,-3.1052,-3.0943,-3.0845,-3.0771,-3.099,-3.1108,-3.0886,-3.0854,-3.0926,-3.0663,-3.0377,-3.0491,-3.0549,-3.0732,-3.1031,-3.1447,-3.1889,-3.2319,-3.2204,-3.167,-3.1123,-3.0831,-3.0874,-3.1029,-3.1017,-3.1285,-3.1673,-3.1705,-3.1705,-3.1749,-3.1937,-3.2169,-3.2344,-3.255,-3.281,-3.2995,-3.3038,-3.3124,-3.3124,-3.3111,-3.324,-3.3356,-3.3484,-3.3777,-3.4146,-3.4389,-3.5018,-3.5947,-3.644,-3.6593,-3.6598,-3.6581,-3.673,-3.7018,-3.6956,-3.6877,-3.6809,-3.6767,-3.6754,-3.696,-3.6902,-3.6811,-3.6915,-3.6978,-3.6978,-3.6978,-3.7007,-3.7035,-3.7049,-3.7049,-3.7007,-3.6978,-3.6978,-3.6978,-3.6978,-3.6908,-3.6683,-3.6641,-3.6866,-3.6824,-3.6599,-3.6669,-3.6894,-3.6978,-3.6978,-3.6697,-3.6483,-3.6754,-3.6852,-2.5401,-2.5094,-2.6033,-2.6389,-2.6594,-2.8049,-2.8896,-2.9083,-2.9327,-2.9668,-2.9888,-2.9536,-2.9627,-3.0151,-2.9579,-2.9606,-2.9683,-3.0092,-3.0397,-3.1027,-3.1297,-3.1516,-3.1567,-3.1618,-3.1819,-3.1884,-3.1673,-3.1609,-3.1698,-3.1595,-3.1597,-3.1682,-3.1636,-3.1546,-3.1489,-3.141,-3.141,-3.141,-3.1375,-3.1387,-3.1433,-3.1422,-3.1749,-3.2262,-3.2359,-3.2101,-3.1621,-3.1457,-3.1394,-3.1291,-3.1261,-3.1407,-3.1673,-3.1717,-3.1749,-3.1849,-3.2069,-3.2257,-3.2213,-3.2605,-3.2939,-3.281,-3.2952,-3.3124,-3.3111,-3.324,-3.3313,-3.3471,-3.3878,-3.4357,-3.5102,-3.5051,-3.5453,-3.6104,-3.6327,-3.6208,-3.6198,-3.7124,-3.7715,-3.7826,-3.7812,-3.7882,-3.7827,-3.7165,-3.7122,-3.7268,-3.7137,-3.6895,-3.6973,-3.7161,-3.7259,-3.7386,-3.7203,-3.7274,-3.7372,-3.7344,-3.7245,-3.7217,-3.7189,-3.7007,-3.7007,-3.6936,-3.6754,-3.6768,-3.6961,-3.6792,-3.6525,-3.6712,-3.6978,-3.6978,-3.6978,-3.6824,-3.674,-3.695,-3.6964,-2.6164,-2.61,-2.6929,-2.7362,-2.7661,-2.8898,-2.9606,-2.9693,-2.9704,-2.9996,-3.0087,-2.9473,-2.9526,-3.0218,-2.9641,-2.9487,-2.9849,-3.0119,-3.0572,-3.1094,-3.1373,-3.1476,-3.1618,-3.1721,-3.1975,-3.2235,-3.1984,-3.2062,-3.232,-3.237,-3.2388,-3.2431,-3.2285,-3.2099,-3.2018,-3.1892,-3.172,-3.1708,-3.1754,-3.1834,-3.1972,-3.2001,-3.1889,-3.2171,-3.2172,-3.1901,-3.152,-3.1461,-3.1511,-3.1466,-3.1496,-3.1584,-3.1817,-3.1849,-3.1893,-3.2081,-3.2213,-3.2344,-3.2344,-3.2519,-3.2692,-3.2605,-3.2779,-3.2896,-3.2982,-3.3111,-3.3313,-3.3441,-3.3777,-3.438,-3.5492,-3.5733,-3.5914,-3.6492,-3.669,-3.6612,-3.6562,-3.7139,-3.7607,-3.7703,-3.7883,-3.8076,-3.7965,-3.7676,-3.7675,-3.7891,-3.769,-3.7503,-3.798,-3.8157,-3.8086,-3.8058,-3.7653,-3.7569,-3.7709,-3.7681,-3.7555,-3.754,-3.7569,-3.7288,-3.7063,-3.6978,-3.6905,-3.6905,-3.6824,-3.6722,-3.6553,-3.6782,-3.6978,-3.6978,-3.6978,-3.6978,-3.6978,-3.6978,-3.6978,-2.6921,-2.7036,-2.7841,-2.8511,-2.9075,-2.9995,-3.0463,-3.0629,-3.0384,-3.015,-3.0019,-2.8947,-2.9197,-2.9495,-2.9302,-2.93,-2.9776,-3.0235,-3.0806,-3.1167,-3.1333,-3.1476,-3.1669,-3.1874,-3.2077,-3.2128,-3.2185,-3.2448,-3.2823,-3.298,-3.2937,-3.3155,-3.2833,-3.2627,-3.25,-3.2248,-3.2121,-3.2144,-3.2264,-3.2368,-3.2635,-3.2734,-3.2602,-3.2207,-3.1968,-3.1681,-3.1505,-3.1478,-3.1555,-3.1769,-3.1793,-3.1926,-3.2071,-3.2147,-3.2203,-3.2435,-3.2572,-3.2684,-3.266,-3.2574,-3.2556,-3.2561,-3.2618,-3.2798,-3.2891,-3.3101,-3.324,-3.3313,-3.3577,-3.3956,-3.5011,-3.5306,-3.5965,-3.6532,-3.6943,-3.6943,-3.6766,-3.6488,-3.6643,-3.733,-3.7907,-3.8265,-3.8421,-3.8311,-3.8436,-3.8461,-3.822,-3.8215,-3.8719,-3.8916,-3.8747,-3.8607,-3.8255,-3.8114,-3.8201,-3.8229,-3.8074,-3.799,-3.8004,-3.7625,-3.7259,-3.7074,-3.6961,-3.6697,-3.6599,-3.6595,-3.6652,-3.6849,-3.695,-3.6964,-3.6978,-3.6978,-3.6978,-3.6978,-3.6978,-2.7905,-2.7722,-2.8721,-2.9231,-2.9381,-2.9985,-3.0302,-3.0319,-3.0264,-3.0143,-3.0034,-2.964,-2.9402,-2.9549,-2.9536,-2.9765,-3.0099,-3.0505,-3.0827,-3.1178,-3.1424,-3.1669,-3.1863,-3.2077,-3.2291,-3.2667,-3.2718,-3.288,-3.3131,-3.3231,-3.3231,-3.3258,-3.3166,-3.3097,-3.3074,-3.3051,-3.2929,-3.292,-3.3042,-3.3256,-3.3293,-3.304,-3.2615,-3.2124,-3.1903,-3.1783,-3.168,-3.1665,-3.1877,-3.2298,-3.2346,-3.2445,-3.2507,-3.2585,-3.2629,-3.2714,-3.2936,-3.3019,-3.3051,-3.2828,-3.3077,-3.3289,-3.3065,-3.294,-3.3152,-3.3276,-3.3149,-3.3192,-3.3371,-3.3806,-3.4611,-3.4961,-3.4963,-3.5267,-3.5452,-3.5253,-3.5038,-3.5371,-3.6202,-3.7219,-3.7921,-3.8505,-3.8638,-3.8726,-3.8755,-3.8797,-3.8781,-3.8806,-3.9183,-3.9226,-3.9071,-3.8944,-3.8804,-3.8747,-3.8775,-3.879,-3.8733,-3.858,-3.8454,-3.8046,-3.7653,-3.7231,-3.6964,-3.6796,-3.6768,-3.6824,-3.688,-3.6922,-3.6936,-3.6978,-3.6978,-3.6978,-3.6978,-3.6978,-3.6978,-2.8685,-2.7955,-2.9218,-2.9636,-2.9494,-2.9954,-3.022,-3.022,-3.0231,-3.0236,-3.0024,-2.9539,-2.9248,-2.927,-2.8946,-2.9257,-2.9932,-3.0443,-3.0713,-3.1034,-3.1527,-3.1863,-3.2066,-3.2291,-3.2566,-3.288,-3.3042,-3.3142,-3.3281,-3.3281,-3.3281,-3.3281,-3.3281,-3.3281,-3.3281,-3.3258,-3.3381,-3.3481,-3.363,-3.3729,-3.3683,-3.3194,-3.2651,-3.2464,-3.2291,-3.228,-3.2118,-3.2094,-3.2214,-3.237,-3.2259,-3.2195,-3.2321,-3.2589,-3.278,-3.2786,-3.2894,-3.2982,-3.2975,-3.2727,-3.2843,-3.282,-3.2776,-3.2864,-3.2971,-3.2903,-3.289,-3.2934,-3.3451,-3.3966,-3.4597,-3.4925,-3.5404,-3.5519,-3.5293,-3.4899,-3.4749,-3.5027,-3.5967,-3.7093,-3.7533,-3.809,-3.8839,-3.8916,-3.899,-3.9061,-3.9215,-3.941,-3.9634,-3.9676,-3.9591,-3.9549,-3.9465,-3.931,-3.9296,-3.9268,-3.9352,-3.9268,-3.8974,-3.8566,-3.8131,-3.7723,-3.7302,-3.6978,-3.6993,-3.7091,-3.6978,-3.695,-3.6964,-3.6978,-3.6978,-3.6978,-3.6978,-3.6978,-3.6978,-2.9158,-2.8248,-2.9566,-2.9913,-2.9642,-3.0003,-3.022,-3.022,-3.022,-3.0198,-3.012,-2.9326,-2.8988,-2.8983,-2.8785,-2.8872,-2.9754,-3.0287,-3.0661,-3.123,-3.1669,-3.2015,-3.2342,-3.2606,-3.2942,-3.3031,-3.3181,-3.3281,-3.3281,-3.3281,-3.3281,-3.3281,-3.3281,-3.3281,-3.3281,-3.3281,-3.3431,-3.358,-3.3729,-3.3779,-3.37,-3.3401,-3.31,-3.3031,-3.2994,-3.2881,-3.2695,-3.2659,-3.2659,-3.2611,-3.2358,-3.2066,-3.1982,-3.2438,-3.2682,-3.2586,-3.253,-3.2628,-3.2862,-3.2771,-3.2906,-3.3047,-3.293,-3.2904,-3.2788,-3.2771,-3.2565,-3.2644,-3.3289,-3.3966,-3.4371,-3.5114,-3.5474,-3.5578,-3.5321,-3.525,-3.5018,-3.5171,-3.5721,-3.6512,-3.6983,-3.7745,-3.8587,-3.8692,-3.8641,-3.9338,-3.9521,-3.9802,-4.0055,-4.0322,-4.0308,-4.0266,-4.014,-3.9887,-3.9774,-3.969,-3.9816,-3.9915,-3.9592,-3.9198,-3.8735,-3.8271,-3.7878,-3.7608,-3.7302,-3.7358,-3.7175,-3.6993,-3.6978,-3.6978,-3.6978,-3.6978,-3.6978,-3.6978,-3.6978,-2.9265,-2.9254,-2.9921,-3.0155,-3.0079,-3.0106,-3.0188,-3.0188,-3.0177,-2.9937,-2.965,-2.9296,-2.9036,-2.8819,-2.8914,-2.9379,-3.0015,-3.0443,-3.0858,-3.1414,-3.1863,-3.228,-3.2667,-3.2841,-3.3042,-3.3181,-3.3281,-3.3281,-3.3281,-3.3281,-3.3281,-3.3281,-3.3281,-3.3281,-3.3281,-3.3281,-3.3331,-3.3431,-3.3828,-3.4113,-3.4227,-3.4006,-3.3744,-3.3565,-3.3385,-3.325,-3.3164,-3.3104,-3.3068,-3.3176,-3.3104,-3.2827,-3.2527,-3.2476,-3.2369,-3.2398,-3.2697,-3.3387,-3.3637,-3.3527,-3.3428,-3.369,-3.3682,-3.339,-3.3113,-3.291,-3.2788,-3.2767,-3.3339,-3.3713,-3.3866,-3.3849,-3.3976,-3.4315,-3.4645,-3.471,-3.4715,-3.5517,-3.6061,-3.6584,-3.7249,-3.7763,-3.8428,-3.8357,-3.8335,-3.9168,-3.9853,-4.0151,-4.0391,-4.0589,-4.0702,-4.0589,-4.0477,-4.0252,-4.0153,-4.0083,-4.0139,-4.0364,-4.0154,-3.9774,-3.9311,-3.8875,-3.8735,-3.8452,-3.8032,-3.7555,-3.7316,-3.7147,-3.7035,-3.6978,-3.6978,-3.6978,-3.6978,-3.6978,-3.6978,-2.9429,-2.9068,-2.9601,-2.9642,-2.9401,-2.9438,-2.9554,-2.9762,-2.9805,-2.9764,-2.9475,-2.8831,-2.8294,-2.8014,-2.8173,-2.8721,-2.9504,-3.0391,-3.0754,-3.1311,-3.1885,-3.2454,-3.2505,-3.288,-3.3242,-3.3231,-3.3281,-3.3281,-3.3281,-3.3281,-3.3281,-3.3281,-3.3281,-3.3281,-3.3281,-3.3281,-3.3381,-3.358,-3.3927,-3.4261,-3.4434,-3.4353,-3.4102,-3.3875,-3.3719,-3.367,-3.3561,-3.3068,-3.3236,-3.338,-3.326,-3.2767,-3.2647,-3.2719,-3.2753,-3.2385,-3.2559,-3.2926,-3.317,-3.3748,-3.3995,-3.4012,-3.3913,-3.3781,-3.3399,-3.3244,-3.3186,-3.3119,-3.3544,-3.3798,-3.3918,-3.4041,-3.4209,-3.4375,-3.4436,-3.4675,-3.504,-3.5814,-3.6454,-3.6959,-3.7484,-3.8101,-3.8564,-3.8601,-3.8777,-3.9351,-3.991,-4.0234,-4.0476,-4.0659,-4.0702,-4.0688,-4.0546,-4.0434,-4.0405,-4.0363,-4.0321,-4.0461,-4.0575,-4.0196,-3.9816,-3.9535,-3.9394,-3.8916,-3.8243,-3.7821,-3.7526,-3.7217,-3.7007,-3.6978,-3.6978,-3.7017,-3.7017,-3.7017,-3.7017,-2.9507,-2.8962,-2.9335,-2.9194,-2.8814,-2.8803,-2.9022,-2.9328,-2.9445,-2.9535,-2.93,-2.8565,-2.7792,-2.7459,-2.789,-2.8555,-2.9079,-3.0443,-3.0754,-3.1167,-3.1896,-3.2566,-3.2706,-3.3081,-3.3292,-3.3281,-3.3281,-3.3281,-3.3281,-3.3281,-3.3281,-3.3281,-3.3281,-3.3281,-3.3281,-3.3342,-3.3431,-3.3828,-3.3977,-3.431,-3.4628,-3.4617,-3.4294,-3.4114,-3.3982,-3.3946,-3.3694,-3.3236,-3.326,-3.3428,-3.3188,-3.2827,-3.2815,-3.302,-3.3056,-3.2849,-3.2933,-3.302,-3.328,-3.3661,-3.3924,-3.3835,-3.3661,-3.3608,-3.3518,-3.3564,-3.3639,-3.3511,-3.3945,-3.4174,-3.4258,-3.4583,-3.4619,-3.4751,-3.4905,-3.5127,-3.5485,-3.6266,-3.7007,-3.7674,-3.8161,-3.867,-3.9024,-3.9056,-3.9288,-3.9645,-4.0025,-4.0333,-4.0531,-4.0673,-4.0659,-4.0659,-4.0674,-4.0518,-4.0474,-4.0473,-4.0501,-4.0501,-4.0587,-4.056,-4.021,-4.0055,-3.9943,-3.9325,-3.8622,-3.851,-3.8468,-3.7709,-3.6978,-3.6978,-3.6978,-3.7056,-3.7056,-3.7056,-3.7056,-2.9267,-2.943,-2.9478,-2.9241,-2.8803,-2.8803,-2.8825,-2.8957,-2.9339,-2.919,-2.8845,-2.854,-2.8074,-2.7965,-2.8343,-2.8973,-2.9554,-3.0422,-3.1054,-3.1732,-3.2505,-3.288,-3.2919,-3.3019,-3.3281,-3.3281,-3.3281,-3.3281,-3.3281,-3.3281,-3.3281,-3.3281,-3.3281,-3.3281,-3.3342,-3.3392,-3.3592,-3.3927,-3.4125,-3.4359,-3.4677,-3.4678,-3.4534,-3.4162,-3.3982,-3.3837,-3.3404,-3.3248,-3.3272,-3.3513,-3.3356,-3.314,-3.3152,-3.3404,-3.3428,-3.3344,-3.3513,-3.3544,-3.3611,-3.3725,-3.3573,-3.3346,-3.3292,-3.3584,-3.3712,-3.386,-3.3945,-3.397,-3.4342,-3.457,-3.4703,-3.4811,-3.4763,-3.4872,-3.5113,-3.5507,-3.5987,-3.6806,-3.7567,-3.8307,-3.8787,-3.9047,-3.9341,-3.9388,-3.9548,-3.9908,-3.9855,-4.0148,-4.0445,-4.0601,-4.063,-4.0616,-4.0702,-4.0602,-4.0457,-4.0428,-4.0414,-4.0428,-4.0471,-4.0587,-4.0546,-4.0462,-4.035,-4.0055,-3.9465,-3.9437,-3.9142,-3.8102,-3.733,-3.7077,-3.7017,-3.7056,-3.7134,-3.7187,-3.7226,-2.9076,-2.9088,-2.9077,-2.8967,-2.8803,-2.8803,-2.8803,-2.8836,-2.9,-2.8672,-2.8098,-2.7903,-2.7852,-2.8087,-2.8901,-2.9517,-3.0037,-3.1476,-3.1527,-3.168,-3.2252,-3.2667,-3.2768,-3.2969,-3.3281,-3.3281,-3.3281,-3.3281,-3.3281,-3.3281,-3.3281,-3.3281,-3.3331,-3.3281,-3.3342,-3.3492,-3.3779,-3.4026,-3.4261,-3.4494,-3.4677,-3.4775,-3.4679,-3.451,-3.4078,-3.4138,-3.4138,-3.3573,-3.3561,-3.3645,-3.3729,-3.3597,-3.3549,-3.3885,-3.397,-3.3801,-3.3958,-3.3981,-3.4015,-3.4206,-3.4541,-3.4468,-3.4335,-3.4229,-3.4268,-3.445,-3.445,-3.4558,-3.4619,-3.4763,-3.4823,-3.4823,-3.4823,-3.4932,-3.5271,-3.574,-3.6298,-3.7036,-3.7579,-3.8069,-3.8612,-3.9077,-3.937,-3.9662,-3.9851,-4.0069,-3.9989,-3.9949,-4.026,-4.0515,-4.0544,-4.0573,-4.0659,-4.0487,-4.0284,-4.0328,-4.0371,-4.0342,-4.0298,-4.0428,-4.0544,-4.0645,-4.0533,-4.035,-4.0041,-3.9592,-3.8988,-3.8187,-3.7653,-3.733,-3.7158,-3.7056,-3.7187,-3.7303,-3.738,-2.8744,-2.8675,-2.8768,-2.8803,-2.8803,-2.8803,-2.8803,-2.8803,-2.871,-2.8243,-2.7541,-2.7716,-2.7811,-2.8198,-2.9065,-2.9684,-3.0224,-3.1322,-3.1476,-3.1834,-3.2302,-3.2656,-3.2606,-3.2768,-3.3281,-3.3281,-3.3281,-3.3281,-3.3281,-3.3281,-3.3281,-3.3331,-3.3381,-3.3431,-3.3492,-3.3691,-3.3915,-3.4162,-3.4347,-3.4531,-3.4775,-3.4775,-3.4619,-3.451,-3.4126,-3.397,-3.4006,-3.3597,-3.3585,-3.3778,-3.3934,-3.3886,-3.4066,-3.4282,-3.4486,-3.4366,-3.4222,-3.421,-3.439,-3.4365,-3.4847,-3.4931,-3.469,-3.4739,-3.4872,-3.4884,-3.4751,-3.4872,-3.486,-3.4823,-3.4884,-3.4872,-3.4823,-3.492,-3.5452,-3.593,-3.625,-3.6849,-3.7268,-3.7763,-3.831,-3.885,-3.9158,-3.9438,-3.9834,-4.0023,-4.0041,-4.0045,-4.0315,-4.0485,-4.0515,-4.0544,-4.0616,-4.0357,-4.0097,-4.0184,-4.0184,-4.0081,-4.0081,-4.0298,-4.0414,-4.053,-4.0631,-4.0505,-4.0112,-3.9591,-3.893,-3.8201,-3.7821,-3.754,-3.7352,-3.7134,-3.7226,-3.738,-3.7471,-2.8171,-2.8441,-2.8664,-2.8803,-2.8803,-2.8803,-2.8803,-2.8664,-2.8384,-2.7925,-2.7413,-2.8033,-2.8196,-2.8198,-2.925,-2.9912,-3.0235,-3.1311,-3.1732,-3.1975,-3.2656,-3.3119,-3.3131,-3.3181,-3.3342,-3.3292,-3.3281,-3.3281,-3.3331,-3.3381,-3.3331,-3.3431,-3.358,-3.3729,-3.3741,-3.3977,-3.4211,-3.4347,-3.4384,-3.458,-3.4726,-3.4775,-3.457,-3.4342,-3.4198,-3.4078,-3.3897,-3.3777,-3.3801,-3.3922,-3.4102,-3.4186,-3.4426,-3.4583,-3.4715,-3.4679,-3.4679,-3.4703,-3.4739,-3.3897,-3.4244,-3.4969,-3.4776,-3.4643,-3.4981,-3.5017,-3.4932,-3.5078,-3.503,-3.4969,-3.4969,-3.4969,-3.4872,-3.4969,-3.5488,-3.5883,-3.6156,-3.6392,-3.6815,-3.7129,-3.7841,-3.8522,-3.8832,-3.9185,-3.9659,-3.9878,-3.9966,-4.0154,-4.0356,-4.0442,-4.0485,-4.0587,-4.0616,-4.0457,-4.0227,-4.0083,-4.0009,-3.9848,-3.9906,-4.0211,-4.0385,-4.0515,-4.0545,-4.056,-4.0238,-3.9718,-3.9002,-3.8271,-3.7779,-3.7302,-3.7331,-3.7226,-3.7341,-3.7419,-3.7471,-2.8008,-2.8395,-2.8488,-2.8664,-2.8803,-2.8803,-2.8606,-2.8186,-2.7668,-2.7241,-2.7246,-2.7759,-2.8106,-2.8533,-2.9723,-3.063,-3.1105,-3.2088,-3.2606,-3.2218,-3.2958,-3.2908,-3.2958,-3.317,-3.3392,-3.3492,-3.3431,-3.3431,-3.358,-3.358,-3.353,-3.363,-3.3915,-3.4064,-3.4064,-3.4162,-3.4335,-3.4433,-3.4531,-3.4726,-3.4775,-3.4775,-3.4691,-3.4474,-3.4474,-3.4354,-3.4222,-3.4174,-3.4138,-3.4126,-3.4246,-3.445,-3.4486,-3.4546,-3.4775,-3.4775,-3.4775,-3.4775,-3.4751,-3.4475,-3.4583,-3.486,-3.4884,-3.48,-3.5307,-3.5223,-3.5175,-3.5187,-3.5187,-3.5138,-3.4981,-3.5078,-3.503,-3.4872,-3.5211,-3.55,-3.574,-3.5895,-3.6168,-3.6439,-3.6977,-3.8024,-3.8639,-3.9216,-3.9716,-3.9966,-4.0097,-4.0198,-4.0356,-4.0399,-4.0471,-4.0587,-4.0616,-4.0501,-4.0328,-4.0184,-4.0039,-3.9936,-4.0081,-4.0312,-4.0442,-4.0471,-4.0587,-4.0659,-4.0294,-3.9887,-3.8861,-3.7948,-3.74,-3.7031,-3.7095,-3.7187,-3.7264,-3.7341,-3.7419,-2.7773,-2.8113,-2.8243,-2.829,-2.8384,-2.8466,-2.8186,-2.761,-2.7098,-2.6941,-2.715,-2.7642,-2.8269,-2.9021,-3.0063,-3.1197,-3.1629,-3.224,-3.2807,-3.2471,-3.3019,-3.3069,-3.3008,-3.3058,-3.3331,-3.3492,-3.353,-3.353,-3.3679,-3.379,-3.3878,-3.4014,-3.4237,-3.4347,-3.4396,-3.4494,-3.4531,-3.458,-3.4677,-3.4775,-3.4775,-3.4775,-3.4775,-3.4739,-3.4739,-3.4727,-3.4751,-3.4715,-3.4631,-3.445,-3.4474,-3.4667,-3.4474,-3.4522,-3.4775,-3.4775,-3.4775,-3.4775,-3.4751,-3.4739,-3.4836,-3.515,-3.503,-3.5272,-3.5623,-3.5454,-3.5418,-3.5418,-3.5405,-3.5211,-3.5054,-3.5163,-3.5126,-3.498,-3.5223,-3.5478,-3.5502,-3.566,-3.5704,-3.5978,-3.6427,-3.7428,-3.8626,-3.9234,-3.9848,-4.0053,-4.0227,-4.0298,-4.0399,-4.0471,-4.0515,-4.0587,-4.0616,-4.0501,-4.0342,-4.0241,-4.0097,-4.0009,-4.0154,-4.0399,-4.0399,-4.0428,-4.0587,-4.0518,-3.9971,-3.9324,-3.841,-3.7583,-3.7175,-3.6978,-3.7017,-3.7095,-3.7187,-3.7264,-3.7341,-2.7584,-2.7631,-2.7857,-2.7857,-2.7668,-2.7809,-2.7515,-2.6907,-2.686,-2.6901,-2.714,-2.7702,-2.8348,-2.9329,-2.9849,-3.0607,-3.1472,-3.1728,-3.2179,-3.2533,-3.3119,-3.317,-3.3231,-3.3281,-3.3381,-3.3431,-3.353,-3.3668,-3.3717,-3.3977,-3.4211,-3.4335,-3.4433,-3.4543,-3.4689,-3.4726,-3.4726,-3.4726,-3.4726,-3.4775,-3.4775,-3.4775,-3.4775,-3.4775,-3.4775,-3.4775,-3.4775,-3.4751,-3.4739,-3.4715,-3.4739,-3.4763,-3.4751,-3.4763,-3.4775,-3.4775,-3.4775,-3.4775,-3.4823,-3.4823,-3.5017,-3.5223,-3.5271,-3.5709,-3.5844,-3.5624,-3.5466,-3.5466,-3.5466,-3.5296,-3.5163,-3.5174,-3.5185,-3.532,-3.5503,-3.5576,-3.5477,-3.5527,-3.5502,-3.574,-3.6156,-3.7116,-3.8639,-3.9469,-3.9848,-4.0168,-4.0328,-4.0414,-4.0515,-4.0587,-4.0616,-4.063,-4.063,-4.0471,-4.0385,-4.0328,-4.0314,-4.027,-4.0227,-4.0328,-4.0385,-4.0471,-4.0587,-4.035,-3.9535,-3.8846,-3.8339,-3.7695,-3.7091,-3.6978,-3.6978,-3.7017,-3.7095,-3.7187,-3.7226,-2.7452,-2.7631,-2.7904,-2.7752,-2.7278,-2.6849,-2.662,-2.6582,-2.6255,-2.6074,-2.6192,-2.7111,-2.7851,-2.8003,-2.9419,-3.0384,-3.1196,-3.1827,-3.2499,-3.2958,-3.317,-3.3281,-3.3281,-3.3331,-3.3431,-3.358,-3.3668,-3.3817,-3.4014,-3.4211,-3.4445,-3.4628,-3.4628,-3.4726,-3.4775,-3.4775,-3.4775,-3.4775,-3.4775,-3.4775,-3.4775,-3.4775,-3.4775,-3.4775,-3.4775,-3.4775,-3.4775,-3.4775,-3.4775,-3.4775,-3.4775,-3.4775,-3.4775,-3.4775,-3.4775,-3.4775,-3.4775,-3.4823,-3.4823,-3.4969,-3.5175,-3.538,-3.5572,-3.5801,-3.59,-3.5671,-3.5429,-3.5454,-3.5442,-3.5296,-3.5332,-3.5342,-3.545,-3.5633,-3.5623,-3.5429,-3.5341,-3.5198,-3.526,-3.5631,-3.6048,-3.7302,-3.8774,-3.938,-3.9747,-4.0211,-4.0442,-4.0515,-4.0587,-4.0659,-4.0702,-4.0702,-4.0673,-4.0544,-4.0587,-4.0587,-4.053,-4.0516,-4.0443,-4.04,-4.0544,-4.0587,-4.063,-4.0266,-3.9578,-3.9099,-3.8677,-3.7962,-3.7203,-3.7007,-3.6978,-3.6978,-3.7017,-3.7095,-3.7134,-2.7357,-2.7499,-2.7631,-2.7384,-2.6706,-2.6187,-2.6014,-2.5965,-2.5781,-2.5859,-2.6349,-2.6961,-2.7508,-2.8359,-2.9563,-3.0518,-3.1362,-3.1995,-3.2684,-3.3119,-3.3281,-3.3281,-3.3281,-3.3431,-3.353,-3.3668,-3.3915,-3.4113,-3.4249,-3.4445,-3.4677,-3.4775,-3.4775,-3.4775,-3.4775,-3.4775,-3.4775,-3.4775,-3.4775,-3.4775,-3.4775,-3.4775,-3.4775,-3.4775,-3.4775,-3.4775,-3.4775,-3.4775,-3.4775,-3.4775,-3.4775,-3.4775,-3.4775,-3.4775,-3.4775,-3.4775,-3.4775,-3.4775,-3.4823,-3.4932,-3.5126,-3.5284,-3.5476,-3.5537,-3.5633,-3.5501,-3.5502,-3.5551,-3.5369,-3.532,-3.5441,-3.5596,-3.5751,-3.5893,-3.5581,-3.5268,-3.5063,-3.4907,-3.5199,-3.5584,-3.6496,-3.7671,-3.8594,-3.9189,-3.9703,-4.0168,-4.0442,-4.0515,-4.0587,-4.0659,-4.0702,-4.0702,-4.0702,-4.0673,-4.0702,-4.0702,-4.0659,-4.0616,-4.0616,-4.0616,-4.0702,-4.0659,-4.0617,-4.0238,-3.9718,-3.9184,-3.8608,-3.8032,-3.7414,-3.7189,-3.6978,-3.6978,-3.6978,-3.7017,-3.7017,-2.7278,-2.7237,-2.7152,-2.6723,-2.6091,-2.5771,-2.5577,-2.5382,-2.5684,-2.6231,-2.6921,-2.7139,-2.7793,-2.8522,-2.9536,-3.0524,-3.1268,-3.1995,-3.2734,-3.3281,-3.3381,-3.3381,-3.3481,-3.358,-3.3729,-3.3915,-3.4101,-3.4347,-3.4494,-3.4628,-3.4726,-3.4775,-3.4775,-3.4775,-3.4775,-3.4775,-3.4775,-3.4775,-3.4775,-3.4775,-3.4775,-3.4775,-3.4775,-3.4775,-3.4775,-3.4775,-3.4775,-3.4775,-3.4775,-3.4775,-3.4775,-3.4775,-3.4872,-3.4823,-3.4823,-3.4872,-3.492,-3.4872,-3.492,-3.503,-3.4932,-3.4981,-3.4872,-3.5126,-3.532,-3.532,-3.5333,-3.5381,-3.5223,-3.5369,-3.5512,-3.5535,-3.563,-3.5763,-3.563,-3.5304,-3.51,-3.5138,-3.5512,-3.6036,-3.6917,-3.8096,-3.8935,-3.9571,-3.9791,-4.0211,-4.0442,-4.0471,-4.0587,-4.0716,-4.0702,-4.0702,-4.0702,-4.0702,-4.0702,-4.0702,-4.0702,-4.0702,-4.0702,-4.0702,-4.0702,-4.0617,-4.0505,-4.0154,-3.9774,-3.9072,-3.8468,-3.7892,-3.7414,-3.7133,-3.6978,-3.6978,-3.6993,-3.7035,-3.6978,-2.7102,-2.6698,-2.6114,-2.5821,-2.5781,-2.5518,-2.5479,-2.5606,-2.5907,-2.617,-2.6395,-2.6833,-2.7204,-2.7831,-2.9271,-3.0236,-3.0822,-3.2062,-3.2678,-3.322,-3.3481,-3.353,-3.3679,-3.3828,-3.3977,-3.4075,-3.4298,-3.4531,-3.4628,-3.4775,-3.4775,-3.4775,-3.4775,-3.4775,-3.4775,-3.4775,-3.4775,-3.4775,-3.4775,-3.4775,-3.4775,-3.4775,-3.4775,-3.4775,-3.4775,-3.4775,-3.4775,-3.4775,-3.4775,-3.4775,-3.4775,-3.492,-3.5078,-3.4932,-3.503,-3.5271,-3.5187,-3.5151,-3.5151,-3.5223,-3.5272,-3.5235,-3.5223,-3.5247,-3.5223,-3.5078,-3.5054,-3.5138,-3.5198,-3.5392,-3.5549,-3.5511,-3.5437,-3.557,-3.5644,-3.5354,-3.5076,-3.5466,-3.5847,-3.6602,-3.7487,-3.8349,-3.9199,-3.9716,-3.9922,-4.0154,-4.0356,-4.0485,-4.0587,-4.0702,-4.0702,-4.0702,-4.0702,-4.0702,-4.0702,-4.0702,-4.0702,-4.0702,-4.0702,-4.0702,-4.0702,-4.0659,-4.0561,-4.0238,-3.9816,-3.9283,-3.8636,-3.7751,-3.733,-3.7302,-3.7288,-3.7414,-3.7245,-3.7217,-3.7091,-2.6636,-2.6023,-2.5404,-2.5303,-2.5606,-2.5421,-2.547,-2.5742,-2.61,-2.6352,-2.6488,-2.6977,-2.7273,-2.7658,-2.9246,-3.0137,-3.0822,-3.2134,-3.2828,-3.3331,-3.358,-3.363,-3.3828,-3.4064,-3.4162,-3.431,-3.4494,-3.4677,-3.4775,-3.4775,-3.4775,-3.4775,-3.4775,-3.4775,-3.4775,-3.4775,-3.4775,-3.4775,-3.4775,-3.4775,-3.4775,-3.4775,-3.4775,-3.4775,-3.4775,-3.4775,-3.4775,-3.4775,-3.4775,-3.4775,-3.4775,-3.4969,-3.5078,-3.5078,-3.5126,-3.5332,-3.5356,-3.5381,-3.5454,-3.5515,-3.56,-3.5491,-3.5454,-3.5404,-3.5042,-3.492,-3.503,-3.509,-3.4993,-3.5101,-3.5501,-3.5524,-3.5474,-3.5546,-3.5341,-3.504,-3.5137,-3.5503,-3.5996,-3.6662,-3.7531,-3.8509,-3.9298,-3.9747,-4.0009,-4.0255,-4.0399,-4.0471,-4.063,-4.0702,-4.0702,-4.0758,-4.0786,-4.0744,-4.0702,-4.0702,-4.0702,-4.0702,-4.0702,-4.0702,-4.0702,-4.0702,-4.0617,-4.0378,-4.014,-3.9831,-3.9086,-3.8271,-3.8046,-3.8159,-3.806,-3.7948,-3.7723,-3.7526,-3.7484,-2.6064,-2.5356,-2.4805,-2.4928,-2.5412,-2.5362,-2.547,-2.58,-2.6304,-2.6747,-2.7085,-2.7572,-2.7796,-2.8617,-2.9934,-3.0563,-3.144,-3.2531,-3.3124,-3.3431,-3.3679,-3.3817,-3.4014,-3.4249,-3.4396,-3.4543,-3.464,-3.4726,-3.4775,-3.4775,-3.4775,-3.4775,-3.4775,-3.4775,-3.4775,-3.4775,-3.4775,-3.4775,-3.4775,-3.4775,-3.4775,-3.4775,-3.4775,-3.4775,-3.4775,-3.4823,-3.4823,-3.4823,-3.4823,-3.4823,-3.4872,-3.503,-3.5126,-3.5175,-3.5223,-3.532,-3.5416,-3.5418,-3.5502,-3.5599,-3.5611,-3.5573,-3.557,-3.534,-3.4931,-3.4884,-3.4981,-3.4981,-3.4884,-3.4956,-3.5356,-3.5477,-3.5378,-3.5439,-3.5162,-3.5017,-3.5308,-3.5685,-3.6202,-3.6781,-3.7727,-3.8687,-3.928,-3.973,-4.0081,-4.0326,-4.0513,-4.0558,-4.0616,-4.0659,-4.0702,-4.0842,-4.0955,-4.0884,-4.0758,-4.0758,-4.0772,-4.0702,-4.0702,-4.0702,-4.0702,-4.0702,-4.0688,-4.0645,-4.0393,-3.9999,-3.9746,-3.9183,-3.9085,-3.8902,-3.8649,-3.8424,-3.841,-3.8241,-3.8074,-2.563,-2.4608,-2.427,-2.4231,-2.441,-2.4994,-2.5567,-2.6052,-2.6352,-2.6965,-2.7688,-2.8226,-2.8566,-2.8715,-3.0175,-3.1003,-3.1511,-3.2738,-3.3362,-3.363,-3.3854,-3.4052,-3.4249,-3.4445,-3.4677,-3.4726,-3.4726,-3.4775,-3.4775,-3.4775,-3.4775,-3.4775,-3.4775,-3.4775,-3.4799,-3.4847,-3.4859,-3.4883,-3.4896,-3.4872,-3.4823,-3.4823,-3.4775,-3.4775,-3.4775,-3.492,-3.503,-3.4872,-3.4969,-3.4969,-3.4981,-3.5078,-3.5175,-3.5175,-3.5175,-3.532,-3.5416,-3.5405,-3.5454,-3.5526,-3.5514,-3.5416,-3.5318,-3.5173,-3.492,-3.4884,-3.4981,-3.503,-3.4981,-3.4981,-3.5187,-3.5126,-3.5065,-3.5418,-3.5404,-3.5489,-3.5719,-3.6045,-3.6426,-3.7172,-3.7998,-3.8807,-3.953,-3.9977,-4.0409,-4.0639,-4.0796,-4.0911,-4.101,-4.0926,-4.0814,-4.0997,-4.1221,-4.0969,-4.0842,-4.0856,-4.0856,-4.0772,-4.0702,-4.0702,-4.0702,-4.0702,-4.0688,-4.0674,-4.0378,-3.9971,-3.9732,-3.9774,-3.9465,-3.9197,-3.8986,-3.8832,-3.8916,-3.8888,-3.8721]}]]